Site Date RecNum LW_MEAN_3000_0_04 LWDRY_TOT_3000_0_04 LWCON_TOT_3000_0_04 LWWET_TOT_3000_0_04 LW_MEAN_4000_0_05 LWDRY_TOT_4000_0_05 LWCON_TOT_4000_0_05 LWWET_TOT_4000_0_05 LW_MEAN_5000_0_06 LWDRY_TOT_5000_0_06 LWCON_TOT_5000_0_06 LWWET_TOT_5000_0_06 AIRTEMP_MEAN_5000_0_06 RELHUM_MEAN_5000_0_06 DEWPT_MEAN_5000_0_06 WSPD_SNC_MEAN_5000_0_02 WSPD_SNC_MAG_5000_0_02 WDIR_SNC_MEAN_5000_0_02 WDIR_SNC_STDDEV_5000_0_02 WSPD_SNC_MAX_5000_0_02 AIRTEMP_MAX_5000_0_06 AIRTEMP_MIN_5000_0_06 RELHUM_MAX_5000_0_06 RELHUM_MIN_5000_0_06 SATVAPAIR_MEAN_5000_0_06 SATVAPDEW_MEAN_5000_0_06 VPD_MEAN_5000_0_06 LOGGERID PROGID
DSCMET_421 2018-09-24 17:30:00 4964 178.000 5.0000 0.0000 0.0000 260.700 5.0000 0.0000 0.0000 259.400 5.0000 0.0000 0.0000 18.980 42.380 5.922           19.170 18.730 42.960 41.220 21.944 9.300 12.644 421 696.6
DSCMET_421 2018-09-24 17:25:00 4963 177.900 5.0000 0.0000 0.0000 260.800 5.0000 0.0000 0.0000 259.300 5.0000 0.0000 0.0000 19.300 41.390 5.868           19.520 19.110 42.230 40.360 22.386 9.266 13.121 421 696.6
DSCMET_421 2018-09-24 17:20:00 4962 178.000 5.0000 0.0000 0.0000 261.000 5.0000 0.0000 0.0000 259.300 5.0000 0.0000 0.0000 19.310 40.940 5.720           19.460 19.140 41.500 40.010 22.400 9.171 13.229 421 696.6
DSCMET_421 2018-09-24 17:15:00 4961 177.200 5.0000 0.0000 0.0000 260.900 5.0000 0.0000 0.0000 259.300 5.0000 0.0000 0.0000 19.990 39.260 5.724           20.400 19.240 41.020 37.900 23.366 9.173 14.192 421 696.6
DSCMET_421 2018-09-24 17:10:00 4960 176.900 5.0000 0.0000 0.0000 260.700 5.0000 0.0000 0.0000 259.200 5.0000 0.0000 0.0000 20.030 38.930 5.638           20.480 19.750 39.970 38.030 23.424 9.119 14.305 421 696.6
DSCMET_421 2018-09-24 17:05:00 4959 176.900 5.0000 0.0000 0.0000 260.900 5.0000 0.0000 0.0000 259.300 5.0000 0.0000 0.0000 20.590 37.970 5.777           20.670 20.460 38.590 36.930 24.248 9.207 15.041 421 696.6
DSCMET_421 2018-09-24 17:00:00 4958 176.800 5.0000 0.0000 0.0000 260.900 5.0000 0.0000 0.0000 259.200 5.0000 0.0000 0.0000 21.200 36.540 5.764           21.600 20.570 37.200 35.260 25.174 9.199 15.976 421 696.6
DSCMET_421 2018-09-24 16:55:00 4957 177.300 5.0000 0.0000 0.0000 260.600 5.0000 0.0000 0.0000 259.000 5.0000 0.0000 0.0000 21.200 34.890 5.099           21.440 20.970 36.800 33.050 25.174 8.783 16.391 421 696.6
DSCMET_421 2018-09-24 16:50:00 4956 177.800 5.0000 0.0000 0.0000 260.600 5.0000 0.0000 0.0000 259.100 5.0000 0.0000 0.0000 21.880 35.180 5.817           22.080 21.500 36.720 33.150 26.243 9.232 17.011 421 696.6
DSCMET_421 2018-09-24 16:45:00 4955 177.800 5.0000 0.0000 0.0000 260.800 5.0000 0.0000 0.0000 259.100 5.0000 0.0000 0.0000 22.250 34.850 6.006           22.530 21.600 36.220 33.170 26.842 9.354 17.487 421 696.6
DSCMET_421 2018-09-24 16:40:00 4954 178.000 5.0000 0.0000 0.0000 260.700 5.0000 0.0000 0.0000 258.900 5.0000 0.0000 0.0000 22.390 33.330 5.486           23.060 21.550 34.430 31.360 27.071 9.023 18.048 421 696.6
DSCMET_421 2018-09-24 16:35:00 4953 177.800 5.0000 0.0000 0.0000 260.600 5.0000 0.0000 0.0000 258.800 5.0000 0.0000 0.0000 22.790 32.420 5.437           23.250 22.390 34.880 30.200 27.736 8.992 18.744 421 696.6
DSCMET_421 2018-09-24 16:30:00 4952 177.800 5.0000 0.0000 0.0000 260.600 5.0000 0.0000 0.0000 258.600 5.0000 0.0000 0.0000 23.680 26.850 3.514           24.030 23.420 30.730 22.610 29.267 7.858 21.409 421 696.6
DSCMET_421 2018-09-24 16:25:00 4951 178.100 5.0000 0.0000 0.0000 260.500 5.0000 0.0000 0.0000 258.600 5.0000 0.0000 0.0000 23.740 24.970 2.542           24.100 23.490 28.450 23.310 29.373 7.334 22.039 421 696.6
DSCMET_421 2018-09-24 16:20:00 4950 178.200 5.0000 0.0000 0.0000 260.500 5.0000 0.0000 0.0000 258.600 5.0000 0.0000 0.0000 24.060 21.970 1.025           24.500 23.440 26.460 19.940 29.943 6.578 23.365 421 696.6
DSCMET_421 2018-09-24 16:15:00 4949 178.100 5.0000 0.0000 0.0000 260.600 5.0000 0.0000 0.0000 258.600 5.0000 0.0000 0.0000 24.310 22.210 1.383           24.670 23.950 24.730 19.640 30.395 6.751 23.644 421 696.6
DSCMET_421 2018-09-24 16:10:00 4948 177.000 5.0000 0.0000 0.0000 260.500 5.0000 0.0000 0.0000 258.600 5.0000 0.0000 0.0000 24.290 22.920 1.805           24.530 23.920 29.110 21.300 30.359 6.958 23.400 421 696.6
DSCMET_421 2018-09-24 16:05:00 4947 177.300 5.0000 0.0000 0.0000 260.500 5.0000 0.0000 0.0000 258.700 5.0000 0.0000 0.0000 24.570 21.530 1.167           24.970 24.050 28.100 19.710 30.872 6.647 24.225 421 696.6
DSCMET_421 2018-09-24 16:00:00 4946 176.900 5.0000 0.0000 0.0000 260.500 5.0000 0.0000 0.0000 258.900 5.0000 0.0000 0.0000 24.770 23.700 2.675           25.080 24.320 26.270 22.000 31.242 7.404 23.838 421 696.6
DSCMET_421 2018-09-24 15:55:00 4945 176.200 5.0000 0.0000 0.0000 260.600 5.0000 0.0000 0.0000 258.900 5.0000 0.0000 0.0000 24.570 22.630 1.861           24.930 24.270 23.670 21.000 30.872 6.986 23.885 421 696.6
DSCMET_421 2018-09-24 15:50:00 4944 176.100 5.0000 0.0000 0.0000 260.500 5.0000 0.0000 0.0000 258.800 5.0000 0.0000 0.0000 24.610 20.840 0.749           24.830 24.470 24.100 19.660 30.945 6.449 24.496 421 696.6
DSCMET_421 2018-09-24 15:45:00 4943 176.100 5.0000 0.0000 0.0000 260.300 5.0000 0.0000 0.0000 258.900 5.0000 0.0000 0.0000 24.700 22.360 1.802           24.930 24.390 23.180 21.620 31.112 6.957 24.155 421 696.6
DSCMET_421 2018-09-24 15:40:00 4942 176.700 5.0000 0.0000 0.0000 260.400 5.0000 0.0000 0.0000 258.900 5.0000 0.0000 0.0000 24.840 20.800 0.913           25.200 24.570 22.260 19.530 31.373 6.526 24.848 421 696.6
DSCMET_421 2018-09-24 15:35:00 4941 177.000 5.0000 0.0000 0.0000 260.300 5.0000 0.0000 0.0000 258.900 5.0000 0.0000 0.0000 25.150 20.500 0.967           25.350 25.000 21.570 19.380 31.958 6.551 25.406 421 696.6
DSCMET_421 2018-09-24 15:30:00 4940 176.100 5.0000 0.0000 0.0000 260.300 5.0000 0.0000 0.0000 259.000 5.0000 0.0000 0.0000 25.010 19.500 0.162           25.300 24.650 20.320 18.750 31.693 6.180 25.513 421 696.6
DSCMET_421 2018-09-24 15:25:00 4939 176.000 5.0000 0.0000 0.0000 260.500 5.0000 0.0000 0.0000 259.200 5.0000 0.0000 0.0000 24.790 20.080 0.385           25.100 24.440 22.230 18.680 31.280 6.281 24.999 421 696.6
DSCMET_421 2018-09-24 15:20:00 4938 178.200 5.0000 0.0000 0.0000 260.900 5.0000 0.0000 0.0000 259.500 5.0000 0.0000 0.0000 24.440 22.690 1.789           24.640 24.220 31.270 18.880 30.632 6.951 23.682 421 696.6
DSCMET_421 2018-09-24 15:15:00 4937 177.200 5.0000 0.0000 0.0000 260.900 5.0000 0.0000 0.0000 259.900 5.0000 0.0000 0.0000 24.310 29.220 5.259           24.490 24.040 31.810 25.810 30.395 8.881 21.514 421 696.6
DSCMET_421 2018-09-24 15:10:00 4936 177.900 5.0000 0.0000 0.0000 261.000 5.0000 0.0000 0.0000 259.900 5.0000 0.0000 0.0000 23.960 31.020 5.817           24.120 23.810 33.590 29.180 29.764 9.233 20.531 421 696.6
DSCMET_421 2018-09-24 15:05:00 4935 178.700 5.0000 0.0000 0.0000 260.900 5.0000 0.0000 0.0000 259.900 5.0000 0.0000 0.0000 23.730 32.190 6.152           23.970 23.380 35.610 29.260 29.355 9.449 19.906 421 696.6
DSCMET_421 2018-09-24 15:00:00 4934 178.300 5.0000 0.0000 0.0000 260.900 5.0000 0.0000 0.0000 259.900 5.0000 0.0000 0.0000 23.740 33.510 6.744           24.090 23.380 35.010 31.650 29.373 9.843 19.530 421 696.6
DSCMET_421 2018-09-24 14:55:00 4933 179.000 5.0000 0.0000 0.0000 260.900 5.0000 0.0000 0.0000 259.900 5.0000 0.0000 0.0000 24.080 32.280 6.497           24.290 23.910 33.950 31.460 29.979 9.677 20.302 421 696.6
DSCMET_421 2018-09-24 14:50:00 4932 178.500 5.0000 0.0000 0.0000 260.900 5.0000 0.0000 0.0000 259.900 5.0000 0.0000 0.0000 23.720 32.240 6.166           24.190 23.390 32.840 31.530 29.338 9.458 19.879 421 696.6
DSCMET_421 2018-09-24 14:45:00 4931 177.900 5.0000 0.0000 0.0000 260.900 5.0000 0.0000 0.0000 259.900 5.0000 0.0000 0.0000 23.690 31.910 5.991           23.870 23.510 32.640 31.220 29.285 9.345 19.940 421 696.6
DSCMET_421 2018-09-24 14:40:00 4930 178.900 5.0000 0.0000 0.0000 260.900 5.0000 0.0000 0.0000 259.900 5.0000 0.0000 0.0000 23.690 32.160 6.104           23.830 23.440 32.790 31.700 29.285 9.418 19.867 421 696.6
DSCMET_421 2018-09-24 14:35:00 4929 178.200 5.0000 0.0000 0.0000 260.900 5.0000 0.0000 0.0000 260.000 5.0000 0.0000 0.0000 23.580 31.930 5.905           23.730 23.350 32.690 30.890 29.092 9.289 19.803 421 696.6
DSCMET_421 2018-09-24 14:30:00 4928 178.100 5.0000 0.0000 0.0000 261.000 5.0000 0.0000 0.0000 260.000 5.0000 0.0000 0.0000 23.590 31.470 5.704           23.860 23.330 34.100 29.110 29.109 9.161 19.948 421 696.6
DSCMET_421 2018-09-24 14:25:00 4927 178.200 5.0000 0.0000 0.0000 260.900 5.0000 0.0000 0.0000 260.000 5.0000 0.0000 0.0000 23.330 32.780 6.066           23.550 23.150 33.900 31.550 28.657 9.394 19.263 421 696.6
DSCMET_421 2018-09-24 14:20:00 4926 177.700 5.0000 0.0000 0.0000 260.700 5.0000 0.0000 0.0000 260.000 5.0000 0.0000 0.0000 23.440 32.170 5.891           23.770 23.120 33.720 30.290 28.847 9.280 19.567 421 696.6
DSCMET_421 2018-09-24 14:15:00 4925 178.200 5.0000 0.0000 0.0000 260.600 5.0000 0.0000 0.0000 260.000 5.0000 0.0000 0.0000 23.290 32.240 5.792           23.470 23.020 32.830 31.520 28.587 9.217 19.371 421 696.6
DSCMET_421 2018-09-24 14:10:00 4924 178.300 5.0000 0.0000 0.0000 260.400 5.0000 0.0000 0.0000 260.000 5.0000 0.0000 0.0000 23.710 31.770 5.945           24.130 23.350 32.600 30.720 29.320 9.315 20.005 421 696.6
DSCMET_421 2018-09-24 14:05:00 4923 178.500 5.0000 0.0000 0.0000 260.000 5.0000 0.0000 0.0000 260.000 5.0000 0.0000 0.0000 23.480 32.330 5.997           23.690 23.310 33.960 31.290 28.917 9.349 19.568 421 696.6
DSCMET_421 2018-09-24 14:00:00 4922 178.600 5.0000 0.0000 0.0000 260.000 5.0000 0.0000 0.0000 260.000 5.0000 0.0000 0.0000 23.140 33.180 6.076           23.470 22.890 34.110 32.050 28.330 9.400 18.930 421 696.6
DSCMET_421 2018-09-24 13:55:00 4921 178.300 5.0000 0.0000 0.0000 260.000 5.0000 0.0000 0.0000 260.000 5.0000 0.0000 0.0000 23.110 32.970 5.958           23.370 22.480 34.970 31.590 28.278 9.323 18.955 421 696.6
DSCMET_421 2018-09-24 13:50:00 4920 178.400 5.0000 0.0000 0.0000 260.000 5.0000 0.0000 0.0000 260.000 5.0000 0.0000 0.0000 22.650 31.340 4.829           23.040 22.400 32.830 29.710 27.502 8.619 18.883 421 696.6
DSCMET_421 2018-09-24 13:45:00 4919 177.700 5.0000 0.0000 0.0000 260.300 5.0000 0.0000 0.0000 260.000 5.0000 0.0000 0.0000 22.650 32.440 5.324           23.080 22.450 36.710 29.910 27.502 8.922 18.580 421 696.6
DSCMET_421 2018-09-24 13:40:00 4918 176.100 5.0000 0.0000 0.0000 261.000 5.0000 0.0000 0.0000 260.000 5.0000 0.0000 0.0000 22.520 33.160 5.526           22.710 22.070 33.730 32.450 27.286 9.048 18.238 421 696.6
DSCMET_421 2018-09-24 13:35:00 4917 176.100 5.0000 0.0000 0.0000 260.800 5.0000 0.0000 0.0000 260.000 5.0000 0.0000 0.0000 22.850 31.610 5.125           23.160 22.470 32.980 30.560 27.837 8.799 19.038 421 696.6
DSCMET_421 2018-09-24 13:30:00 4916 178.100 5.0000 0.0000 0.0000 261.000 5.0000 0.0000 0.0000 260.000 5.0000 0.0000 0.0000 22.260 32.150 4.855           22.870 21.890 33.910 30.180 26.858 8.635 18.223 421 696.6
DSCMET_421 2018-09-24 13:25:00 4915 177.000 5.0000 0.0000 0.0000 261.400 5.0000 0.0000 0.0000 260.000 5.0000 0.0000 0.0000 22.220 32.770 5.094           22.620 21.760 35.600 29.140 26.793 8.780 18.013 421 696.6
DSCMET_421 2018-09-24 13:20:00 4914 178.600 5.0000 0.0000 0.0000 261.400 5.0000 0.0000 0.0000 260.000 5.0000 0.0000 0.0000 21.940 33.000 4.950           22.300 21.370 33.750 31.870 26.340 8.692 17.648 421 696.6
DSCMET_421 2018-09-24 13:15:00 4913 178.300 5.0000 0.0000 0.0000 261.300 5.0000 0.0000 0.0000 259.900 5.0000 0.0000 0.0000 21.520 32.840 4.514           21.820 21.260 34.080 30.700 25.673 8.431 17.242 421 696.6
DSCMET_421 2018-09-24 13:10:00 4912 178.000 5.0000 0.0000 0.0000 261.400 5.0000 0.0000 0.0000 259.900 5.0000 0.0000 0.0000 21.430 32.820 4.426           21.790 21.160 33.750 31.670 25.532 8.379 17.152 421 696.6
DSCMET_421 2018-09-24 13:05:00 4911 177.800 5.0000 0.0000 0.0000 261.400 5.0000 0.0000 0.0000 259.800 5.0000 0.0000 0.0000 21.120 32.720 4.112           21.280 20.890 33.350 31.540 25.051 8.197 16.854 421 696.6
DSCMET_421 2018-09-24 13:00:00 4910 178.500 5.0000 0.0000 0.0000 261.400 5.0000 0.0000 0.0000 259.800 5.0000 0.0000 0.0000 21.010 32.560 3.947           21.310 20.730 33.450 31.640 24.882 8.102 16.781 421 696.6
DSCMET_421 2018-09-24 12:55:00 4909 177.600 5.0000 0.0000 0.0000 261.500 5.0000 0.0000 0.0000 259.800 5.0000 0.0000 0.0000 20.790 32.930 3.915           21.210 20.480 33.960 31.230 24.548 8.084 16.465 421 696.6
DSCMET_421 2018-09-24 12:50:00 4908 177.400 5.0000 0.0000 0.0000 261.700 5.0000 0.0000 0.0000 260.000 5.0000 0.0000 0.0000 21.250 33.680 4.638           21.870 20.680 36.100 31.610 25.252 8.505 16.747 421 696.6
DSCMET_421 2018-09-24 12:45:00 4907 176.600 5.0000 0.0000 0.0000 261.600 5.0000 0.0000 0.0000 259.800 5.0000 0.0000 0.0000 20.220 35.390 4.440           20.830 20.000 36.240 34.030 23.701 8.388 15.313 421 696.6
DSCMET_421 2018-09-24 12:40:00 4906 178.200 5.0000 0.0000 0.0000 261.600 5.0000 0.0000 0.0000 259.800 5.0000 0.0000 0.0000 20.660 34.170 4.327           21.050 20.170 35.080 33.070 24.353 8.321 16.031 421 696.6
DSCMET_421 2018-09-24 12:35:00 4905 180.000 5.0000 0.0000 0.0000 261.500 5.0000 0.0000 0.0000 259.700 5.0000 0.0000 0.0000 20.490 33.750 4.002           20.860 20.320 35.170 32.690 24.099 8.133 15.965 421 696.6
DSCMET_421 2018-09-24 12:30:00 4904 179.300 5.0000 0.0000 0.0000 261.500 5.0000 0.0000 0.0000 259.800 5.0000 0.0000 0.0000 20.220 34.750 4.180           20.850 19.620 36.550 32.260 23.701 8.236 15.465 421 696.6
DSCMET_421 2018-09-24 12:25:00 4903 178.400 5.0000 0.0000 0.0000 261.400 5.0000 0.0000 0.0000 259.400 5.0000 0.0000 0.0000 19.750 34.920 3.836           20.080 19.550 35.610 34.400 23.021 8.039 14.982 421 696.6
DSCMET_421 2018-09-24 12:20:00 4902 178.400 5.0000 0.0000 0.0000 261.500 5.0000 0.0000 0.0000 259.500 5.0000 0.0000 0.0000 19.870 35.230 4.067           20.220 19.490 36.490 32.990 23.193 8.171 15.022 421 696.6
DSCMET_421 2018-09-24 12:15:00 4901 178.600 5.0000 0.0000 0.0000 261.800 5.0000 0.0000 0.0000 259.600 5.0000 0.0000 0.0000 19.610 35.360 3.891           20.100 19.240 36.570 33.980 22.822 8.070 14.752 421 696.6
DSCMET_421 2018-09-24 12:10:00 4900 178.300 5.0000 0.0000 0.0000 261.900 5.0000 0.0000 0.0000 260.000 5.0000 0.0000 0.0000 19.710 36.230 4.324           19.990 19.390 37.200 34.800 22.964 8.320 14.644 421 696.6
DSCMET_421 2018-09-24 12:05:00 4899 176.600 5.0000 0.0000 0.0000 262.000 5.0000 0.0000 0.0000 260.000 5.0000 0.0000 0.0000 19.660 35.760 4.094           20.210 19.290 36.920 34.650 22.893 8.186 14.706 421 696.6
DSCMET_421 2018-09-24 12:00:00 4898 176.400 5.0000 0.0000 0.0000 262.100 5.0000 0.0000 0.0000 260.100 5.0000 0.0000 0.0000 19.900 35.490 4.198           20.260 19.310 36.900 33.260 23.236 8.246 14.989 421 696.6
DSCMET_421 2018-09-24 11:55:00 4897 175.900 5.0000 0.0000 0.0000 262.200 5.0000 0.0000 0.0000 259.600 5.0000 0.0000 0.0000 19.300 37.320 4.384           19.790 18.730 40.020 35.010 22.386 8.355 14.032 421 696.6
DSCMET_421 2018-09-24 11:50:00 4896 175.600 5.0000 0.0000 0.0000 262.200 5.0000 0.0000 0.0000 259.300 5.0000 0.0000 0.0000 19.070 37.490 4.244           19.610 18.670 39.940 35.610 22.068 8.273 13.795 421 696.6
DSCMET_421 2018-09-24 11:45:00 4895 176.100 5.0000 0.0000 0.0000 262.200 5.0000 0.0000 0.0000 259.200 5.0000 0.0000 0.0000 19.060 37.850 4.372           19.330 18.750 42.450 34.190 22.054 8.347 13.707 421 696.6
DSCMET_421 2018-09-24 11:40:00 4894 176.300 5.0000 0.0000 0.0000 262.400 5.0000 0.0000 0.0000 259.400 5.0000 0.0000 0.0000 18.600 39.280 4.491           18.980 18.160 40.160 38.450 21.429 8.417 13.012 421 696.6
DSCMET_421 2018-09-24 11:35:00 4893 176.200 5.0000 0.0000 0.0000 262.400 5.0000 0.0000 0.0000 259.400 5.0000 0.0000 0.0000 18.130 40.440 4.486           18.670 17.580 42.600 37.210 20.807 8.414 12.393 421 696.6
DSCMET_421 2018-09-24 11:30:00 4892 175.800 5.0000 0.0000 0.0000 262.600 5.0000 0.0000 0.0000 259.300 5.0000 0.0000 0.0000 17.700 41.140 4.345           18.120 17.480 42.370 39.760 20.252 8.332 11.920 421 696.6
DSCMET_421 2018-09-24 11:25:00 4891 174.700 5.0000 0.0000 0.0000 262.600 5.0000 0.0000 0.0000 259.300 5.0000 0.0000 0.0000 17.320 42.770 4.557           17.640 17.000 43.530 41.900 19.772 8.456 11.315 421 696.6
DSCMET_421 2018-09-24 11:20:00 4890 174.300 5.0000 0.0000 0.0000 262.700 5.0000 0.0000 0.0000 259.600 5.0000 0.0000 0.0000 17.090 42.900 4.392           17.350 16.900 43.600 42.040 19.486 8.360 11.127 421 696.6
DSCMET_421 2018-09-24 11:15:00 4889 174.500 5.0000 0.0000 0.0000 262.800 5.0000 0.0000 0.0000 259.900 5.0000 0.0000 0.0000 17.080 42.840 4.363           17.430 16.650 43.930 41.470 19.474 8.343 11.131 421 696.6
DSCMET_421 2018-09-24 11:10:00 4888 174.400 5.0000 0.0000 0.0000 262.900 5.0000 0.0000 0.0000 259.900 5.0000 0.0000 0.0000 17.320 44.290 5.056           17.780 16.890 48.050 41.990 19.772 8.757 11.015 421 696.6
DSCMET_421 2018-09-24 11:05:00 4887 173.600 5.0000 0.0000 0.0000 262.800 5.0000 0.0000 0.0000 259.400 5.0000 0.0000 0.0000 16.620 44.580 4.515           16.950 16.140 45.290 43.620 18.914 8.432 10.482 421 696.6
DSCMET_421 2018-09-24 11:00:00 4886 172.700 5.0000 0.0000 0.0000 262.800 5.0000 0.0000 0.0000 259.900 5.0000 0.0000 0.0000 16.760 45.280 4.865           17.040 16.440 46.950 43.350 19.083 8.641 10.442 421 696.6
DSCMET_421 2018-09-24 10:55:00 4885 171.100 5.0000 0.0000 0.0000 263.000 5.0000 0.0000 0.0000 259.800 5.0000 0.0000 0.0000 16.120 46.270 4.592           16.490 15.790 48.530 44.780 18.321 8.477 9.844 421 696.6
DSCMET_421 2018-09-24 10:50:00 4884 169.700 5.0000 0.0000 0.0000 263.100 5.0000 0.0000 0.0000 260.100 5.0000 0.0000 0.0000 15.910 47.790 4.862           16.390 15.460 50.820 46.240 18.077 8.639 9.438 421 696.6
DSCMET_421 2018-09-24 10:45:00 4883 167.500 5.0000 0.0000 0.0000 263.100 5.0000 0.0000 0.0000 260.000 5.0000 0.0000 0.0000 15.560 49.000 4.899           15.910 15.250 52.830 46.790 17.676 8.661 9.015 421 696.6
DSCMET_421 2018-09-24 10:40:00 4882 166.400 5.0000 0.0000 0.0000 263.400 5.0000 0.0000 0.0000 260.100 5.0000 0.0000 0.0000 15.440 48.890 4.757           15.710 15.200 50.270 46.970 17.541 8.576 8.965 421 696.6
DSCMET_421 2018-09-24 10:35:00 4881 166.400 5.0000 0.0000 0.0000 263.700 5.0000 0.0000 0.0000 260.200 5.0000 0.0000 0.0000 15.730 48.580 4.932           16.000 15.370 50.660 46.710 17.870 8.681 9.189 421 696.6
DSCMET_421 2018-09-24 10:30:00 4880 168.200 5.0000 0.0000 0.0000 263.800 5.0000 0.0000 0.0000 260.400 5.0000 0.0000 0.0000 15.840 49.400 5.273           16.130 15.570 54.220 46.190 17.996 8.890 9.106 421 696.6
DSCMET_421 2018-09-24 10:25:00 4879 168.600 5.0000 0.0000 0.0000 263.800 5.0000 0.0000 0.0000 260.600 5.0000 0.0000 0.0000 15.800 51.750 5.905           16.080 15.420 53.790 49.130 17.950 9.289 8.661 421 696.6
DSCMET_421 2018-09-24 10:20:00 4878 168.700 5.0000 0.0000 0.0000 263.900 5.0000 0.0000 0.0000 260.500 5.0000 0.0000 0.0000 15.410 52.860 5.851           15.920 14.940 55.170 50.660 17.507 9.254 8.253 421 696.6
DSCMET_421 2018-09-24 10:15:00 4877 180.100 5.0000 0.0000 0.0000 264.100 5.0000 0.0000 0.0000 260.900 5.0000 0.0000 0.0000 15.030 54.120 5.838           15.240 14.640 55.660 52.040 17.085 9.246 7.839 421 696.6
DSCMET_421 2018-09-24 10:10:00 4876 180.200 5.0000 0.0000 0.0000 264.200 5.0000 0.0000 0.0000 260.800 5.0000 0.0000 0.0000 14.590 55.020 5.667           15.040 14.020 56.800 53.040 16.607 9.137 7.470 421 696.6
DSCMET_421 2018-09-24 10:05:00 4875 180.000 5.0000 0.0000 0.0000 264.300 5.0000 0.0000 0.0000 260.600 5.0000 0.0000 0.0000 14.250 55.390 5.447           14.470 14.080 57.140 52.710 16.246 8.999 7.247 421 696.6
DSCMET_421 2018-09-24 10:00:00 4874 180.400 5.0000 0.0000 0.0000 264.400 5.0000 0.0000 0.0000 261.000 5.0000 0.0000 0.0000 14.250 56.340 5.692           14.400 13.990 58.160 54.320 16.246 9.153 7.093 421 696.6
DSCMET_421 2018-09-24 09:55:00 4873 180.500 5.0000 0.0000 0.0000 264.600 5.0000 0.0000 0.0000 261.100 5.0000 0.0000 0.0000 14.120 57.280 5.809           14.390 13.930 58.690 53.760 16.110 9.228 6.882 421 696.6
DSCMET_421 2018-09-24 09:50:00 4872 180.300 5.0000 0.0000 0.0000 264.600 5.0000 0.0000 0.0000 261.100 5.0000 0.0000 0.0000 13.960 59.830 6.288           14.110 13.620 61.630 57.420 15.943 9.539 6.404 421 696.6
DSCMET_421 2018-09-24 09:45:00 4871 180.300 5.0000 0.0000 0.0000 264.600 5.0000 0.0000 0.0000 261.300 5.0000 0.0000 0.0000 13.100 62.050 6.005           13.630 12.790 64.010 59.100 15.075 9.354 5.721 421 696.6
DSCMET_421 2018-09-24 09:40:00 4870 180.300 5.0000 0.0000 0.0000 264.600 5.0000 0.0000 0.0000 261.600 5.0000 0.0000 0.0000 12.730 62.210 5.693           12.880 12.560 63.040 60.860 14.714 9.154 5.560 421 696.6
DSCMET_421 2018-09-24 09:35:00 4869 180.300 5.0000 0.0000 0.0000 264.700 5.0000 0.0000 0.0000 261.800 5.0000 0.0000 0.0000 12.750 62.550 5.790           13.130 12.200 64.120 59.930 14.733 9.216 5.518 421 696.6
DSCMET_421 2018-09-24 09:30:00 4868 180.000 5.0000 0.0000 0.0000 264.700 5.0000 0.0000 0.0000 261.800 5.0000 0.0000 0.0000 12.160 62.630 5.251           12.360 12.010 63.770 61.190 14.173 8.877 5.297 421 696.6
DSCMET_421 2018-09-24 09:25:00 4867 180.200 5.0000 0.0000 0.0000 264.700 5.0000 0.0000 0.0000 262.600 5.0000 0.0000 0.0000 12.140 64.180 5.584           12.530 11.580 65.870 60.930 14.154 9.084 5.070 421 696.6
DSCMET_421 2018-09-24 09:20:00 4866 180.100 5.0000 0.0000 0.0000 264.700 5.0000 0.0000 0.0000 263.100 5.0000 0.0000 0.0000 11.710 66.170 5.615           12.000 11.350 68.980 64.020 13.759 9.104 4.655 421 696.6
DSCMET_421 2018-09-24 09:15:00 4865 180.100 5.0000 0.0000 0.0000 264.800 5.0000 0.0000 0.0000 264.200 5.0000 0.0000 0.0000 11.410 69.000 5.932           11.890 10.990 71.140 67.250 13.488 9.307 4.181 421 696.6
DSCMET_421 2018-09-24 09:10:00 4864 180.000 5.0000 0.0000 0.0000 264.800 5.0000 0.0000 0.0000 266.300 5.0000 0.0000 0.0000 10.450 73.300 5.883           11.290 9.720 76.430 68.900 12.654 9.275 3.379 421 696.6
DSCMET_421 2018-09-24 09:05:00 4863 180.000 5.0000 0.0000 0.0000 264.800 5.0000 0.0000 0.0000 268.200 5.0000 0.0000 0.0000 9.790 75.240 5.623           10.150 9.520 76.680 73.720 12.107 9.109 2.998 421 696.6
DSCMET_421 2018-09-24 09:00:00 4862 180.100 5.0000 0.0000 0.0000 265.000 5.0000 0.0000 0.0000 273.800 2.7500 2.2500 0.0000 9.740 75.370 5.600           10.250 9.140 77.510 72.460 12.066 9.094 2.972 421 696.6
DSCMET_421 2018-09-24 08:55:00 4861 179.900 5.0000 0.0000 0.0000 265.100 5.0000 0.0000 0.0000 286.100 0.0000 1.7500 3.2500 8.750 79.600 5.425           9.160 8.490 82.900 75.840 11.287 8.985 2.303 421 696.6
DSCMET_421 2018-09-24 08:50:00 4860 179.900 5.0000 0.0000 0.0000 265.100 5.0000 0.0000 0.0000 300.200 0.0000 0.0000 5.0000 8.270 83.100 5.576           8.540 7.996 84.100 82.100 10.926 9.079 1.846 421 696.6
DSCMET_421 2018-09-24 08:45:00 4859 179.700 5.0000 0.0000 0.0000 265.200 5.0000 0.0000 0.0000 313.400 0.0000 0.0000 5.0000 7.966 83.200 5.296           8.230 7.650 84.900 81.600 10.702 8.904 1.798 421 696.6
DSCMET_421 2018-09-24 08:40:00 4858 179.800 5.0000 0.0000 0.0000 265.200 5.0000 0.0000 0.0000 324.500 0.0000 0.0000 5.0000 7.701 83.600 5.105           7.866 7.518 84.400 82.600 10.511 8.787 1.724 421 696.6
DSCMET_421 2018-09-24 08:35:00 4857 179.700 5.0000 0.0000 0.0000 265.200 5.0000 0.0000 0.0000 336.600 0.0000 0.0000 5.0000 7.425 84.600 5.005           7.668 7.120 86.300 82.900 10.314 8.726 1.588 421 696.6
DSCMET_421 2018-09-24 08:30:00 4856 179.500 5.0000 0.0000 0.0000 265.200 5.0000 0.0000 0.0000 346.100 0.0000 0.0000 5.0000 7.111 85.700 4.882           7.286 6.939 86.100 85.200 10.095 8.651 1.444 421 696.6
DSCMET_421 2018-09-24 08:25:00 4855 179.500 5.0000 0.0000 0.0000 265.200 5.0000 0.0000 0.0000 354.300 0.0000 0.0000 5.0000 6.863 86.400 4.755           7.039 6.624 86.600 86.000 9.924 8.574 1.350 421 696.6
DSCMET_421 2018-09-24 08:20:00 4854 179.500 5.0000 0.0000 0.0000 265.200 5.0000 0.0000 0.0000 359.100 0.0000 0.0000 5.0000 6.418 88.700 4.692           6.673 6.126 90.000 85.800 9.625 8.537 1.088 421 696.6
DSCMET_421 2018-09-24 08:15:00 4853 179.600 5.0000 0.0000 0.0000 265.200 5.0000 0.0000 0.0000 362.600 0.0000 0.0000 5.0000 6.241 89.200 4.598           6.392 6.059 89.700 88.600 9.508 8.481 1.027 421 696.6
DSCMET_421 2018-09-24 08:10:00 4852 179.500 5.0000 0.0000 0.0000 265.200 5.0000 0.0000 0.0000 365.800 0.0000 0.0000 5.0000 5.890 89.900 4.363           6.093 5.363 90.700 89.100 9.280 8.342 0.937 421 696.6
DSCMET_421 2018-09-24 08:05:00 4851 179.200 5.0000 0.0000 0.0000 265.200 5.0000 0.0000 0.0000 368.900 0.0000 0.0000 5.0000 5.586 90.500 4.157           5.729 5.297 91.000 89.800 9.086 8.223 0.863 421 696.6
DSCMET_421 2018-09-24 08:00:00 4850 179.100 5.0000 0.0000 0.0000 265.200 5.0000 0.0000 0.0000 371.900 0.0000 0.0000 5.0000 5.273 91.900 4.066           5.464 5.082 92.300 91.300 8.890 8.170 0.720 421 696.6
DSCMET_421 2018-09-24 07:55:00 4849 178.700 5.0000 0.0000 0.0000 265.300 5.0000 0.0000 0.0000 374.500 0.0000 0.0000 5.0000 5.072 92.100 3.898           5.215 4.849 92.500 91.800 8.767 8.074 0.693 421 696.6
DSCMET_421 2018-09-24 07:50:00 4848 178.800 5.0000 0.0000 0.0000 265.500 5.0000 0.0000 0.0000 377.200 0.0000 0.0000 5.0000 4.861 93.100 3.842           4.982 4.617 93.900 92.200 8.638 8.042 0.596 421 696.6
DSCMET_421 2018-09-24 07:45:00 4847 179.100 5.0000 0.0000 0.0000 265.700 5.0000 0.0000 0.0000 379.600 0.0000 0.0000 5.0000 4.615 94.800 3.855           4.800 4.385 95.700 94.000 8.491 8.049 0.442 421 696.6
DSCMET_421 2018-09-24 07:40:00 4846 179.500 5.0000 0.0000 0.0000 266.600 5.0000 0.0000 0.0000 382.900 0.0000 0.0000 5.0000 4.294 96.300 3.758           4.435 3.986 97.800 95.300 8.302 7.995 0.307 421 696.6
DSCMET_421 2018-09-24 07:35:00 4845 180.100 5.0000 0.0000 0.0000 267.100 5.0000 0.0000 0.0000 385.500 0.0000 0.0000 5.0000 3.838 98.800 3.667           4.269 3.505 99.100 98.100 8.040 7.943 0.096 421 696.6
DSCMET_421 2018-09-24 07:30:00 4844 180.100 5.0000 0.0000 0.0000 267.500 5.0000 0.0000 0.0000 385.900 0.0000 0.0000 5.0000 3.306 99.500 3.235           3.572 3.056 99.600 99.200 7.743 7.705 0.039 421 696.6
DSCMET_421 2018-09-24 07:25:00 4843 180.100 5.0000 0.0000 0.0000 267.800 5.0000 0.0000 0.0000 385.200 0.0000 0.0000 5.0000 3.045 99.200 2.932           3.122 2.956 99.400 99.000 7.602 7.541 0.061 421 696.6
DSCMET_421 2018-09-24 07:20:00 4842 180.200 5.0000 0.0000 0.0000 267.900 5.0000 0.0000 0.0000 384.200 0.0000 0.0000 5.0000 3.197 99.100 3.069           3.371 3.039 99.500 98.800 7.684 7.615 0.069 421 696.6
DSCMET_421 2018-09-24 07:15:00 4841 180.300 5.0000 0.0000 0.0000 268.200 5.0000 0.0000 0.0000 383.100 0.0000 0.0000 5.0000 3.112 99.600 3.055           3.288 2.922 99.800 99.500 7.638 7.607 0.031 421 696.6
DSCMET_421 2018-09-24 07:10:00 4840 180.100 5.0000 0.0000 0.0000 268.300 5.0000 0.0000 0.0000 381.900 0.0000 0.0000 5.0000 2.963 99.300 2.864           3.122 2.840 99.500 99.100 7.557 7.505 0.053 421 696.6
DSCMET_421 2018-09-24 07:05:00 4839 180.100 5.0000 0.0000 0.0000 268.700 5.0000 0.0000 0.0000 380.500 0.0000 0.0000 5.0000 2.998 99.500 2.927           3.089 2.873 99.600 99.400 7.576 7.538 0.038 421 696.6
DSCMET_421 2018-09-24 07:00:00 4838 180.100 5.0000 0.0000 0.0000 269.100 5.0000 0.0000 0.0000 378.800 0.0000 0.0000 5.0000 2.996 99.500 2.925           3.139 2.889 99.700 99.200 7.575 7.537 0.038 421 696.6
DSCMET_421 2018-09-24 06:55:00 4837 180.200 5.0000 0.0000 0.0000 269.500 5.0000 0.0000 0.0000 377.200 0.0000 0.0000 5.0000 2.911 99.300 2.812           3.139 2.723 99.700 99.100 7.530 7.477 0.053 421 696.6
DSCMET_421 2018-09-24 06:50:00 4836 180.600 5.0000 0.0000 0.0000 269.700 5.0000 0.0000 0.0000 375.600 0.0000 0.0000 5.0000 3.053 99.000 2.911           3.155 2.689 99.200 98.800 7.606 7.530 0.076 421 696.6
DSCMET_421 2018-09-24 06:45:00 4835 180.700 5.0000 0.0000 0.0000 270.100 5.0000 0.0000 0.0000 374.100 0.0000 0.0000 5.0000 3.149 99.200 3.036           3.321 2.889 99.400 99.000 7.658 7.597 0.061 421 696.6
DSCMET_421 2018-09-24 06:40:00 4834 180.700 5.0000 0.0000 0.0000 270.100 5.0000 0.0000 0.0000 372.400 0.0000 0.0000 5.0000 3.225 99.500 3.154           3.337 3.121 100.000 99.000 7.699 7.661 0.038 421 696.6
DSCMET_421 2018-09-24 06:35:00 4833 180.900 5.0000 0.0000 0.0000 269.900 5.0000 0.0000 0.0000 370.600 0.0000 0.0000 5.0000 3.091 100.000 3.091           3.271 2.739 100.000 99.800 7.626 7.626 -0.000 421 696.6
DSCMET_421 2018-09-24 06:30:00 4832 180.900 5.0000 0.0000 0.0000 269.900 5.0000 0.0000 0.0000 368.700 0.0000 0.0000 5.0000 2.981 100.000 2.981           3.054 2.838 100.000 100.000 7.567 7.567 0.000 421 696.6
DSCMET_421 2018-09-24 06:25:00 4831 181.000 5.0000 0.0000 0.0000 269.900 5.0000 0.0000 0.0000 366.900 0.0000 0.0000 5.0000 2.843 100.000 2.843           2.921 2.655 100.000 99.800 7.493 7.493 0.000 421 696.6
DSCMET_421 2018-09-24 06:20:00 4830 180.900 5.0000 0.0000 0.0000 269.800 5.0000 0.0000 0.0000 364.600 0.0000 0.0000 5.0000 2.832 99.800 2.804           2.938 2.672 100.000 99.300 7.487 7.472 0.015 421 696.6
DSCMET_421 2018-09-24 06:15:00 4829 180.800 5.0000 0.0000 0.0000 269.500 5.0000 0.0000 0.0000 362.500 0.0000 0.0000 5.0000 2.979 99.400 2.894           3.154 2.789 99.700 99.100 7.566 7.521 0.045 421 696.6
DSCMET_421 2018-09-24 06:10:00 4828 180.700 5.0000 0.0000 0.0000 269.500 5.0000 0.0000 0.0000 360.200 0.0000 0.0000 5.0000 3.086 99.500 3.015           3.187 2.988 99.600 99.400 7.624 7.586 0.038 421 696.6
DSCMET_421 2018-09-24 06:05:00 4827 180.900 5.0000 0.0000 0.0000 269.300 5.0000 0.0000 0.0000 357.700 0.0000 0.0000 5.0000 3.082 99.300 2.983           3.270 2.805 99.500 99.000 7.622 7.568 0.053 421 696.6
DSCMET_421 2018-09-24 06:00:00 4826 180.800 5.0000 0.0000 0.0000 269.500 5.0000 0.0000 0.0000 355.100 0.0000 0.0000 5.0000 3.145 99.500 3.074           3.303 2.971 99.700 99.300 7.656 7.617 0.038 421 696.6
DSCMET_421 2018-09-24 05:55:00 4825 180.500 5.0000 0.0000 0.0000 269.400 5.0000 0.0000 0.0000 352.300 0.0000 0.0000 5.0000 3.104 99.300 3.005           3.237 2.971 99.500 99.100 7.633 7.580 0.053 421 696.6
DSCMET_421 2018-09-24 05:50:00 4824 180.400 5.0000 0.0000 0.0000 269.100 5.0000 0.0000 0.0000 349.900 0.0000 0.0000 5.0000 3.197 99.400 3.112           3.287 3.137 99.500 99.100 7.684 7.638 0.046 421 696.6
DSCMET_421 2018-09-24 05:45:00 4823 179.900 5.0000 0.0000 0.0000 268.900 5.0000 0.0000 0.0000 347.200 0.0000 0.0000 5.0000 3.186 99.300 3.087           3.320 3.037 99.400 99.100 7.678 7.624 0.054 421 696.6
DSCMET_421 2018-09-24 05:40:00 4822 180.000 5.0000 0.0000 0.0000 268.500 5.0000 0.0000 0.0000 344.300 0.0000 0.0000 5.0000 3.214 99.100 3.086           3.270 2.987 99.300 98.800 7.693 7.624 0.069 421 696.6
DSCMET_421 2018-09-24 05:35:00 4821 180.300 5.0000 0.0000 0.0000 268.200 5.0000 0.0000 0.0000 341.400 0.0000 0.0000 5.0000 3.276 99.000 3.134           3.369 2.987 99.300 98.900 7.727 7.650 0.077 421 696.6
DSCMET_421 2018-09-24 05:30:00 4820 180.100 5.0000 0.0000 0.0000 267.900 5.0000 0.0000 0.0000 338.600 0.0000 0.0000 5.0000 3.395 98.900 3.239           3.502 3.253 99.100 98.700 7.792 7.707 0.086 421 696.6
DSCMET_421 2018-09-24 05:25:00 4819 179.900 5.0000 0.0000 0.0000 267.600 5.0000 0.0000 0.0000 335.800 0.0000 0.0000 5.0000 3.377 98.900 3.221           3.485 3.170 99.000 98.700 7.782 7.697 0.086 421 696.6
DSCMET_421 2018-09-24 05:20:00 4818 179.900 5.0000 0.0000 0.0000 267.500 5.0000 0.0000 0.0000 332.900 0.0000 0.0000 5.0000 3.409 98.900 3.253           3.518 3.169 99.100 98.700 7.800 7.714 0.086 421 696.6
DSCMET_421 2018-09-24 05:15:00 4817 180.000 5.0000 0.0000 0.0000 267.200 5.0000 0.0000 0.0000 330.000 0.0000 0.0000 5.0000 3.416 98.700 3.231           3.518 3.301 98.900 98.600 7.804 7.703 0.101 421 696.6
DSCMET_421 2018-09-24 05:10:00 4816 180.100 5.0000 0.0000 0.0000 267.100 5.0000 0.0000 0.0000 326.800 0.0000 0.0000 5.0000 3.539 98.700 3.354           3.617 3.368 99.000 98.500 7.872 7.770 0.102 421 696.6
DSCMET_421 2018-09-24 05:05:00 4815 180.100 5.0000 0.0000 0.0000 266.900 5.0000 0.0000 0.0000 323.800 0.0000 0.0000 5.0000 3.486 98.800 3.315           3.601 3.285 99.000 98.500 7.843 7.749 0.094 421 696.6
DSCMET_421 2018-09-24 05:00:00 4814 179.800 5.0000 0.0000 0.0000 266.600 5.0000 0.0000 0.0000 320.500 0.0000 0.0000 5.0000 3.448 98.700 3.263           3.584 3.300 99.100 98.100 7.822 7.720 0.102 421 696.6
DSCMET_421 2018-09-24 04:55:00 4813 180.200 5.0000 0.0000 0.0000 266.400 5.0000 0.0000 0.0000 317.600 0.0000 0.0000 5.0000 3.611 98.400 3.383           3.766 3.384 98.600 98.300 7.912 7.786 0.127 421 696.6
DSCMET_421 2018-09-24 04:50:00 4812 180.200 5.0000 0.0000 0.0000 266.200 5.0000 0.0000 0.0000 314.900 0.0000 0.0000 5.0000 3.663 98.200 3.406           3.750 3.550 98.600 97.900 7.941 7.798 0.143 421 696.6
DSCMET_421 2018-09-24 04:45:00 4811 180.100 5.0000 0.0000 0.0000 266.100 5.0000 0.0000 0.0000 312.000 0.0000 0.0000 5.0000 3.747 98.300 3.504           3.849 3.633 98.500 97.900 7.989 7.853 0.136 421 696.6
DSCMET_421 2018-09-24 04:40:00 4810 180.300 5.0000 0.0000 0.0000 265.800 5.0000 0.0000 0.0000 309.200 0.0000 0.0000 5.0000 3.702 98.000 3.416           3.815 3.383 98.500 97.500 7.963 7.804 0.159 421 696.6
DSCMET_421 2018-09-24 04:35:00 4809 180.400 5.0000 0.0000 0.0000 265.800 5.0000 0.0000 0.0000 307.100 0.0000 0.0000 5.0000 3.907 98.100 3.635           4.098 3.633 99.100 97.200 8.079 7.926 0.154 421 696.6
DSCMET_421 2018-09-24 04:30:00 4808 180.300 5.0000 0.0000 0.0000 265.800 5.0000 0.0000 0.0000 304.300 0.0000 0.0000 5.0000 3.662 97.800 3.347           3.865 3.433 99.000 97.100 7.941 7.766 0.175 421 696.6
DSCMET_421 2018-09-24 04:25:00 4807 180.500 5.0000 0.0000 0.0000 265.800 5.0000 0.0000 0.0000 302.400 0.0000 0.0000 5.0000 3.951 97.600 3.606           4.064 3.748 98.100 97.200 8.104 7.910 0.195 421 696.6
DSCMET_421 2018-09-24 04:20:00 4806 180.200 5.0000 0.0000 0.0000 265.800 5.0000 0.0000 0.0000 299.800 0.0000 0.0000 5.0000 3.839 98.700 3.653           3.981 3.532 99.000 98.100 8.041 7.936 0.105 421 696.6
DSCMET_421 2018-09-24 04:15:00 4805 179.900 5.0000 0.0000 0.0000 265.800 5.0000 0.0000 0.0000 297.000 0.0000 0.0000 5.0000 3.596 98.800 3.425           3.699 3.399 99.000 98.600 7.904 7.809 0.095 421 696.6
DSCMET_421 2018-09-24 04:10:00 4804 179.900 5.0000 0.0000 0.0000 265.800 5.0000 0.0000 0.0000 294.700 0.0000 0.0000 5.0000 3.640 98.300 3.397           3.815 3.433 98.700 97.900 7.928 7.794 0.135 421 696.6
DSCMET_421 2018-09-24 04:05:00 4803 179.900 5.0000 0.0000 0.0000 265.500 5.0000 0.0000 0.0000 292.800 0.0000 0.0000 5.0000 3.804 97.700 3.474           3.964 3.532 98.400 97.400 8.021 7.836 0.184 421 696.6
DSCMET_421 2018-09-24 04:00:00 4802 180.000 5.0000 0.0000 0.0000 265.500 5.0000 0.0000 0.0000 290.600 0.0000 0.0000 5.0000 3.941 97.700 3.611           4.014 3.847 98.000 97.500 8.099 7.912 0.186 421 696.6
DSCMET_421 2018-09-24 03:55:00 4801 179.900 5.0000 0.0000 0.0000 265.500 5.0000 0.0000 0.0000 288.700 0.0000 0.0000 5.0000 3.977 97.500 3.618           4.046 3.897 97.600 97.400 8.119 7.916 0.203 421 696.6
DSCMET_421 2018-09-24 03:50:00 4800 180.000 5.0000 0.0000 0.0000 265.300 5.0000 0.0000 0.0000 287.100 0.0000 0.0000 5.0000 4.012 97.600 3.667           4.096 3.930 97.700 97.400 8.139 7.944 0.195 421 696.6
DSCMET_421 2018-09-24 03:45:00 4799 179.800 5.0000 0.0000 0.0000 265.200 5.0000 0.0000 0.0000 285.500 0.0000 0.0000 5.0000 3.985 97.900 3.684           4.096 3.780 98.300 97.400 8.124 7.953 0.171 421 696.6
DSCMET_421 2018-09-24 03:40:00 4798 179.800 5.0000 0.0000 0.0000 265.200 5.0000 0.0000 0.0000 284.900 0.0000 0.0000 5.0000 3.912 97.500 3.553           4.145 3.647 98.300 96.700 8.082 7.880 0.202 421 696.6
DSCMET_421 2018-09-24 03:35:00 4797 179.900 5.0000 0.0000 0.0000 265.200 5.0000 0.0000 0.0000 284.600 0.0000 0.0000 5.0000 4.141 97.700 3.810           4.361 4.011 98.100 97.000 8.213 8.024 0.189 421 696.6
DSCMET_421 2018-09-24 03:30:00 4796 179.600 5.0000 0.0000 0.0000 265.200 5.0000 0.0000 0.0000 283.500 0.0000 4.0000 1.0000 4.019 97.500 3.660           4.111 3.829 97.800 97.200 8.143 7.940 0.204 421 696.6
DSCMET_421 2018-09-24 03:25:00 4795 179.300 5.0000 0.0000 0.0000 265.200 5.0000 0.0000 0.0000 281.900 0.0000 5.0000 0.0000 4.123 97.300 3.734           4.245 4.012 97.700 96.900 8.203 7.981 0.221 421 696.6
DSCMET_421 2018-09-24 03:20:00 4794 179.300 5.0000 0.0000 0.0000 265.200 5.0000 0.0000 0.0000 280.500 0.0000 5.0000 0.0000 4.194 97.000 3.761           4.278 4.012 97.300 96.700 8.244 7.997 0.247 421 696.6
DSCMET_421 2018-09-24 03:15:00 4793 179.100 5.0000 0.0000 0.0000 265.200 5.0000 0.0000 0.0000 279.000 0.0000 5.0000 0.0000 4.284 96.500 3.778           4.477 4.128 96.800 96.200 8.296 8.006 0.290 421 696.6
DSCMET_421 2018-09-24 03:10:00 4792 179.100 5.0000 0.0000 0.0000 265.200 5.0000 0.0000 0.0000 277.700 0.0000 5.0000 0.0000 4.445 95.800 3.835           4.626 4.227 96.300 95.300 8.390 8.038 0.352 421 696.6
DSCMET_421 2018-09-24 03:05:00 4791 179.300 5.0000 0.0000 0.0000 265.200 5.0000 0.0000 0.0000 277.100 0.0000 5.0000 0.0000 4.548 95.600 3.907           4.725 4.377 96.000 95.100 8.451 8.079 0.372 421 696.6
DSCMET_421 2018-09-24 03:00:00 4790 179.500 5.0000 0.0000 0.0000 265.200 5.0000 0.0000 0.0000 276.800 0.0000 5.0000 0.0000 4.618 95.800 4.007           4.709 4.492 96.200 95.500 8.493 8.136 0.357 421 696.6
DSCMET_421 2018-09-24 02:55:00 4789 179.400 5.0000 0.0000 0.0000 265.200 5.0000 0.0000 0.0000 276.400 0.0000 5.0000 0.0000 4.528 96.100 3.962           4.641 4.375 96.400 96.000 8.439 8.110 0.329 421 696.6
DSCMET_421 2018-09-24 02:50:00 4788 179.400 5.0000 0.0000 0.0000 265.200 5.0000 0.0000 0.0000 275.400 0.0000 5.0000 0.0000 4.407 96.900 3.959           4.608 4.109 97.100 96.500 8.368 8.109 0.259 421 696.6
DSCMET_421 2018-09-24 02:45:00 4787 179.400 5.0000 0.0000 0.0000 265.200 5.0000 0.0000 0.0000 274.000 2.2500 2.7500 0.0000 4.386 96.800 3.923           4.524 4.242 97.300 96.500 8.356 8.088 0.267 421 696.6
DSCMET_421 2018-09-24 02:40:00 4786 179.300 5.0000 0.0000 0.0000 265.100 5.0000 0.0000 0.0000 272.700 5.0000 0.0000 0.0000 4.341 96.800 3.878           4.556 4.075 97.400 96.300 8.329 8.063 0.267 421 696.6
DSCMET_421 2018-09-24 02:35:00 4785 179.200 5.0000 0.0000 0.0000 265.000 5.0000 0.0000 0.0000 271.700 5.0000 0.0000 0.0000 4.460 96.700 3.982           4.573 4.357 96.900 96.400 8.399 8.122 0.277 421 696.6
DSCMET_421 2018-09-24 02:30:00 4784 179.100 5.0000 0.0000 0.0000 264.800 5.0000 0.0000 0.0000 270.900 5.0000 0.0000 0.0000 4.572 95.700 3.946           4.755 4.256 96.300 95.400 8.465 8.101 0.364 421 696.6
DSCMET_421 2018-09-24 02:25:00 4783 179.200 5.0000 0.0000 0.0000 264.900 5.0000 0.0000 0.0000 270.700 5.0000 0.0000 0.0000 4.777 95.400 4.105           4.871 4.605 95.600 95.200 8.588 8.193 0.395 421 696.6
DSCMET_421 2018-09-24 02:20:00 4782 179.200 5.0000 0.0000 0.0000 264.900 5.0000 0.0000 0.0000 270.200 5.0000 0.0000 0.0000 4.760 95.800 4.148           4.854 4.472 96.200 95.500 8.578 8.217 0.360 421 696.6
DSCMET_421 2018-09-24 02:15:00 4781 178.800 5.0000 0.0000 0.0000 264.800 5.0000 0.0000 0.0000 269.000 5.0000 0.0000 0.0000 4.676 95.800 4.064           4.788 4.539 96.100 95.600 8.527 8.169 0.358 421 696.6
DSCMET_421 2018-09-24 02:10:00 4780 179.000 5.0000 0.0000 0.0000 264.800 5.0000 0.0000 0.0000 268.300 5.0000 0.0000 0.0000 4.813 95.400 4.141           4.970 4.555 95.600 95.200 8.609 8.213 0.396 421 696.6
DSCMET_421 2018-09-24 02:05:00 4779 178.700 5.0000 0.0000 0.0000 264.800 5.0000 0.0000 0.0000 267.300 5.0000 0.0000 0.0000 4.840 95.600 4.198           4.953 4.688 95.800 95.400 8.626 8.246 0.380 421 696.6
DSCMET_421 2018-09-24 02:00:00 4778 178.700 5.0000 0.0000 0.0000 264.800 5.0000 0.0000 0.0000 266.700 5.0000 0.0000 0.0000 4.869 95.400 4.197           5.003 4.505 95.700 94.900 8.643 8.246 0.398 421 696.6
DSCMET_421 2018-09-24 01:55:00 4777 178.800 5.0000 0.0000 0.0000 264.800 5.0000 0.0000 0.0000 265.800 5.0000 0.0000 0.0000 4.979 94.500 4.171           5.069 4.770 95.100 93.800 8.710 8.231 0.479 421 696.6
DSCMET_421 2018-09-24 01:50:00 4776 178.800 5.0000 0.0000 0.0000 264.800 5.0000 0.0000 0.0000 265.500 5.0000 0.0000 0.0000 5.262 93.200 4.255           5.401 5.069 93.700 92.900 8.883 8.279 0.604 421 696.6
DSCMET_421 2018-09-24 01:45:00 4775 178.800 5.0000 0.0000 0.0000 264.800 5.0000 0.0000 0.0000 265.500 5.0000 0.0000 0.0000 5.381 93.000 4.343           5.483 5.134 94.100 92.600 8.957 8.330 0.627 421 696.6
DSCMET_421 2018-09-24 01:40:00 4774 178.700 5.0000 0.0000 0.0000 264.800 5.0000 0.0000 0.0000 265.800 5.0000 0.0000 0.0000 5.210 94.000 4.325           5.367 4.985 94.200 93.800 8.851 8.320 0.531 421 696.6
DSCMET_421 2018-09-24 01:35:00 4773 178.700 5.0000 0.0000 0.0000 264.800 5.0000 0.0000 0.0000 265.800 5.0000 0.0000 0.0000 5.338 93.100 4.315           5.499 5.118 93.800 92.600 8.931 8.314 0.616 421 696.6
DSCMET_421 2018-09-24 01:30:00 4772 179.000 5.0000 0.0000 0.0000 264.800 5.0000 0.0000 0.0000 266.100 5.0000 0.0000 0.0000 5.391 93.600 4.444           5.532 5.166 93.800 93.300 8.964 8.390 0.574 421 696.6
DSCMET_421 2018-09-24 01:25:00 4771 179.100 5.0000 0.0000 0.0000 264.800 5.0000 0.0000 0.0000 265.800 5.0000 0.0000 0.0000 5.320 93.900 4.419           5.399 5.216 94.100 93.700 8.919 8.375 0.544 421 696.6
DSCMET_421 2018-09-24 01:20:00 4770 178.800 5.0000 0.0000 0.0000 264.800 5.0000 0.0000 0.0000 265.300 5.0000 0.0000 0.0000 5.355 93.500 4.393           5.515 5.150 93.900 92.700 8.941 8.360 0.581 421 696.6
DSCMET_421 2018-09-24 01:15:00 4769 178.600 5.0000 0.0000 0.0000 264.800 5.0000 0.0000 0.0000 265.100 5.0000 0.0000 0.0000 5.554 92.600 4.453           5.698 5.349 92.900 92.300 9.066 8.395 0.671 421 696.6
DSCMET_421 2018-09-24 01:10:00 4768 179.000 5.0000 0.0000 0.0000 264.800 5.0000 0.0000 0.0000 265.100 5.0000 0.0000 0.0000 5.595 92.900 4.539           5.714 5.448 93.300 92.500 9.092 8.446 0.646 421 696.6
DSCMET_421 2018-09-24 01:05:00 4767 178.900 5.0000 0.0000 0.0000 264.800 5.0000 0.0000 0.0000 265.200 5.0000 0.0000 0.0000 5.421 93.400 4.443           5.598 5.199 93.800 92.900 8.982 8.389 0.593 421 696.6
DSCMET_421 2018-09-24 01:00:00 4766 179.200 5.0000 0.0000 0.0000 264.800 5.0000 0.0000 0.0000 265.100 5.0000 0.0000 0.0000 5.572 92.900 4.517           5.697 5.432 93.200 92.700 9.077 8.433 0.644 421 696.6
DSCMET_421 2018-09-24 00:55:00 4765 179.300 5.0000 0.0000 0.0000 264.800 5.0000 0.0000 0.0000 265.100 5.0000 0.0000 0.0000 5.520 93.300 4.526           5.681 5.365 93.600 92.900 9.044 8.438 0.606 421 696.6
DSCMET_421 2018-09-24 00:50:00 4764 179.000 5.0000 0.0000 0.0000 264.700 5.0000 0.0000 0.0000 264.800 5.0000 0.0000 0.0000 5.687 92.400 4.553           5.862 5.498 92.700 92.100 9.150 8.454 0.695 421 696.6
DSCMET_421 2018-09-24 00:45:00 4763 179.100 5.0000 0.0000 0.0000 264.500 5.0000 0.0000 0.0000 264.800 5.0000 0.0000 0.0000 5.788 92.100 4.607           5.879 5.712 92.300 91.800 9.214 8.486 0.728 421 696.6
DSCMET_421 2018-09-24 00:40:00 4762 178.700 5.0000 0.0000 0.0000 264.400 5.0000 0.0000 0.0000 264.800 5.0000 0.0000 0.0000 5.856 91.900 4.643           5.978 5.695 92.200 91.400 9.258 8.508 0.750 421 696.6
DSCMET_421 2018-09-24 00:35:00 4761 178.400 5.0000 0.0000 0.0000 264.400 5.0000 0.0000 0.0000 264.800 5.0000 0.0000 0.0000 5.965 91.600 4.705           6.109 5.811 91.900 91.200 9.328 8.544 0.784 421 696.6
DSCMET_421 2018-09-24 00:30:00 4760 178.400 5.0000 0.0000 0.0000 264.400 5.0000 0.0000 0.0000 264.800 5.0000 0.0000 0.0000 5.952 91.600 4.692           6.043 5.844 92.100 91.300 9.320 8.537 0.783 421 696.6
DSCMET_421 2018-09-24 00:25:00 4759 178.500 5.0000 0.0000 0.0000 264.400 5.0000 0.0000 0.0000 264.800 5.0000 0.0000 0.0000 5.901 92.100 4.719           6.076 5.777 92.500 91.600 9.287 8.553 0.734 421 696.6
DSCMET_421 2018-09-24 00:20:00 4758 178.400 5.0000 0.0000 0.0000 264.400 5.0000 0.0000 0.0000 264.800 5.0000 0.0000 0.0000 5.819 92.800 4.746           5.926 5.644 93.200 92.500 9.234 8.569 0.665 421 696.6
DSCMET_421 2018-09-24 00:15:00 4757 178.300 5.0000 0.0000 0.0000 264.400 5.0000 0.0000 0.0000 264.400 5.0000 0.0000 0.0000 6.005 91.400 4.713           6.308 5.644 92.400 90.500 9.354 8.549 0.804 421 696.6
DSCMET_421 2018-09-24 00:10:00 4756 178.700 5.0000 0.0000 0.0000 264.400 5.0000 0.0000 0.0000 264.400 5.0000 0.0000 0.0000 6.168 91.200 4.843           6.325 5.876 91.400 90.800 9.460 8.627 0.832 421 696.6
DSCMET_421 2018-09-24 00:05:00 4755 178.600 5.0000 0.0000 0.0000 264.400 5.0000 0.0000 0.0000 264.400 5.0000 0.0000 0.0000 6.212 91.000 4.855           6.324 5.942 91.300 90.700 9.489 8.635 0.854 421 696.6
DSCMET_421 2018-09-24 00:00:00 4754 178.600 5.0000 0.0000 0.0000 264.400 5.0000 0.0000 0.0000 264.400 5.0000 0.0000 0.0000 6.289 90.500 4.852           6.439 6.075 90.900 90.000 9.539 8.633 0.906 421 696.6
DSCMET_421 2018-09-23 23:55:00 4753 178.700 5.0000 0.0000 0.0000 264.400 5.0000 0.0000 0.0000 264.400 5.0000 0.0000 0.0000 6.335 90.400 4.882           6.421 6.222 90.600 90.100 9.570 8.651 0.919 421 696.6
DSCMET_421 2018-09-23 23:50:00 4752 178.600 5.0000 0.0000 0.0000 264.400 5.0000 0.0000 0.0000 264.200 5.0000 0.0000 0.0000 6.350 90.400 4.897           6.437 6.172 90.500 90.100 9.580 8.660 0.920 421 696.6
DSCMET_421 2018-09-23 23:45:00 4751 178.700 5.0000 0.0000 0.0000 264.400 5.0000 0.0000 0.0000 264.100 5.0000 0.0000 0.0000 6.384 90.300 4.914           6.487 6.205 90.600 90.100 9.602 8.671 0.931 421 696.6
DSCMET_421 2018-09-23 23:40:00 4750 178.700 5.0000 0.0000 0.0000 264.400 5.0000 0.0000 0.0000 264.100 5.0000 0.0000 0.0000 6.465 90.300 4.994           6.570 6.205 90.600 89.800 9.656 8.719 0.937 421 696.6
DSCMET_421 2018-09-23 23:35:00 4749 178.700 5.0000 0.0000 0.0000 264.400 5.0000 0.0000 0.0000 264.100 5.0000 0.0000 0.0000 6.503 90.500 5.064           6.653 6.271 90.800 90.000 9.681 8.761 0.920 421 696.6
DSCMET_421 2018-09-23 23:30:00 4748 178.700 5.0000 0.0000 0.0000 264.400 5.0000 0.0000 0.0000 264.100 5.0000 0.0000 0.0000 6.562 89.800 5.011           6.668 6.386 90.100 89.500 9.721 8.729 0.992 421 696.6
DSCMET_421 2018-09-23 23:25:00 4747 178.700 5.0000 0.0000 0.0000 264.200 5.0000 0.0000 0.0000 264.000 5.0000 0.0000 0.0000 6.717 89.400 5.100           6.850 6.551 89.900 88.900 9.825 8.784 1.041 421 696.6
DSCMET_421 2018-09-23 23:20:00 4746 178.600 5.0000 0.0000 0.0000 264.100 5.0000 0.0000 0.0000 264.000 5.0000 0.0000 0.0000 6.854 88.700 5.122           6.966 6.717 88.900 88.500 9.918 8.797 1.121 421 696.6
DSCMET_421 2018-09-23 23:15:00 4745 178.700 5.0000 0.0000 0.0000 264.100 5.0000 0.0000 0.0000 263.800 5.0000 0.0000 0.0000 6.952 88.300 5.154           7.115 6.833 88.600 88.000 9.985 8.817 1.168 421 696.6
DSCMET_421 2018-09-23 23:10:00 4744 178.400 5.0000 0.0000 0.0000 264.100 5.0000 0.0000 0.0000 263.900 5.0000 0.0000 0.0000 7.083 88.000 5.234           7.181 6.966 88.400 87.700 10.075 8.866 1.209 421 696.6
DSCMET_421 2018-09-23 23:05:00 4743 178.400 5.0000 0.0000 0.0000 264.100 5.0000 0.0000 0.0000 263.700 5.0000 0.0000 0.0000 7.039 88.100 5.207           7.165 6.949 88.600 87.600 10.045 8.849 1.195 421 696.6
DSCMET_421 2018-09-23 23:00:00 4742 178.400 5.0000 0.0000 0.0000 264.100 5.0000 0.0000 0.0000 263.700 5.0000 0.0000 0.0000 7.229 87.300 5.263           7.463 7.081 87.700 86.800 10.177 8.884 1.292 421 696.6
DSCMET_421 2018-09-23 22:55:00 4741 178.400 5.0000 0.0000 0.0000 264.000 5.0000 0.0000 0.0000 263.700 5.0000 0.0000 0.0000 7.347 86.900 5.313           7.463 7.130 87.300 86.500 10.259 8.915 1.344 421 696.6
DSCMET_421 2018-09-23 22:50:00 4740 178.400 5.0000 0.0000 0.0000 264.000 5.0000 0.0000 0.0000 263.700 5.0000 0.0000 0.0000 7.438 86.100 5.270           7.611 7.245 86.500 85.600 10.323 8.888 1.435 421 696.6
DSCMET_421 2018-09-23 22:45:00 4739 178.300 5.0000 0.0000 0.0000 264.000 5.0000 0.0000 0.0000 263.400 5.0000 0.0000 0.0000 7.612 85.500 5.340           7.727 7.378 85.900 85.200 10.447 8.932 1.515 421 696.6
DSCMET_421 2018-09-23 22:40:00 4738 178.300 5.0000 0.0000 0.0000 264.000 5.0000 0.0000 0.0000 263.400 5.0000 0.0000 0.0000 7.654 85.500 5.382           7.776 7.494 86.000 85.100 10.477 8.958 1.519 421 696.6
DSCMET_421 2018-09-23 22:35:00 4737 178.200 5.0000 0.0000 0.0000 264.000 5.0000 0.0000 0.0000 263.400 5.0000 0.0000 0.0000 7.744 85.000 5.386           7.874 7.493 85.400 84.200 10.541 8.960 1.581 421 696.6
DSCMET_421 2018-09-23 22:30:00 4736 178.200 5.0000 0.0000 0.0000 264.000 5.0000 0.0000 0.0000 263.400 5.0000 0.0000 0.0000 7.914 84.300 5.433           8.010 7.808 84.600 84.000 10.664 8.990 1.674 421 696.6
DSCMET_421 2018-09-23 22:25:00 4735 178.100 5.0000 0.0000 0.0000 263.700 5.0000 0.0000 0.0000 263.400 5.0000 0.0000 0.0000 7.964 83.900 5.414           8.110 7.824 84.400 83.500 10.701 8.978 1.723 421 696.6
DSCMET_421 2018-09-23 22:20:00 4734 178.000 5.0000 0.0000 0.0000 263.700 5.0000 0.0000 0.0000 263.400 5.0000 0.0000 0.0000 7.967 83.900 5.417           8.070 7.873 84.200 83.600 10.703 8.980 1.723 421 696.6
DSCMET_421 2018-09-23 22:15:00 4733 178.000 5.0000 0.0000 0.0000 263.700 5.0000 0.0000 0.0000 263.400 5.0000 0.0000 0.0000 8.060 83.600 5.456           8.190 7.789 83.700 83.300 10.771 9.004 1.766 421 696.6
DSCMET_421 2018-09-23 22:10:00 4732 178.400 5.0000 0.0000 0.0000 263.700 5.0000 0.0000 0.0000 263.300 5.0000 0.0000 0.0000 8.180 83.300 5.522           8.300 8.070 83.600 82.500 10.859 9.046 1.813 421 696.6
DSCMET_421 2018-09-23 22:05:00 4731 178.500 5.0000 0.0000 0.0000 263.700 5.0000 0.0000 0.0000 263.200 5.0000 0.0000 0.0000 8.240 82.900 5.512           8.370 7.987 83.200 82.600 10.904 9.039 1.865 421 696.6
DSCMET_421 2018-09-23 22:00:00 4730 178.500 5.0000 0.0000 0.0000 263.700 5.0000 0.0000 0.0000 263.100 5.0000 0.0000 0.0000 8.260 83.000 5.548           8.370 8.100 83.700 82.500 10.918 9.062 1.856 421 696.6
DSCMET_421 2018-09-23 21:55:00 4729 178.400 5.0000 0.0000 0.0000 263.700 5.0000 0.0000 0.0000 263.000 5.0000 0.0000 0.0000 8.320 83.000 5.607           8.550 8.000 83.600 82.500 10.963 9.099 1.864 421 696.6
DSCMET_421 2018-09-23 21:50:00 4728 178.400 5.0000 0.0000 0.0000 263.700 5.0000 0.0000 0.0000 263.000 5.0000 0.0000 0.0000 8.520 81.900 5.611           8.700 8.230 82.500 81.000 11.113 9.101 2.011 421 696.6
DSCMET_421 2018-09-23 21:45:00 4727 178.300 5.0000 0.0000 0.0000 263.700 5.0000 0.0000 0.0000 263.000 5.0000 0.0000 0.0000 8.540 82.000 5.648           8.680 8.330 82.500 81.500 11.128 9.125 2.003 421 696.6
DSCMET_421 2018-09-23 21:40:00 4726 178.200 5.0000 0.0000 0.0000 263.700 5.0000 0.0000 0.0000 263.000 5.0000 0.0000 0.0000 8.620 81.700 5.673           8.760 8.470 82.400 81.000 11.188 9.141 2.047 421 696.6
DSCMET_421 2018-09-23 21:35:00 4725 178.300 5.0000 0.0000 0.0000 263.600 5.0000 0.0000 0.0000 263.000 5.0000 0.0000 0.0000 8.700 81.700 5.751           8.850 8.480 82.400 80.800 11.249 9.191 2.059 421 696.6
DSCMET_421 2018-09-23 21:30:00 4724 178.200 5.0000 0.0000 0.0000 263.600 5.0000 0.0000 0.0000 262.900 5.0000 0.0000 0.0000 8.980 80.200 5.757           9.090 8.780 81.100 79.160 11.464 9.194 2.270 421 696.6
DSCMET_421 2018-09-23 21:25:00 4723 178.200 5.0000 0.0000 0.0000 263.400 5.0000 0.0000 0.0000 262.800 5.0000 0.0000 0.0000 9.100 79.610 5.767           9.310 8.840 80.500 78.580 11.558 9.201 2.357 421 696.6
DSCMET_421 2018-09-23 21:20:00 4722 178.000 5.0000 0.0000 0.0000 263.400 5.0000 0.0000 0.0000 262.600 5.0000 0.0000 0.0000 9.030 80.000 5.770           9.190 8.860 80.600 78.640 11.503 9.202 2.301 421 696.6
DSCMET_421 2018-09-23 21:15:00 4721 178.000 5.0000 0.0000 0.0000 263.300 5.0000 0.0000 0.0000 262.600 5.0000 0.0000 0.0000 9.310 78.550 5.778           9.470 9.110 79.220 77.930 11.722 9.208 2.514 421 696.6
DSCMET_421 2018-09-23 21:10:00 4720 178.000 5.0000 0.0000 0.0000 263.300 5.0000 0.0000 0.0000 262.600 5.0000 0.0000 0.0000 9.360 78.520 5.821           9.490 9.170 79.020 78.230 11.762 9.236 2.526 421 696.6
DSCMET_421 2018-09-23 21:05:00 4719 178.000 5.0000 0.0000 0.0000 263.300 5.0000 0.0000 0.0000 262.400 5.0000 0.0000 0.0000 9.370 78.340 5.798           9.840 9.020 79.590 75.770 11.770 9.221 2.549 421 696.6
DSCMET_421 2018-09-23 21:00:00 4718 178.300 5.0000 0.0000 0.0000 263.300 5.0000 0.0000 0.0000 262.300 5.0000 0.0000 0.0000 9.880 75.380 5.737           10.330 9.260 78.010 73.380 12.180 9.182 2.999 421 696.6
DSCMET_421 2018-09-23 20:55:00 4717 178.100 5.0000 0.0000 0.0000 263.300 5.0000 0.0000 0.0000 262.300 5.0000 0.0000 0.0000 10.100 74.490 5.778           10.290 9.990 75.140 73.630 12.361 9.208 3.153 421 696.6
DSCMET_421 2018-09-23 20:50:00 4716 178.000 5.0000 0.0000 0.0000 263.300 5.0000 0.0000 0.0000 262.300 5.0000 0.0000 0.0000 10.330 73.290 5.766           10.620 10.050 74.270 71.910 12.553 9.200 3.353 421 696.6
DSCMET_421 2018-09-23 20:45:00 4715 178.000 5.0000 0.0000 0.0000 263.300 5.0000 0.0000 0.0000 262.300 5.0000 0.0000 0.0000 10.280 73.760 5.810           10.520 10.050 74.170 73.210 12.511 9.228 3.283 421 696.6
DSCMET_421 2018-09-23 20:40:00 4714 178.000 5.0000 0.0000 0.0000 263.000 5.0000 0.0000 0.0000 262.300 5.0000 0.0000 0.0000 10.300 73.680 5.813           10.500 10.020 74.320 72.710 12.528 9.230 3.297 421 696.6
DSCMET_421 2018-09-23 20:35:00 4713 178.000 5.0000 0.0000 0.0000 263.000 5.0000 0.0000 0.0000 262.300 5.0000 0.0000 0.0000 10.530 72.770 5.856           10.800 10.320 74.090 71.530 12.722 9.258 3.464 421 696.6
DSCMET_421 2018-09-23 20:30:00 4712 178.000 5.0000 0.0000 0.0000 262.900 5.0000 0.0000 0.0000 262.300 5.0000 0.0000 0.0000 10.620 72.610 5.911           10.780 10.380 73.660 71.960 12.798 9.293 3.505 421 696.6
DSCMET_421 2018-09-23 20:25:00 4711 178.000 5.0000 0.0000 0.0000 262.900 5.0000 0.0000 0.0000 262.300 5.0000 0.0000 0.0000 10.570 72.940 5.928           10.830 10.370 73.660 71.760 12.756 9.304 3.452 421 696.6
DSCMET_421 2018-09-23 20:20:00 4710 178.200 5.0000 0.0000 0.0000 262.900 5.0000 0.0000 0.0000 262.300 5.0000 0.0000 0.0000 10.830 71.690 5.928           11.160 10.560 72.330 70.520 12.979 9.304 3.674 421 696.6
DSCMET_421 2018-09-23 20:15:00 4709 178.300 5.0000 0.0000 0.0000 263.000 5.0000 0.0000 0.0000 262.300 5.0000 0.0000 0.0000 10.780 71.930 5.929           11.190 10.480 72.920 70.100 12.935 9.304 3.631 421 696.6
DSCMET_421 2018-09-23 20:10:00 4708 178.400 5.0000 0.0000 0.0000 262.900 5.0000 0.0000 0.0000 262.200 5.0000 0.0000 0.0000 10.320 74.390 5.971           10.680 10.110 75.260 72.260 12.545 9.332 3.213 421 696.6
DSCMET_421 2018-09-23 20:05:00 4707 178.300 5.0000 0.0000 0.0000 262.900 5.0000 0.0000 0.0000 262.200 5.0000 0.0000 0.0000 10.750 72.360 5.986           11.030 10.480 73.590 71.410 12.910 9.341 3.568 421 696.6
DSCMET_421 2018-09-23 20:00:00 4706 178.500 5.0000 0.0000 0.0000 262.900 5.0000 0.0000 0.0000 261.900 5.0000 0.0000 0.0000 10.700 72.440 5.954           11.120 10.380 74.080 70.460 12.867 9.321 3.546 421 696.6
DSCMET_421 2018-09-23 19:55:00 4705 178.300 5.0000 0.0000 0.0000 262.900 5.0000 0.0000 0.0000 262.000 5.0000 0.0000 0.0000 11.290 69.940 6.013           11.640 11.060 70.880 68.950 13.381 9.359 4.022 421 696.6
DSCMET_421 2018-09-23 19:50:00 4704 178.500 5.0000 0.0000 0.0000 262.900 5.0000 0.0000 0.0000 262.100 5.0000 0.0000 0.0000 11.380 69.860 6.083           11.610 11.260 70.480 69.230 13.461 9.404 4.057 421 696.6
DSCMET_421 2018-09-23 19:45:00 4703 178.500 5.0000 0.0000 0.0000 262.900 5.0000 0.0000 0.0000 262.000 5.0000 0.0000 0.0000 11.320 70.020 6.058           11.560 11.090 70.590 69.280 13.408 9.388 4.020 421 696.6
DSCMET_421 2018-09-23 19:40:00 4702 178.500 5.0000 0.0000 0.0000 262.900 5.0000 0.0000 0.0000 262.000 5.0000 0.0000 0.0000 11.270 70.460 6.101           11.460 11.040 71.010 69.800 13.364 9.416 3.948 421 696.6
DSCMET_421 2018-09-23 19:35:00 4701 178.600 5.0000 0.0000 0.0000 262.900 5.0000 0.0000 0.0000 261.900 5.0000 0.0000 0.0000 11.580 69.070 6.110           11.870 11.320 70.340 68.170 13.641 9.422 4.219 421 696.6
DSCMET_421 2018-09-23 19:30:00 4700 178.300 5.0000 0.0000 0.0000 262.800 5.0000 0.0000 0.0000 261.900 5.0000 0.0000 0.0000 11.600 68.800 6.072           11.820 11.250 70.070 68.120 13.659 9.397 4.262 421 696.6
DSCMET_421 2018-09-23 19:25:00 4699 178.400 5.0000 0.0000 0.0000 262.700 5.0000 0.0000 0.0000 261.900 5.0000 0.0000 0.0000 11.520 69.420 6.125           11.730 11.340 70.020 68.310 13.587 9.432 4.155 421 696.6
DSCMET_421 2018-09-23 19:20:00 4698 178.700 5.0000 0.0000 0.0000 262.900 5.0000 0.0000 0.0000 261.900 5.0000 0.0000 0.0000 11.460 70.270 6.244           11.600 11.320 70.880 68.830 13.533 9.510 4.023 421 696.6
DSCMET_421 2018-09-23 19:15:00 4697 178.600 5.0000 0.0000 0.0000 262.900 5.0000 0.0000 0.0000 261.900 5.0000 0.0000 0.0000 11.650 69.540 6.275           11.800 11.330 70.300 69.110 13.704 9.530 4.174 421 696.6
DSCMET_421 2018-09-23 19:10:00 4696 178.500 5.0000 0.0000 0.0000 262.900 5.0000 0.0000 0.0000 261.900 5.0000 0.0000 0.0000 11.820 68.910 6.306           11.930 11.700 69.160 68.530 13.859 9.550 4.309 421 696.6
DSCMET_421 2018-09-23 19:05:00 4695 178.700 5.0000 0.0000 0.0000 262.600 5.0000 0.0000 0.0000 261.900 5.0000 0.0000 0.0000 11.890 68.720 6.332           12.010 11.700 69.210 68.180 13.923 9.568 4.355 421 696.6
DSCMET_421 2018-09-23 19:00:00 4694 178.600 5.0000 0.0000 0.0000 262.500 5.0000 0.0000 0.0000 261.700 5.0000 0.0000 0.0000 11.900 68.650 6.327           12.110 11.790 68.990 68.010 13.932 9.565 4.368 421 696.6
DSCMET_421 2018-09-23 18:55:00 4693 178.600 5.0000 0.0000 0.0000 262.500 5.0000 0.0000 0.0000 261.600 5.0000 0.0000 0.0000 12.300 66.900 6.335           12.520 11.960 68.360 65.720 14.304 9.570 4.735 421 696.6
DSCMET_421 2018-09-23 18:50:00 4692 178.400 5.0000 0.0000 0.0000 262.500 5.0000 0.0000 0.0000 261.500 5.0000 0.0000 0.0000 12.360 66.630 6.334           12.510 12.120 67.110 66.000 14.361 9.569 4.792 421 696.6
DSCMET_421 2018-09-23 18:45:00 4691 178.600 5.0000 0.0000 0.0000 262.500 5.0000 0.0000 0.0000 261.500 5.0000 0.0000 0.0000 12.660 64.820 6.220           12.790 12.520 65.850 64.490 14.647 9.494 5.153 421 696.6
DSCMET_421 2018-09-23 18:40:00 4690 178.500 5.0000 0.0000 0.0000 262.500 5.0000 0.0000 0.0000 261.500 5.0000 0.0000 0.0000 12.730 64.900 6.304           13.000 12.500 65.500 64.200 14.714 9.549 5.165 421 696.6
DSCMET_421 2018-09-23 18:35:00 4689 178.500 5.0000 0.0000 0.0000 262.300 5.0000 0.0000 0.0000 261.300 5.0000 0.0000 0.0000 12.970 63.960 6.321           13.270 12.780 64.430 61.360 14.947 9.560 5.387 421 696.6
DSCMET_421 2018-09-23 18:30:00 4688 178.200 5.0000 0.0000 0.0000 262.200 5.0000 0.0000 0.0000 261.200 5.0000 0.0000 0.0000 13.260 62.770 6.323           13.630 13.020 63.880 60.500 15.233 9.562 5.671 421 696.6
DSCMET_421 2018-09-23 18:25:00 4687 178.500 5.0000 0.0000 0.0000 262.200 5.0000 0.0000 0.0000 261.200 5.0000 0.0000 0.0000 13.520 60.990 6.152           13.890 13.230 63.150 57.660 15.494 9.449 6.044 421 696.6
DSCMET_421 2018-09-23 18:20:00 4686 178.300 5.0000 0.0000 0.0000 262.200 5.0000 0.0000 0.0000 261.200 5.0000 0.0000 0.0000 13.630 60.790 6.208           13.780 13.510 61.060 60.460 15.605 9.486 6.119 421 696.6
DSCMET_421 2018-09-23 18:15:00 4685 178.100 5.0000 0.0000 0.0000 262.200 5.0000 0.0000 0.0000 261.200 5.0000 0.0000 0.0000 13.840 59.830 6.175           14.460 13.640 60.940 56.940 15.819 9.465 6.355 421 696.6
DSCMET_421 2018-09-23 18:10:00 4684 178.000 5.0000 0.0000 0.0000 262.300 5.0000 0.0000 0.0000 261.200 5.0000 0.0000 0.0000 14.660 54.160 5.505           15.270 13.910 58.420 50.190 16.682 9.035 7.647 421 696.6
DSCMET_421 2018-09-23 18:05:00 4683 178.100 5.0000 0.0000 0.0000 262.100 5.0000 0.0000 0.0000 261.100 5.0000 0.0000 0.0000 13.960 59.250 6.147           14.300 13.660 61.210 57.550 15.943 9.446 6.497 421 696.6
DSCMET_421 2018-09-23 18:00:00 4682 178.200 5.0000 0.0000 0.0000 262.100 5.0000 0.0000 0.0000 261.100 5.0000 0.0000 0.0000 14.200 58.170 6.106           14.300 14.100 59.010 57.550 16.193 9.420 6.774 421 696.6
DSCMET_421 2018-09-23 17:55:00 4681 178.300 5.0000 0.0000 0.0000 262.100 5.0000 0.0000 0.0000 260.900 5.0000 0.0000 0.0000 14.370 57.450 6.085           14.730 13.900 59.210 55.940 16.372 9.406 6.966 421 696.6
DSCMET_421 2018-09-23 17:50:00 4680 178.600 5.0000 0.0000 0.0000 261.800 5.0000 0.0000 0.0000 260.900 5.0000 0.0000 0.0000 14.550 56.280 5.956           14.750 14.420 57.900 55.150 16.564 9.322 7.242 421 696.6
DSCMET_421 2018-09-23 17:45:00 4679 178.800 5.0000 0.0000 0.0000 261.800 5.0000 0.0000 0.0000 260.800 5.0000 0.0000 0.0000 14.730 54.520 5.666           14.950 14.480 55.310 53.730 16.758 9.136 7.621 421 696.6
DSCMET_421 2018-09-23 17:40:00 4678 178.800 5.0000 0.0000 0.0000 261.800 5.0000 0.0000 0.0000 260.600 5.0000 0.0000 0.0000 14.740 55.180 5.848           14.890 14.560 56.170 54.380 16.769 9.253 7.516 421 696.6
DSCMET_421 2018-09-23 17:35:00 4677 178.700 5.0000 0.0000 0.0000 261.800 5.0000 0.0000 0.0000 260.400 5.0000 0.0000 0.0000 15.360 52.310 5.654           15.560 14.940 56.090 50.800 17.451 9.129 8.322 421 696.6
DSCMET_421 2018-09-23 17:30:00 4676 178.900 5.0000 0.0000 0.0000 261.700 5.0000 0.0000 0.0000 260.400 5.0000 0.0000 0.0000 15.530 50.570 5.324           15.770 15.260 51.370 49.500 17.642 8.922 8.721 421 696.6
DSCMET_421 2018-09-23 17:25:00 4675 178.500 5.0000 0.0000 0.0000 261.800 5.0000 0.0000 0.0000 260.400 5.0000 0.0000 0.0000 15.730 49.650 5.244           15.850 15.450 50.030 48.900 17.870 8.872 8.998 421 696.6
DSCMET_421 2018-09-23 17:20:00 4674 178.600 5.0000 0.0000 0.0000 261.800 5.0000 0.0000 0.0000 260.400 5.0000 0.0000 0.0000 16.190 48.090 5.208           16.630 15.980 48.850 47.290 18.403 8.850 9.553 421 696.6
DSCMET_421 2018-09-23 17:15:00 4673 178.600 5.0000 0.0000 0.0000 261.800 5.0000 0.0000 0.0000 260.400 5.0000 0.0000 0.0000 16.660 45.360 4.799           16.830 16.400 45.950 44.990 18.962 8.601 10.361 421 696.6
DSCMET_421 2018-09-23 17:10:00 4672 178.700 5.0000 0.0000 0.0000 261.700 5.0000 0.0000 0.0000 260.400 5.0000 0.0000 0.0000 16.700 45.760 4.961           16.940 16.410 46.990 44.720 19.010 8.699 10.311 421 696.6
DSCMET_421 2018-09-23 17:05:00 4671 178.600 5.0000 0.0000 0.0000 261.700 5.0000 0.0000 0.0000 260.400 5.0000 0.0000 0.0000 16.910 44.830 4.858           17.090 16.650 45.070 44.440 19.265 8.637 10.629 421 696.6
DSCMET_421 2018-09-23 17:00:00 4670 178.600 5.0000 0.0000 0.0000 261.500 5.0000 0.0000 0.0000 260.400 5.0000 0.0000 0.0000 16.940 45.010 4.943           17.060 16.680 46.080 44.290 19.302 8.688 10.614 421 696.6
DSCMET_421 2018-09-23 16:55:00 4669 178.500 5.0000 0.0000 0.0000 261.400 5.0000 0.0000 0.0000 260.200 5.0000 0.0000 0.0000 16.910 46.280 5.314           17.410 16.560 47.390 43.470 19.265 8.916 10.349 421 696.6
DSCMET_421 2018-09-23 16:50:00 4668 178.500 5.0000 0.0000 0.0000 261.400 5.0000 0.0000 0.0000 260.100 5.0000 0.0000 0.0000 17.380 43.590 4.882           17.640 17.240 44.570 42.940 19.847 8.651 11.196 421 696.6
DSCMET_421 2018-09-23 16:45:00 4667 178.500 5.0000 0.0000 0.0000 261.400 5.0000 0.0000 0.0000 260.100 5.0000 0.0000 0.0000 17.660 43.280 5.033           17.900 17.420 44.650 41.750 20.201 8.743 11.458 421 696.6
DSCMET_421 2018-09-23 16:40:00 4666 178.600 5.0000 0.0000 0.0000 261.400 5.0000 0.0000 0.0000 260.100 5.0000 0.0000 0.0000 17.770 41.930 4.679           17.850 17.670 42.790 41.320 20.341 8.529 11.812 421 696.6
DSCMET_421 2018-09-23 16:35:00 4665 178.800 5.0000 0.0000 0.0000 261.400 5.0000 0.0000 0.0000 260.100 5.0000 0.0000 0.0000 17.780 44.160 5.431           17.950 17.600 45.600 42.200 20.354 8.988 11.366 421 696.6
DSCMET_421 2018-09-23 16:30:00 4664 178.400 5.0000 0.0000 0.0000 261.300 5.0000 0.0000 0.0000 260.100 5.0000 0.0000 0.0000 17.900 41.900 4.786           18.070 17.640 42.510 40.700 20.508 8.593 11.915 421 696.6
DSCMET_421 2018-09-23 16:25:00 4663 178.700 5.0000 0.0000 0.0000 261.100 5.0000 0.0000 0.0000 260.100 5.0000 0.0000 0.0000 18.210 40.400 4.543           18.330 18.000 41.030 39.710 20.912 8.448 12.463 421 696.6
DSCMET_421 2018-09-23 16:20:00 4662 178.200 5.0000 0.0000 0.0000 261.100 5.0000 0.0000 0.0000 260.100 5.0000 0.0000 0.0000 18.380 39.490 4.370           18.500 18.190 40.160 39.010 21.136 8.347 12.789 421 696.6
DSCMET_421 2018-09-23 16:15:00 4661 178.500 5.0000 0.0000 0.0000 261.100 5.0000 0.0000 0.0000 260.100 5.0000 0.0000 0.0000 18.550 38.950 4.326           18.720 18.370 39.990 38.450 21.362 8.321 13.042 421 696.6
DSCMET_421 2018-09-23 16:10:00 4660 178.700 5.0000 0.0000 0.0000 261.100 5.0000 0.0000 0.0000 260.100 5.0000 0.0000 0.0000 18.820 38.320 4.334           19.060 18.530 39.460 37.420 21.726 8.325 13.401 421 696.6
DSCMET_421 2018-09-23 16:05:00 4659 178.700 5.0000 0.0000 0.0000 261.100 5.0000 0.0000 0.0000 260.100 5.0000 0.0000 0.0000 18.520 38.670 4.196           18.820 18.270 39.390 38.000 21.322 8.245 13.077 421 696.6
DSCMET_421 2018-09-23 16:00:00 4658 178.700 5.0000 0.0000 0.0000 261.300 5.0000 0.0000 0.0000 260.100 5.0000 0.0000 0.0000 18.560 38.380 4.125           18.970 18.290 39.060 37.450 21.376 8.204 13.172 421 696.6
DSCMET_421 2018-09-23 15:55:00 4657 178.700 5.0000 0.0000 0.0000 261.400 5.0000 0.0000 0.0000 260.100 5.0000 0.0000 0.0000 18.680 37.620 3.947           18.930 18.370 38.430 36.510 21.537 8.102 13.435 421 696.6
DSCMET_421 2018-09-23 15:50:00 4656 178.700 5.0000 0.0000 0.0000 261.400 5.0000 0.0000 0.0000 260.100 5.0000 0.0000 0.0000 18.460 37.940 3.872           18.600 18.320 38.810 37.190 21.242 8.059 13.183 421 696.6
DSCMET_421 2018-09-23 15:45:00 4655 178.700 5.0000 0.0000 0.0000 261.400 5.0000 0.0000 0.0000 260.100 5.0000 0.0000 0.0000 18.800 37.070 3.845           19.080 18.550 37.540 36.560 21.699 8.044 13.655 421 696.6
DSCMET_421 2018-09-23 15:40:00 4654 178.300 5.0000 0.0000 0.0000 261.400 5.0000 0.0000 0.0000 260.100 5.0000 0.0000 0.0000 18.700 37.080 3.760           18.950 18.550 37.830 36.610 21.564 7.996 13.568 421 696.6
DSCMET_421 2018-09-23 15:35:00 4653 178.800 5.0000 0.0000 0.0000 261.400 5.0000 0.0000 0.0000 260.100 5.0000 0.0000 0.0000 18.640 37.280 3.783           18.800 18.520 37.520 36.840 21.483 8.009 13.474 421 696.6
DSCMET_421 2018-09-23 15:30:00 4652 179.000 5.0000 0.0000 0.0000 261.500 5.0000 0.0000 0.0000 260.100 5.0000 0.0000 0.0000 19.010 36.270 3.721           19.860 18.520 37.420 35.210 21.985 7.974 14.011 421 696.6
DSCMET_421 2018-09-23 15:25:00 4651 179.200 5.0000 0.0000 0.0000 261.700 5.0000 0.0000 0.0000 260.100 5.0000 0.0000 0.0000 19.270 36.050 3.865           19.760 18.850 36.940 35.500 22.344 8.055 14.289 421 696.6
DSCMET_421 2018-09-23 15:20:00 4650 179.200 5.0000 0.0000 0.0000 261.700 5.0000 0.0000 0.0000 260.100 5.0000 0.0000 0.0000 19.030 36.750 3.926           19.280 18.680 37.570 36.040 22.013 8.090 13.923 421 696.6
DSCMET_421 2018-09-23 15:15:00 4649 179.000 5.0000 0.0000 0.0000 261.700 5.0000 0.0000 0.0000 260.100 5.0000 0.0000 0.0000 18.860 37.150 3.929           19.160 18.450 38.020 36.490 21.780 8.091 13.689 421 696.6
DSCMET_421 2018-09-23 15:10:00 4648 179.100 5.0000 0.0000 0.0000 261.700 5.0000 0.0000 0.0000 260.100 5.0000 0.0000 0.0000 18.740 37.880 4.099           19.150 18.380 38.480 36.640 21.618 8.189 13.429 421 696.6
DSCMET_421 2018-09-23 15:05:00 4647 179.100 5.0000 0.0000 0.0000 261.700 5.0000 0.0000 0.0000 260.100 5.0000 0.0000 0.0000 18.440 37.930 3.851           18.710 18.220 38.480 37.420 21.216 8.047 13.169 421 696.6
DSCMET_421 2018-09-23 15:00:00 4646 179.200 5.0000 0.0000 0.0000 261.500 5.0000 0.0000 0.0000 260.200 5.0000 0.0000 0.0000 18.580 37.920 3.971           18.850 18.370 38.360 37.250 21.402 8.116 13.287 421 696.6
DSCMET_421 2018-09-23 14:55:00 4645 179.100 5.0000 0.0000 0.0000 261.400 5.0000 0.0000 0.0000 260.100 5.0000 0.0000 0.0000 18.320 38.200 3.845           18.450 18.130 38.840 37.830 21.057 8.044 13.013 421 696.6
DSCMET_421 2018-09-23 14:50:00 4644 178.600 5.0000 0.0000 0.0000 261.500 5.0000 0.0000 0.0000 260.100 5.0000 0.0000 0.0000 18.240 38.440 3.862           18.580 18.000 38.960 37.650 20.951 8.054 12.898 421 696.6
DSCMET_421 2018-09-23 14:45:00 4643 178.700 5.0000 0.0000 0.0000 261.400 5.0000 0.0000 0.0000 260.100 5.0000 0.0000 0.0000 18.410 38.130 3.899           18.580 18.070 38.430 37.800 21.176 8.074 13.101 421 696.6
DSCMET_421 2018-09-23 14:40:00 4642 178.900 5.0000 0.0000 0.0000 261.700 5.0000 0.0000 0.0000 260.200 5.0000 0.0000 0.0000 18.760 38.140 4.214           19.230 18.350 41.180 37.220 21.645 8.255 13.389 421 696.6
DSCMET_421 2018-09-23 14:35:00 4641 178.900 5.0000 0.0000 0.0000 261.700 5.0000 0.0000 0.0000 260.200 5.0000 0.0000 0.0000 18.870 37.630 4.120           19.230 18.470 38.030 36.840 21.794 8.201 13.593 421 696.6
DSCMET_421 2018-09-23 14:30:00 4640 178.600 5.0000 0.0000 0.0000 261.700 5.0000 0.0000 0.0000 260.400 5.0000 0.0000 0.0000 19.290 36.680 4.129           19.480 19.030 37.580 36.130 22.372 8.206 14.166 421 696.6
DSCMET_421 2018-09-23 14:25:00 4639 178.900 5.0000 0.0000 0.0000 261.700 5.0000 0.0000 0.0000 260.400 5.0000 0.0000 0.0000 19.140 37.360 4.257           19.630 18.470 38.990 35.490 22.164 8.281 13.884 421 696.6
DSCMET_421 2018-09-23 14:20:00 4638 178.800 5.0000 0.0000 0.0000 261.400 5.0000 0.0000 0.0000 260.200 5.0000 0.0000 0.0000 18.390 38.390 3.977           18.630 18.270 38.960 37.670 21.149 8.119 13.030 421 696.6
DSCMET_421 2018-09-23 14:15:00 4637 179.100 5.0000 0.0000 0.0000 261.400 5.0000 0.0000 0.0000 260.200 5.0000 0.0000 0.0000 18.580 37.820 3.934           18.850 18.330 38.610 37.190 21.402 8.094 13.308 421 696.6
DSCMET_421 2018-09-23 14:10:00 4636 179.000 5.0000 0.0000 0.0000 261.200 5.0000 0.0000 0.0000 260.200 5.0000 0.0000 0.0000 18.380 38.020 3.831           18.680 18.120 38.510 37.570 21.136 8.036 13.100 421 696.6
DSCMET_421 2018-09-23 14:05:00 4635 179.100 5.0000 0.0000 0.0000 260.900 5.0000 0.0000 0.0000 260.300 5.0000 0.0000 0.0000 18.580 38.070 4.027           18.970 18.270 39.410 37.090 21.402 8.148 13.255 421 696.6
DSCMET_421 2018-09-23 14:00:00 4634 179.100 5.0000 0.0000 0.0000 260.300 5.0000 0.0000 0.0000 260.200 5.0000 0.0000 0.0000 18.400 38.130 3.890           18.630 18.190 39.080 37.450 21.163 8.069 13.093 421 696.6
DSCMET_421 2018-09-23 13:55:00 4633 179.100 5.0000 0.0000 0.0000 260.300 5.0000 0.0000 0.0000 260.300 5.0000 0.0000 0.0000 18.610 37.500 3.840           19.030 18.200 38.400 36.520 21.443 8.041 13.402 421 696.6
DSCMET_421 2018-09-23 13:50:00 4632 179.100 5.0000 0.0000 0.0000 260.400 5.0000 0.0000 0.0000 260.200 5.0000 0.0000 0.0000 18.310 38.240 3.850           18.690 18.120 39.490 37.550 21.043 8.047 12.996 421 696.6
DSCMET_421 2018-09-23 13:45:00 4631 179.100 5.0000 0.0000 0.0000 260.800 5.0000 0.0000 0.0000 260.400 5.0000 0.0000 0.0000 18.390 38.250 3.925           18.520 18.240 38.930 37.800 21.149 8.090 13.060 421 696.6
DSCMET_421 2018-09-23 13:40:00 4630 179.000 5.0000 0.0000 0.0000 261.300 5.0000 0.0000 0.0000 260.400 5.0000 0.0000 0.0000 18.490 38.350 4.051           18.890 18.190 39.480 37.640 21.282 8.162 13.120 421 696.6
DSCMET_421 2018-09-23 13:35:00 4629 179.300 5.0000 0.0000 0.0000 261.200 5.0000 0.0000 0.0000 260.300 5.0000 0.0000 0.0000 18.510 38.690 4.195           18.970 18.190 40.950 37.310 21.309 8.244 13.064 421 696.6
DSCMET_421 2018-09-23 13:30:00 4628 180.000 5.0000 0.0000 0.0000 261.700 5.0000 0.0000 0.0000 260.300 5.0000 0.0000 0.0000 18.660 38.430 4.232           19.150 18.270 39.880 36.390 21.510 8.266 13.244 421 696.6
DSCMET_421 2018-09-23 13:25:00 4627 179.800 5.0000 0.0000 0.0000 261.700 5.0000 0.0000 0.0000 260.400 5.0000 0.0000 0.0000 18.640 38.210 4.133           19.100 18.260 40.260 36.940 21.483 8.209 13.274 421 696.6
DSCMET_421 2018-09-23 13:20:00 4626 180.000 5.0000 0.0000 0.0000 261.500 5.0000 0.0000 0.0000 260.300 5.0000 0.0000 0.0000 18.000 38.770 3.770           18.320 17.790 40.010 37.800 20.638 8.001 12.637 421 696.6
DSCMET_421 2018-09-23 13:15:00 4625 180.200 5.0000 0.0000 0.0000 261.600 5.0000 0.0000 0.0000 260.300 5.0000 0.0000 0.0000 17.780 39.500 3.838           18.420 17.540 40.760 38.530 20.354 8.040 12.314 421 696.6
DSCMET_421 2018-09-23 13:10:00 4624 180.100 5.0000 0.0000 0.0000 261.600 5.0000 0.0000 0.0000 260.400 5.0000 0.0000 0.0000 18.140 38.930 3.953           18.490 17.870 40.090 38.000 20.820 8.105 12.715 421 696.6
DSCMET_421 2018-09-23 13:05:00 4623 180.000 5.0000 0.0000 0.0000 261.700 5.0000 0.0000 0.0000 260.300 5.0000 0.0000 0.0000 18.080 38.940 3.903           18.600 17.530 40.110 37.590 20.742 8.077 12.665 421 696.6
DSCMET_421 2018-09-23 13:00:00 4622 179.800 5.0000 0.0000 0.0000 261.700 5.0000 0.0000 0.0000 260.400 5.0000 0.0000 0.0000 18.010 39.110 3.902           18.490 17.630 39.940 37.820 20.651 8.077 12.574 421 696.6
DSCMET_421 2018-09-23 12:55:00 4621 179.500 5.0000 0.0000 0.0000 261.500 5.0000 0.0000 0.0000 260.300 5.0000 0.0000 0.0000 17.920 39.000 3.782           18.420 17.530 40.690 37.900 20.534 8.008 12.526 421 696.6
DSCMET_421 2018-09-23 12:50:00 4620 179.400 5.0000 0.0000 0.0000 261.700 5.0000 0.0000 0.0000 260.400 5.0000 0.0000 0.0000 18.340 39.440 4.317           18.770 17.790 42.070 37.320 21.083 8.315 12.768 421 696.6
DSCMET_421 2018-09-23 12:45:00 4619 179.500 5.0000 0.0000 0.0000 261.800 5.0000 0.0000 0.0000 260.300 5.0000 0.0000 0.0000 18.000 38.700 3.744           18.390 17.690 39.810 37.510 20.638 7.987 12.651 421 696.6
DSCMET_421 2018-09-23 12:40:00 4618 180.700 5.0000 0.0000 0.0000 261.800 5.0000 0.0000 0.0000 260.400 5.0000 0.0000 0.0000 18.330 38.590 3.998           18.790 17.610 40.080 37.620 21.070 8.131 12.939 421 696.6
DSCMET_421 2018-09-23 12:35:00 4617 180.400 5.0000 0.0000 0.0000 261.500 5.0000 0.0000 0.0000 260.300 5.0000 0.0000 0.0000 17.630 39.480 3.697           18.460 17.330 40.790 37.060 20.163 7.960 12.202 421 696.6
DSCMET_421 2018-09-23 12:30:00 4616 179.400 5.0000 0.0000 0.0000 261.500 5.0000 0.0000 0.0000 260.300 5.0000 0.0000 0.0000 17.430 40.070 3.728           18.740 16.570 41.870 36.860 19.910 7.978 11.932 421 696.6
DSCMET_421 2018-09-23 12:25:00 4615 179.300 5.0000 0.0000 0.0000 261.400 5.0000 0.0000 0.0000 260.100 5.0000 0.0000 0.0000 16.970 40.200 3.362           17.840 16.480 41.120 38.490 19.339 7.774 11.564 421 696.6
DSCMET_421 2018-09-23 12:20:00 4614 179.400 5.0000 0.0000 0.0000 261.800 5.0000 0.0000 0.0000 260.300 5.0000 0.0000 0.0000 17.610 39.670 3.747           18.130 17.200 40.920 38.700 20.137 7.988 12.149 421 696.6
DSCMET_421 2018-09-23 12:15:00 4613 179.400 5.0000 0.0000 0.0000 262.100 5.0000 0.0000 0.0000 260.500 5.0000 0.0000 0.0000 17.580 39.870 3.791           17.860 17.230 41.590 38.800 20.099 8.013 12.086 421 696.6
DSCMET_421 2018-09-23 12:10:00 4612 179.500 5.0000 0.0000 0.0000 262.000 5.0000 0.0000 0.0000 260.900 5.0000 0.0000 0.0000 17.270 41.710 4.154           17.840 16.620 44.410 38.750 19.709 8.221 11.489 421 696.6
DSCMET_421 2018-09-23 12:05:00 4611 179.400 5.0000 0.0000 0.0000 261.900 5.0000 0.0000 0.0000 260.600 5.0000 0.0000 0.0000 16.910 41.470 3.748           17.200 16.440 43.060 40.680 19.265 7.989 11.276 421 696.6
DSCMET_421 2018-09-23 12:00:00 4610 179.500 5.0000 0.0000 0.0000 261.900 5.0000 0.0000 0.0000 260.200 5.0000 0.0000 0.0000 17.040 41.440 3.855           17.420 16.680 42.700 40.030 19.425 8.050 11.375 421 696.6
DSCMET_421 2018-09-23 11:55:00 4609 179.600 5.0000 0.0000 0.0000 262.100 5.0000 0.0000 0.0000 259.900 5.0000 0.0000 0.0000 17.040 41.110 3.741           17.680 16.720 42.600 39.200 19.425 7.985 11.439 421 696.6
DSCMET_421 2018-09-23 11:50:00 4608 179.800 5.0000 0.0000 0.0000 262.200 5.0000 0.0000 0.0000 260.000 5.0000 0.0000 0.0000 17.260 40.770 3.821           17.620 17.000 42.150 40.130 19.697 8.030 11.666 421 696.6
DSCMET_421 2018-09-23 11:45:00 4607 179.700 5.0000 0.0000 0.0000 262.300 5.0000 0.0000 0.0000 260.200 5.0000 0.0000 0.0000 16.780 42.270 3.902           17.350 16.600 43.270 41.090 19.107 8.076 11.030 421 696.6
DSCMET_421 2018-09-23 11:40:00 4606 179.600 5.0000 0.0000 0.0000 262.300 5.0000 0.0000 0.0000 260.200 5.0000 0.0000 0.0000 16.890 41.580 3.768           17.140 16.470 43.380 40.830 19.241 8.000 11.240 421 696.6
DSCMET_421 2018-09-23 11:35:00 4605 179.700 5.0000 0.0000 0.0000 262.400 5.0000 0.0000 0.0000 260.700 5.0000 0.0000 0.0000 16.470 43.260 3.951           16.790 16.030 45.970 42.300 18.734 8.104 10.630 421 696.6
DSCMET_421 2018-09-23 11:30:00 4604 179.400 5.0000 0.0000 0.0000 262.200 5.0000 0.0000 0.0000 260.200 5.0000 0.0000 0.0000 15.930 44.140 3.748           16.310 15.630 45.960 42.610 18.100 7.989 10.111 421 696.6
DSCMET_421 2018-09-23 11:25:00 4603 179.500 5.0000 0.0000 0.0000 262.600 5.0000 0.0000 0.0000 260.300 5.0000 0.0000 0.0000 16.570 42.860 3.910           16.870 15.860 44.500 41.910 18.854 8.081 10.773 421 696.6
DSCMET_421 2018-09-23 11:20:00 4602 179.300 5.0000 0.0000 0.0000 262.600 5.0000 0.0000 0.0000 260.300 5.0000 0.0000 0.0000 16.280 42.360 3.482           16.840 15.700 44.000 40.500 18.509 7.840 10.668 421 696.6
DSCMET_421 2018-09-23 11:15:00 4601 179.200 5.0000 0.0000 0.0000 262.900 5.0000 0.0000 0.0000 260.800 5.0000 0.0000 0.0000 17.160 40.940 3.790           17.610 16.610 43.040 39.110 19.573 8.013 11.560 421 696.6
DSCMET_421 2018-09-23 11:10:00 4600 179.100 5.0000 0.0000 0.0000 262.900 5.0000 0.0000 0.0000 261.000 5.0000 0.0000 0.0000 16.030 43.440 3.612           17.190 15.490 44.930 42.030 18.216 7.913 10.303 421 696.6
DSCMET_421 2018-09-23 11:05:00 4599 179.200 5.0000 0.0000 0.0000 262.900 5.0000 0.0000 0.0000 260.700 5.0000 0.0000 0.0000 15.940 42.680 3.281           16.200 15.600 43.520 42.050 18.112 7.730 10.382 421 696.6
DSCMET_421 2018-09-23 11:00:00 4598 179.500 5.0000 0.0000 0.0000 263.200 5.0000 0.0000 0.0000 261.400 5.0000 0.0000 0.0000 16.240 43.300 3.757           16.580 15.870 44.920 41.180 18.462 7.994 10.468 421 696.6
DSCMET_421 2018-09-23 10:55:00 4597 179.300 5.0000 0.0000 0.0000 263.500 5.0000 0.0000 0.0000 261.700 5.0000 0.0000 0.0000 15.340 46.370 3.912           15.930 14.820 49.580 44.120 17.429 8.082 9.347 421 696.6
DSCMET_421 2018-09-23 10:50:00 4596 179.200 5.0000 0.0000 0.0000 263.500 5.0000 0.0000 0.0000 261.500 5.0000 0.0000 0.0000 14.950 48.420 4.170           15.170 14.750 51.420 46.210 16.997 8.230 8.767 421 696.6
DSCMET_421 2018-09-23 10:45:00 4595 179.100 5.0000 0.0000 0.0000 263.500 5.0000 0.0000 0.0000 261.800 5.0000 0.0000 0.0000 15.070 48.070 4.177           15.430 14.540 50.210 45.860 17.129 8.234 8.895 421 696.6
DSCMET_421 2018-09-23 10:40:00 4594 179.200 5.0000 0.0000 0.0000 263.500 5.0000 0.0000 0.0000 261.500 5.0000 0.0000 0.0000 14.760 47.910 3.845           14.970 14.590 48.650 47.320 16.790 8.044 8.746 421 696.6
DSCMET_421 2018-09-23 10:35:00 4593 179.400 5.0000 0.0000 0.0000 263.700 5.0000 0.0000 0.0000 261.600 5.0000 0.0000 0.0000 15.050 49.160 4.478           15.270 14.770 50.410 47.850 17.107 8.410 8.697 421 696.6
DSCMET_421 2018-09-23 10:30:00 4592 179.700 5.0000 0.0000 0.0000 264.000 5.0000 0.0000 0.0000 261.600 5.0000 0.0000 0.0000 15.220 48.550 4.456           15.470 15.020 54.040 46.110 17.295 8.397 8.898 421 696.6
DSCMET_421 2018-09-23 10:25:00 4591 179.800 5.0000 0.0000 0.0000 264.200 5.0000 0.0000 0.0000 262.100 5.0000 0.0000 0.0000 15.150 59.030 7.210           15.580 14.800 64.410 54.820 17.217 10.163 7.054 421 696.6
DSCMET_421 2018-09-23 10:20:00 4590 179.500 5.0000 0.0000 0.0000 264.400 5.0000 0.0000 0.0000 262.000 5.0000 0.0000 0.0000 15.540 55.180 6.593           15.880 14.950 62.070 47.850 17.654 9.741 7.912 421 696.6
DSCMET_421 2018-09-23 10:15:00 4589 179.500 5.0000 0.0000 0.0000 264.500 5.0000 0.0000 0.0000 262.600 5.0000 0.0000 0.0000 14.760 55.400 5.924           15.380 14.440 60.100 52.220 16.790 9.302 7.488 421 696.6
DSCMET_421 2018-09-23 10:10:00 4588 179.500 5.0000 0.0000 0.0000 264.600 5.0000 0.0000 0.0000 262.600 5.0000 0.0000 0.0000 14.290 60.680 6.803           14.590 14.040 65.070 54.990 16.288 9.884 6.404 421 696.6
DSCMET_421 2018-09-23 10:05:00 4587 179.800 5.0000 0.0000 0.0000 264.600 5.0000 0.0000 0.0000 262.200 5.0000 0.0000 0.0000 14.350 58.020 6.209           14.590 14.060 67.600 54.710 16.351 9.487 6.864 421 696.6
DSCMET_421 2018-09-23 10:00:00 4586 179.900 5.0000 0.0000 0.0000 264.800 5.0000 0.0000 0.0000 262.600 5.0000 0.0000 0.0000 14.430 63.460 7.589           14.610 14.060 65.880 60.530 16.436 10.430 6.006 421 696.6
DSCMET_421 2018-09-23 09:55:00 4585 180.000 5.0000 0.0000 0.0000 264.800 5.0000 0.0000 0.0000 262.400 5.0000 0.0000 0.0000 14.200 62.010 7.034           14.400 14.010 66.190 57.410 16.193 10.041 6.152 421 696.6
DSCMET_421 2018-09-23 09:50:00 4584 180.000 5.0000 0.0000 0.0000 265.000 5.0000 0.0000 0.0000 262.500 5.0000 0.0000 0.0000 14.690 63.680 7.886           15.400 14.310 69.210 57.720 16.715 10.644 6.071 421 696.6
DSCMET_421 2018-09-23 09:45:00 4583 180.100 5.0000 0.0000 0.0000 265.200 5.0000 0.0000 0.0000 263.000 5.0000 0.0000 0.0000 15.550 66.530 9.348           15.850 15.280 69.540 61.970 17.665 11.753 5.913 421 696.6
DSCMET_421 2018-09-23 09:40:00 4582 179.500 5.0000 0.0000 0.0000 265.400 5.0000 0.0000 0.0000 263.100 5.0000 0.0000 0.0000 15.600 64.300 8.890           15.850 15.370 67.720 58.670 17.722 11.395 6.327 421 696.6
DSCMET_421 2018-09-23 09:35:00 4581 179.600 5.0000 0.0000 0.0000 265.600 5.0000 0.0000 0.0000 263.800 5.0000 0.0000 0.0000 14.970 69.870 9.522           15.340 14.300 74.730 66.640 17.019 11.891 5.128 421 696.6
DSCMET_421 2018-09-23 09:30:00 4580 180.500 5.0000 0.0000 0.0000 265.700 5.0000 0.0000 0.0000 264.500 5.0000 0.0000 0.0000 14.380 71.950 9.392           14.830 13.900 75.680 67.860 16.383 11.788 4.595 421 696.6
DSCMET_421 2018-09-23 09:25:00 4579 180.300 5.0000 0.0000 0.0000 265.900 5.0000 0.0000 0.0000 266.900 5.0000 0.0000 0.0000 13.480 75.320 9.204           13.840 12.910 77.250 73.260 15.453 11.639 3.814 421 696.6
DSCMET_421 2018-09-23 09:20:00 4578 180.400 5.0000 0.0000 0.0000 266.000 5.0000 0.0000 0.0000 280.300 1.2500 2.2500 1.5000 13.060 77.080 9.141           13.410 12.760 78.080 76.090 15.035 11.589 3.446 421 696.6
DSCMET_421 2018-09-23 09:15:00 4577 180.400 5.0000 0.0000 0.0000 266.000 5.0000 0.0000 0.0000 324.900 0.0000 0.0000 5.0000 13.540 76.050 9.406           13.950 13.170 77.380 74.190 15.514 11.798 3.716 421 696.6
DSCMET_421 2018-09-23 09:10:00 4576 180.200 5.0000 0.0000 0.0000 266.300 5.0000 0.0000 0.0000 387.200 0.0000 0.0000 5.0000 13.100 78.140 9.382           13.500 12.640 80.900 76.120 15.075 11.779 3.295 421 696.6
DSCMET_421 2018-09-23 09:05:00 4575 180.200 5.0000 0.0000 0.0000 266.400 5.0000 0.0000 0.0000 411.500 0.0000 0.0000 5.0000 12.730 77.960 8.989           13.060 12.310 79.590 76.540 14.714 11.471 3.243 421 696.6
DSCMET_421 2018-09-23 09:00:00 4574 180.100 5.0000 0.0000 0.0000 267.100 5.0000 0.0000 0.0000 429.300 0.0000 0.0000 5.0000 11.650 83.500 8.952           12.380 11.130 85.900 78.900 13.704 11.443 2.261 421 696.6
DSCMET_421 2018-09-23 08:55:00 4573 180.100 5.0000 0.0000 0.0000 269.400 5.0000 0.0000 0.0000 438.300 0.0000 0.0000 5.0000 10.910 85.900 8.646           11.250 10.530 86.900 84.800 13.048 11.208 1.840 421 696.6
DSCMET_421 2018-09-23 08:50:00 4572 180.300 5.0000 0.0000 0.0000 272.900 4.0000 1.0000 0.0000 444.600 0.0000 0.0000 5.0000 10.500 87.900 8.582           10.750 10.290 90.300 85.100 12.696 11.160 1.536 421 696.6
DSCMET_421 2018-09-23 08:45:00 4571 180.400 5.0000 0.0000 0.0000 277.100 0.0000 5.0000 0.0000 451.400 0.0000 0.0000 5.0000 10.150 91.000 8.749           10.400 9.940 92.400 89.700 12.403 11.286 1.116 421 696.6
DSCMET_421 2018-09-23 08:40:00 4570 180.500 5.0000 0.0000 0.0000 281.600 0.0000 5.0000 0.0000 457.300 0.0000 0.0000 5.0000 9.940 92.600 8.798           10.050 9.690 93.300 92.200 12.229 11.324 0.905 421 696.6
DSCMET_421 2018-09-23 08:35:00 4569 180.400 5.0000 0.0000 0.0000 284.900 0.0000 1.2500 3.7500 461.300 0.0000 0.0000 5.0000 9.670 94.500 8.831           9.970 9.370 95.800 92.700 12.010 11.349 0.661 421 696.6
DSCMET_421 2018-09-23 08:30:00 4568 180.800 5.0000 0.0000 0.0000 287.900 0.0000 0.0000 5.0000 464.100 0.0000 0.0000 5.0000 9.480 95.400 8.782           9.590 9.360 95.900 94.400 11.857 11.312 0.545 421 696.6
DSCMET_421 2018-09-23 08:25:00 4567 181.400 5.0000 0.0000 0.0000 290.700 0.0000 0.0000 5.0000 466.200 0.0000 0.0000 5.0000 9.310 94.200 8.426           9.540 8.990 96.500 92.700 11.722 11.043 0.680 421 696.6
DSCMET_421 2018-09-23 08:20:00 4566 182.400 5.0000 0.0000 0.0000 292.500 0.0000 0.0000 5.0000 467.800 0.0000 0.0000 5.0000 8.920 97.200 8.501           9.090 8.650 97.900 96.600 11.418 11.098 0.320 421 696.6
DSCMET_421 2018-09-23 08:15:00 4565 182.800 5.0000 0.0000 0.0000 293.600 0.0000 0.0000 5.0000 471.000 0.0000 0.0000 5.0000 8.570 97.800 8.242           8.680 8.450 98.100 97.400 11.151 10.905 0.245 421 696.6
DSCMET_421 2018-09-23 08:10:00 4564 183.500 5.0000 0.0000 0.0000 295.300 0.0000 0.0000 5.0000 473.600 0.0000 0.0000 5.0000 8.470 98.400 8.232           8.600 8.300 99.000 97.600 11.075 10.898 0.177 421 696.6
DSCMET_421 2018-09-23 08:05:00 4563 184.400 5.0000 0.0000 0.0000 296.700 0.0000 0.0000 5.0000 475.300 0.0000 0.0000 5.0000 8.340 99.500 8.266           8.500 8.250 99.900 99.100 10.978 10.923 0.055 421 696.6
DSCMET_421 2018-09-23 08:00:00 4562 185.100 5.0000 0.0000 0.0000 297.700 0.0000 0.0000 5.0000 476.700 0.0000 0.0000 5.0000 8.190 100.000 8.190           8.330 8.050 100.000 99.900 10.867 10.867 0.000 421 696.6
DSCMET_421 2018-09-23 07:55:00 4561 186.000 5.0000 0.0000 0.0000 298.700 0.0000 0.0000 5.0000 479.000 0.0000 0.0000 5.0000 8.020 100.000 8.020           8.150 7.767 100.000 99.900 10.742 10.742 0.000 421 696.6
DSCMET_421 2018-09-23 07:50:00 4560 187.100 5.0000 0.0000 0.0000 299.500 0.0000 0.0000 5.0000 482.400 0.0000 0.0000 5.0000 7.764 100.000 7.764           8.080 7.551 100.000 100.000 10.556 10.556 0.000 421 696.6
DSCMET_421 2018-09-23 07:45:00 4559 187.600 5.0000 0.0000 0.0000 300.100 0.0000 0.0000 5.0000 484.400 0.0000 0.0000 5.0000 7.550 100.000 7.550           7.650 7.335 100.000 100.000 10.403 10.403 0.000 421 696.6
DSCMET_421 2018-09-23 07:40:00 4558 188.100 5.0000 0.0000 0.0000 300.700 0.0000 0.0000 5.0000 488.700 0.0000 0.0000 5.0000 7.479 100.000 7.479           7.567 7.352 100.000 99.800 10.352 10.352 0.000 421 696.6
DSCMET_421 2018-09-23 07:35:00 4557 188.700 5.0000 0.0000 0.0000 300.900 0.0000 0.0000 5.0000 490.400 0.0000 0.0000 5.0000 7.435 100.000 7.435           7.617 7.318 100.000 100.000 10.321 10.321 0.000 421 696.6
DSCMET_421 2018-09-23 07:30:00 4556 188.900 5.0000 0.0000 0.0000 300.800 0.0000 0.0000 5.0000 489.500 0.0000 0.0000 5.0000 7.230 100.000 7.230           7.384 7.035 100.000 99.800 10.177 10.177 0.000 421 696.6
DSCMET_421 2018-09-23 07:25:00 4555 189.000 5.0000 0.0000 0.0000 300.400 0.0000 0.0000 5.0000 487.500 0.0000 0.0000 5.0000 6.986 100.000 6.986           7.135 6.753 100.000 100.000 10.008 10.008 0.000 421 696.6
DSCMET_421 2018-09-23 07:20:00 4554 189.200 5.0000 0.0000 0.0000 300.000 0.0000 0.0000 5.0000 484.400 0.0000 0.0000 5.0000 7.036 100.000 7.036           7.168 6.853 100.000 99.900 10.043 10.043 0.000 421 696.6
DSCMET_421 2018-09-23 07:15:00 4553 189.300 5.0000 0.0000 0.0000 299.500 0.0000 0.0000 5.0000 481.100 0.0000 0.0000 5.0000 7.061 100.000 7.061           7.169 6.869 100.000 100.000 10.060 10.060 0.000 421 696.6
DSCMET_421 2018-09-23 07:10:00 4552 189.300 5.0000 0.0000 0.0000 298.900 0.0000 0.0000 5.0000 477.700 0.0000 0.0000 5.0000 7.067 100.000 7.067           7.135 6.986 100.000 100.000 10.064 10.064 0.000 421 696.6
DSCMET_421 2018-09-23 07:05:00 4551 189.300 5.0000 0.0000 0.0000 298.200 0.0000 0.0000 5.0000 473.900 0.0000 0.0000 5.0000 7.112 100.000 7.112           7.268 6.886 100.000 99.900 10.095 10.095 0.000 421 696.6
DSCMET_421 2018-09-23 07:00:00 4550 189.900 5.0000 0.0000 0.0000 297.600 0.0000 0.0000 5.0000 469.300 0.0000 0.0000 5.0000 7.137 100.000 7.137           7.218 7.002 100.000 99.900 10.113 10.113 0.000 421 696.6
DSCMET_421 2018-09-23 06:55:00 4549 189.900 5.0000 0.0000 0.0000 296.900 0.0000 0.0000 5.0000 464.700 0.0000 0.0000 5.0000 7.200 100.000 7.200           7.317 7.052 100.000 100.000 10.156 10.156 0.000 421 696.6
DSCMET_421 2018-09-23 06:50:00 4548 189.900 5.0000 0.0000 0.0000 296.200 0.0000 0.0000 5.0000 460.500 0.0000 0.0000 5.0000 7.210 100.000 7.210           7.434 7.035 100.000 100.000 10.163 10.163 0.000 421 696.6
DSCMET_421 2018-09-23 06:45:00 4547 190.000 5.0000 0.0000 0.0000 295.300 0.0000 0.0000 5.0000 456.000 0.0000 0.0000 5.0000 7.164 100.000 7.164           7.234 7.002 100.000 100.000 10.131 10.131 0.000 421 696.6
DSCMET_421 2018-09-23 06:40:00 4546 190.000 5.0000 0.0000 0.0000 294.500 0.0000 0.0000 5.0000 451.600 0.0000 0.0000 5.0000 7.223 100.000 7.223           7.333 7.018 100.000 99.900 10.172 10.172 0.000 421 696.6
DSCMET_421 2018-09-23 06:35:00 4545 189.900 5.0000 0.0000 0.0000 293.900 0.0000 0.0000 5.0000 447.800 0.0000 0.0000 5.0000 7.260 100.000 7.260           7.350 7.066 100.000 100.000 10.198 10.198 0.000 421 696.6
DSCMET_421 2018-09-23 06:30:00 4544 189.900 5.0000 0.0000 0.0000 293.000 0.0000 0.0000 5.0000 443.900 0.0000 0.0000 5.0000 7.294 100.000 7.294           7.365 7.099 100.000 100.000 10.222 10.222 0.000 421 696.6
DSCMET_421 2018-09-23 06:25:00 4543 189.600 5.0000 0.0000 0.0000 292.100 0.0000 0.0000 5.0000 439.700 0.0000 0.0000 5.0000 7.370 100.000 7.370           7.514 7.233 100.000 100.000 10.275 10.275 0.000 421 696.6
DSCMET_421 2018-09-23 06:20:00 4542 189.500 5.0000 0.0000 0.0000 291.300 0.0000 0.0000 5.0000 435.600 0.0000 0.0000 5.0000 7.500 100.000 7.500           7.630 7.314 100.000 100.000 10.367 10.367 0.000 421 696.6
DSCMET_421 2018-09-23 06:15:00 4541 189.400 5.0000 0.0000 0.0000 290.300 0.0000 0.0000 5.0000 431.900 0.0000 0.0000 5.0000 7.520 100.000 7.520           7.630 7.414 100.000 100.000 10.381 10.381 0.000 421 696.6
DSCMET_421 2018-09-23 06:10:00 4540 189.300 5.0000 0.0000 0.0000 289.400 0.0000 0.0000 5.0000 428.000 0.0000 0.0000 5.0000 7.547 100.000 7.547           7.646 7.231 100.000 100.000 10.401 10.401 0.000 421 696.6
DSCMET_421 2018-09-23 06:05:00 4539 189.300 5.0000 0.0000 0.0000 288.500 0.0000 0.0000 5.0000 424.000 0.0000 0.0000 5.0000 7.642 100.000 7.642           7.746 7.530 100.000 100.000 10.468 10.468 0.000 421 696.6
DSCMET_421 2018-09-23 06:00:00 4538 189.200 5.0000 0.0000 0.0000 287.600 0.0000 0.0000 5.0000 420.000 0.0000 0.0000 5.0000 7.628 100.000 7.628           7.745 7.430 100.000 100.000 10.458 10.458 0.000 421 696.6
DSCMET_421 2018-09-23 05:55:00 4537 189.100 5.0000 0.0000 0.0000 286.600 0.0000 0.0000 5.0000 415.800 0.0000 0.0000 5.0000 7.643 100.000 7.643           7.778 7.462 100.000 100.000 10.469 10.469 0.000 421 696.6
DSCMET_421 2018-09-23 05:50:00 4536 188.600 5.0000 0.0000 0.0000 285.600 0.0000 0.0000 5.0000 411.900 0.0000 0.0000 5.0000 7.836 100.000 7.836           8.010 7.578 100.000 100.000 10.608 10.608 0.000 421 696.6
DSCMET_421 2018-09-23 05:45:00 4535 188.400 5.0000 0.0000 0.0000 284.800 0.0000 0.0000 5.0000 407.800 0.0000 0.0000 5.0000 7.911 100.000 7.911           8.040 7.744 100.000 99.900 10.662 10.662 0.000 421 696.6
DSCMET_421 2018-09-23 05:40:00 4534 188.300 5.0000 0.0000 0.0000 284.000 0.0000 3.5000 1.5000 403.500 0.0000 0.0000 5.0000 7.985 100.000 7.985           8.110 7.776 100.000 100.000 10.716 10.716 -0.000 421 696.6
DSCMET_421 2018-09-23 05:35:00 4533 188.000 5.0000 0.0000 0.0000 283.200 0.0000 5.0000 0.0000 399.100 0.0000 0.0000 5.0000 8.020 100.000 8.020           8.140 7.876 100.000 99.900 10.742 10.742 0.000 421 696.6
DSCMET_421 2018-09-23 05:30:00 4532 187.700 5.0000 0.0000 0.0000 282.000 0.0000 5.0000 0.0000 394.400 0.0000 0.0000 5.0000 8.070 100.000 8.070           8.260 7.958 100.000 100.000 10.778 10.778 0.000 421 696.6
DSCMET_421 2018-09-23 05:25:00 4531 187.300 5.0000 0.0000 0.0000 281.000 0.0000 5.0000 0.0000 390.400 0.0000 0.0000 5.0000 8.200 100.000 8.200           8.310 7.942 100.000 100.000 10.874 10.874 0.000 421 696.6
DSCMET_421 2018-09-23 05:20:00 4530 186.900 5.0000 0.0000 0.0000 280.000 0.0000 5.0000 0.0000 386.000 0.0000 0.0000 5.0000 8.260 100.000 8.260           8.340 8.160 100.000 100.000 10.918 10.918 0.000 421 696.6
DSCMET_421 2018-09-23 05:15:00 4529 187.000 5.0000 0.0000 0.0000 279.200 0.0000 5.0000 0.0000 382.500 0.0000 0.0000 5.0000 8.290 100.000 8.290           8.390 8.040 100.000 100.000 10.941 10.941 0.000 421 696.6
DSCMET_421 2018-09-23 05:10:00 4528 186.700 5.0000 0.0000 0.0000 278.400 0.0000 5.0000 0.0000 379.200 0.0000 0.0000 5.0000 8.340 100.000 8.340           8.490 8.220 100.000 100.000 10.978 10.978 0.000 421 696.6
DSCMET_421 2018-09-23 05:05:00 4527 186.600 5.0000 0.0000 0.0000 277.400 0.0000 5.0000 0.0000 375.600 0.0000 0.0000 5.0000 8.530 100.000 8.530           8.640 8.390 100.000 100.000 11.120 11.120 0.000 421 696.6
DSCMET_421 2018-09-23 05:00:00 4526 186.300 5.0000 0.0000 0.0000 276.400 0.0000 5.0000 0.0000 371.000 0.0000 0.0000 5.0000 8.530 100.000 8.530           8.670 8.340 100.000 100.000 11.120 11.120 0.000 421 696.6
DSCMET_421 2018-09-23 04:55:00 4525 186.100 5.0000 0.0000 0.0000 275.600 0.0000 5.0000 0.0000 367.000 0.0000 0.0000 5.0000 8.660 100.000 8.660           8.790 8.420 100.000 99.900 11.219 11.219 0.000 421 696.6
DSCMET_421 2018-09-23 04:50:00 4524 185.700 5.0000 0.0000 0.0000 274.500 0.7500 4.2500 0.0000 362.900 0.0000 0.0000 5.0000 8.620 100.000 8.620           8.770 8.420 100.000 100.000 11.188 11.188 0.000 421 696.6
DSCMET_421 2018-09-23 04:45:00 4523 185.300 5.0000 0.0000 0.0000 273.400 5.0000 0.0000 0.0000 358.500 0.0000 0.0000 5.0000 8.660 100.000 8.660           8.900 8.350 100.000 99.900 11.219 11.219 0.000 421 696.6
DSCMET_421 2018-09-23 04:40:00 4522 184.900 5.0000 0.0000 0.0000 272.500 5.0000 0.0000 0.0000 354.800 0.0000 0.0000 5.0000 8.840 100.000 8.840           9.000 8.580 100.000 100.000 11.356 11.356 0.000 421 696.6
DSCMET_421 2018-09-23 04:35:00 4521 184.200 5.0000 0.0000 0.0000 271.800 5.0000 0.0000 0.0000 350.900 0.0000 0.0000 5.0000 8.960 100.000 8.960           9.070 8.780 100.000 100.000 11.449 11.449 0.000 421 696.6
DSCMET_421 2018-09-23 04:30:00 4520 183.800 5.0000 0.0000 0.0000 271.400 5.0000 0.0000 0.0000 347.100 0.0000 0.0000 5.0000 9.000 100.000 9.000           9.120 8.780 100.000 100.000 11.480 11.480 0.000 421 696.6
DSCMET_421 2018-09-23 04:25:00 4519 183.500 5.0000 0.0000 0.0000 270.900 5.0000 0.0000 0.0000 344.400 0.0000 0.0000 5.0000 9.100 100.000 9.100           9.270 8.930 100.000 100.000 11.558 11.558 0.000 421 696.6
DSCMET_421 2018-09-23 04:20:00 4518 183.700 5.0000 0.0000 0.0000 270.700 5.0000 0.0000 0.0000 342.400 0.0000 0.0000 5.0000 9.140 100.000 9.140           9.270 8.980 100.000 99.800 11.589 11.589 0.000 421 696.6
DSCMET_421 2018-09-23 04:15:00 4517 183.900 5.0000 0.0000 0.0000 270.900 5.0000 0.0000 0.0000 340.900 0.0000 0.0000 5.0000 9.200 100.000 9.200           9.300 9.030 100.000 100.000 11.636 11.636 0.000 421 696.6
DSCMET_421 2018-09-23 04:10:00 4516 184.100 5.0000 0.0000 0.0000 271.000 5.0000 0.0000 0.0000 339.500 0.0000 0.0000 5.0000 9.210 100.000 9.210           9.300 9.070 100.000 100.000 11.644 11.644 -0.000 421 696.6
DSCMET_421 2018-09-23 04:05:00 4515 184.200 5.0000 0.0000 0.0000 271.000 5.0000 0.0000 0.0000 338.300 0.0000 0.0000 5.0000 9.180 100.000 9.180           9.270 8.920 100.000 100.000 11.620 11.620 0.000 421 696.6
DSCMET_421 2018-09-23 04:00:00 4514 184.200 5.0000 0.0000 0.0000 271.300 5.0000 0.0000 0.0000 337.700 0.0000 0.0000 5.0000 9.180 100.000 9.180           9.300 8.820 100.000 100.000 11.620 11.620 0.000 421 696.6
DSCMET_421 2018-09-23 03:55:00 4513 184.500 5.0000 0.0000 0.0000 271.500 5.0000 0.0000 0.0000 337.200 0.0000 0.0000 5.0000 9.160 100.000 9.160           9.260 8.970 100.000 99.900 11.604 11.604 0.000 421 696.6
DSCMET_421 2018-09-23 03:50:00 4512 184.700 5.0000 0.0000 0.0000 271.300 5.0000 0.0000 0.0000 335.600 0.0000 0.0000 5.0000 9.220 100.000 9.220           9.300 9.020 100.000 100.000 11.652 11.652 0.000 421 696.6
DSCMET_421 2018-09-23 03:45:00 4511 184.900 5.0000 0.0000 0.0000 270.900 5.0000 0.0000 0.0000 333.000 0.0000 0.0000 5.0000 9.260 100.000 9.260           9.360 9.080 100.000 100.000 11.683 11.683 0.000 421 696.6
DSCMET_421 2018-09-23 03:40:00 4510 184.400 5.0000 0.0000 0.0000 270.300 5.0000 0.0000 0.0000 331.100 0.0000 0.0000 5.0000 9.330 100.000 9.330           9.410 9.250 100.000 100.000 11.738 11.738 -0.000 421 696.6
DSCMET_421 2018-09-23 03:35:00 4509 183.900 5.0000 0.0000 0.0000 269.300 5.0000 0.0000 0.0000 328.300 0.0000 0.0000 5.0000 9.340 100.000 9.340           9.430 9.110 100.000 99.900 11.746 11.746 0.000 421 696.6
DSCMET_421 2018-09-23 03:30:00 4508 183.300 5.0000 0.0000 0.0000 268.300 5.0000 0.0000 0.0000 325.900 0.0000 0.0000 5.0000 9.400 99.500 9.326           9.560 9.200 99.900 98.800 11.794 11.735 0.059 421 696.6
DSCMET_421 2018-09-23 03:25:00 4507 183.000 5.0000 0.0000 0.0000 267.500 5.0000 0.0000 0.0000 323.200 0.0000 0.0000 5.0000 9.690 98.200 9.420           9.860 9.430 98.600 97.800 12.026 11.810 0.216 421 696.6
DSCMET_421 2018-09-23 03:20:00 4506 182.900 5.0000 0.0000 0.0000 267.300 5.0000 0.0000 0.0000 321.700 0.0000 0.0000 5.0000 9.700 99.100 9.565           9.860 9.550 99.400 98.700 12.034 11.926 0.108 421 696.6
DSCMET_421 2018-09-23 03:15:00 4505 182.700 5.0000 0.0000 0.0000 267.000 5.0000 0.0000 0.0000 320.900 0.0000 0.0000 5.0000 9.670 99.200 9.551           9.760 9.480 99.500 99.100 12.010 11.914 0.096 421 696.6
DSCMET_421 2018-09-23 03:10:00 4504 182.600 5.0000 0.0000 0.0000 267.000 5.0000 0.0000 0.0000 320.900 0.0000 0.0000 5.0000 9.650 99.600 9.590           9.730 9.510 99.800 99.400 11.994 11.946 0.048 421 696.6
DSCMET_421 2018-09-23 03:05:00 4503 182.900 5.0000 0.0000 0.0000 267.300 5.0000 0.0000 0.0000 321.300 0.0000 0.0000 5.0000 9.660 99.700 9.615           9.800 9.510 100.000 99.600 12.002 11.966 0.036 421 696.6
DSCMET_421 2018-09-23 03:00:00 4502 183.200 5.0000 0.0000 0.0000 267.600 5.0000 0.0000 0.0000 321.800 0.0000 0.0000 5.0000 9.620 99.600 9.560           9.730 9.430 99.800 99.200 11.970 11.922 0.048 421 696.6
DSCMET_421 2018-09-23 02:55:00 4501 183.400 5.0000 0.0000 0.0000 268.100 5.0000 0.0000 0.0000 322.700 0.0000 0.0000 5.0000 9.600 99.900 9.585           9.690 9.440 100.000 99.700 11.953 11.942 0.012 421 696.6
DSCMET_421 2018-09-23 02:50:00 4500 183.700 5.0000 0.0000 0.0000 268.300 5.0000 0.0000 0.0000 323.100 0.0000 0.0000 5.0000 9.660 100.000 9.660           9.790 9.510 100.000 100.000 12.002 12.002 0.000 421 696.6
DSCMET_421 2018-09-23 02:45:00 4499 184.200 5.0000 0.0000 0.0000 268.900 5.0000 0.0000 0.0000 322.600 0.0000 0.0000 5.0000 9.640 100.000 9.640           9.740 9.460 100.000 100.000 11.986 11.986 0.000 421 696.6
DSCMET_421 2018-09-23 02:40:00 4498 184.100 5.0000 0.0000 0.0000 268.800 5.0000 0.0000 0.0000 321.500 0.0000 0.0000 5.0000 9.600 99.900 9.585           9.710 9.460 100.000 99.600 11.953 11.942 0.012 421 696.6
DSCMET_421 2018-09-23 02:35:00 4497 183.800 5.0000 0.0000 0.0000 268.300 5.0000 0.0000 0.0000 319.500 0.0000 0.0000 5.0000 9.710 99.400 9.620           9.840 9.550 99.600 99.200 12.042 11.970 0.072 421 696.6
DSCMET_421 2018-09-23 02:30:00 4496 183.500 5.0000 0.0000 0.0000 267.900 5.0000 0.0000 0.0000 317.700 0.0000 0.0000 5.0000 9.740 99.700 9.695           9.880 9.500 99.800 99.500 12.066 12.030 0.036 421 696.6
DSCMET_421 2018-09-23 02:25:00 4495 182.900 5.0000 0.0000 0.0000 267.600 5.0000 0.0000 0.0000 316.100 0.0000 0.0000 5.0000 9.760 99.400 9.670           9.890 9.600 99.600 99.200 12.083 12.010 0.072 421 696.6
DSCMET_421 2018-09-23 02:20:00 4494 183.100 5.0000 0.0000 0.0000 267.400 5.0000 0.0000 0.0000 314.900 0.0000 0.0000 5.0000 9.760 99.400 9.670           9.860 9.580 99.600 99.000 12.083 12.010 0.072 421 696.6
DSCMET_421 2018-09-23 02:15:00 4493 182.800 5.0000 0.0000 0.0000 267.500 5.0000 0.0000 0.0000 314.000 0.0000 0.0000 5.0000 9.860 98.700 9.665           9.990 9.600 99.100 98.100 12.164 12.006 0.158 421 696.6
DSCMET_421 2018-09-23 02:10:00 4492 183.000 5.0000 0.0000 0.0000 268.000 5.0000 0.0000 0.0000 314.700 0.0000 0.0000 5.0000 10.100 97.600 9.738           10.230 9.930 98.000 97.200 12.361 12.065 0.297 421 696.6
DSCMET_421 2018-09-23 02:05:00 4491 183.400 5.0000 0.0000 0.0000 269.300 5.0000 0.0000 0.0000 317.800 0.0000 0.0000 5.0000 10.130 98.000 9.829           10.260 10.040 99.000 97.300 12.386 12.138 0.248 421 696.6
DSCMET_421 2018-09-23 02:00:00 4490 183.900 5.0000 0.0000 0.0000 270.700 5.0000 0.0000 0.0000 321.200 0.0000 0.0000 5.0000 9.930 99.800 9.900           10.110 9.710 100.000 99.200 12.221 12.197 0.024 421 696.6
DSCMET_421 2018-09-23 01:55:00 4489 184.500 5.0000 0.0000 0.0000 271.200 5.0000 0.0000 0.0000 322.100 0.0000 0.0000 5.0000 9.830 100.000 9.830           9.940 9.680 100.000 99.700 12.140 12.140 0.000 421 696.6
DSCMET_421 2018-09-23 01:50:00 4488 184.600 5.0000 0.0000 0.0000 271.300 5.0000 0.0000 0.0000 321.400 0.0000 0.0000 5.0000 9.850 100.000 9.850           9.970 9.740 100.000 100.000 12.156 12.156 0.000 421 696.6
DSCMET_421 2018-09-23 01:45:00 4487 184.700 5.0000 0.0000 0.0000 270.900 5.0000 0.0000 0.0000 319.000 0.0000 0.0000 5.0000 9.880 100.000 9.880           9.990 9.640 100.000 100.000 12.180 12.180 0.000 421 696.6
DSCMET_421 2018-09-23 01:40:00 4486 184.000 5.0000 0.0000 0.0000 270.200 5.0000 0.0000 0.0000 315.600 0.0000 0.0000 5.0000 9.890 99.900 9.875           10.060 9.660 100.000 99.700 12.189 12.176 0.012 421 696.6
DSCMET_421 2018-09-23 01:35:00 4485 183.900 5.0000 0.0000 0.0000 269.500 5.0000 0.0000 0.0000 312.200 0.0000 0.0000 5.0000 9.990 99.600 9.930           10.190 9.810 99.900 99.200 12.271 12.221 0.049 421 696.6
DSCMET_421 2018-09-23 01:30:00 4484 183.500 5.0000 0.0000 0.0000 268.600 5.0000 0.0000 0.0000 308.400 0.0000 0.0000 5.0000 10.170 99.300 10.065           10.290 9.810 99.400 99.000 12.419 12.332 0.087 421 696.6
DSCMET_421 2018-09-23 01:25:00 4483 183.100 5.0000 0.0000 0.0000 267.600 5.0000 0.0000 0.0000 305.000 0.0000 0.0000 5.0000 10.240 98.800 10.060           10.390 10.100 99.300 98.100 12.478 12.328 0.150 421 696.6
DSCMET_421 2018-09-23 01:20:00 4482 182.700 5.0000 0.0000 0.0000 267.200 5.0000 0.0000 0.0000 302.600 0.0000 0.0000 5.0000 10.380 98.300 10.124           10.490 10.090 98.600 98.100 12.595 12.381 0.214 421 696.6
DSCMET_421 2018-09-23 01:15:00 4481 182.600 5.0000 0.0000 0.0000 267.000 5.0000 0.0000 0.0000 301.600 0.0000 0.0000 5.0000 10.470 98.200 10.198           10.570 10.370 98.400 97.800 12.671 12.443 0.228 421 696.6
DSCMET_421 2018-09-23 01:10:00 4480 182.600 5.0000 0.0000 0.0000 267.000 5.0000 0.0000 0.0000 301.500 0.0000 0.0000 5.0000 10.490 98.500 10.264           10.570 10.340 98.700 98.200 12.688 12.497 0.190 421 696.6
DSCMET_421 2018-09-23 01:05:00 4479 182.100 5.0000 0.0000 0.0000 266.900 5.0000 0.0000 0.0000 301.200 0.0000 0.0000 5.0000 10.490 98.600 10.279           10.570 10.390 98.800 98.500 12.688 12.510 0.178 421 696.6
DSCMET_421 2018-09-23 01:00:00 4478 181.800 5.0000 0.0000 0.0000 266.900 5.0000 0.0000 0.0000 301.300 0.0000 0.0000 5.0000 10.510 98.300 10.253           10.630 10.300 98.500 98.000 12.705 12.489 0.216 421 696.6
DSCMET_421 2018-09-23 00:55:00 4477 181.800 5.0000 0.0000 0.0000 266.600 5.0000 0.0000 0.0000 301.600 0.0000 0.0000 5.0000 10.580 97.800 10.247           10.730 10.320 98.100 97.600 12.764 12.483 0.281 421 696.6
DSCMET_421 2018-09-23 00:50:00 4476 181.900 5.0000 0.0000 0.0000 266.600 5.0000 0.0000 0.0000 301.900 0.0000 0.0000 5.0000 10.770 97.200 10.344           10.900 10.580 97.600 96.900 12.927 12.565 0.362 421 696.6
DSCMET_421 2018-09-23 00:45:00 4475 182.300 5.0000 0.0000 0.0000 266.600 5.0000 0.0000 0.0000 302.500 0.0000 0.0000 5.0000 10.710 97.500 10.331           10.780 10.520 97.800 97.100 12.875 12.553 0.322 421 696.6
DSCMET_421 2018-09-23 00:40:00 4474 182.200 5.0000 0.0000 0.0000 266.600 5.0000 0.0000 0.0000 303.300 0.0000 0.0000 5.0000 10.780 97.100 10.339           10.850 10.650 97.500 96.800 12.935 12.560 0.375 421 696.6
DSCMET_421 2018-09-23 00:35:00 4473 182.200 5.0000 0.0000 0.0000 266.600 5.0000 0.0000 0.0000 304.400 0.0000 0.0000 5.0000 10.780 97.400 10.385           10.870 10.680 97.600 97.200 12.935 12.599 0.336 421 696.6
DSCMET_421 2018-09-23 00:30:00 4472 182.400 5.0000 0.0000 0.0000 266.600 5.0000 0.0000 0.0000 305.800 0.0000 0.0000 5.0000 10.710 97.600 10.346           10.850 10.570 97.800 97.400 12.875 12.566 0.309 421 696.6
DSCMET_421 2018-09-23 00:25:00 4471 182.700 5.0000 0.0000 0.0000 266.600 5.0000 0.0000 0.0000 307.300 0.0000 0.0000 5.0000 10.720 97.500 10.341           10.800 10.600 97.700 97.100 12.884 12.562 0.322 421 696.6
DSCMET_421 2018-09-23 00:20:00 4470 182.800 5.0000 0.0000 0.0000 266.800 5.0000 0.0000 0.0000 308.600 0.0000 0.0000 5.0000 10.830 96.600 10.311           11.050 10.570 97.200 96.100 12.979 12.537 0.441 421 696.6
DSCMET_421 2018-09-23 00:15:00 4469 183.100 5.0000 0.0000 0.0000 266.900 5.0000 0.0000 0.0000 310.400 0.0000 0.0000 5.0000 10.830 97.100 10.389           11.000 10.630 97.400 96.400 12.979 12.602 0.376 421 696.6
DSCMET_421 2018-09-23 00:10:00 4468 183.100 5.0000 0.0000 0.0000 266.900 5.0000 0.0000 0.0000 311.800 0.0000 0.0000 5.0000 10.860 96.500 10.326           10.970 10.780 97.000 96.100 13.004 12.549 0.455 421 696.6
DSCMET_421 2018-09-23 00:05:00 4467 183.100 5.0000 0.0000 0.0000 266.900 5.0000 0.0000 0.0000 314.000 0.0000 0.0000 5.0000 10.810 97.800 10.476           10.900 10.600 98.800 96.900 12.961 12.676 0.285 421 696.6
DSCMET_421 2018-09-23 00:00:00 4466 183.300 5.0000 0.0000 0.0000 267.000 5.0000 0.0000 0.0000 316.400 0.0000 0.0000 5.0000 10.630 99.600 10.570           10.780 10.350 99.900 98.900 12.807 12.756 0.051 421 696.6
DSCMET_421 2018-09-22 23:55:00 4465 183.200 5.0000 0.0000 0.0000 267.400 5.0000 0.0000 0.0000 317.600 0.0000 0.0000 5.0000 10.720 99.500 10.645           10.880 10.370 99.800 99.300 12.884 12.819 0.064 421 696.6
DSCMET_421 2018-09-22 23:50:00 4464 183.300 5.0000 0.0000 0.0000 268.200 5.0000 0.0000 0.0000 318.400 0.0000 0.0000 5.0000 10.660 99.100 10.524           10.770 10.550 99.600 98.700 12.832 12.717 0.115 421 696.6
DSCMET_421 2018-09-22 23:45:00 4463 183.500 5.0000 0.0000 0.0000 269.000 5.0000 0.0000 0.0000 320.000 0.0000 0.0000 5.0000 10.590 100.000 10.590           10.750 10.380 100.000 99.700 12.773 12.773 0.000 421 696.6
DSCMET_421 2018-09-22 23:40:00 4462 183.700 5.0000 0.0000 0.0000 269.600 5.0000 0.0000 0.0000 320.200 0.0000 0.0000 5.0000 10.590 100.000 10.590           10.680 10.450 100.000 99.800 12.773 12.773 0.000 421 696.6
DSCMET_421 2018-09-22 23:35:00 4461 183.600 5.0000 0.0000 0.0000 270.100 5.0000 0.0000 0.0000 319.900 0.0000 0.0000 5.0000 10.680 99.900 10.665           10.780 10.550 100.000 99.600 12.850 12.837 0.013 421 696.6
DSCMET_421 2018-09-22 23:30:00 4460 183.700 5.0000 0.0000 0.0000 270.500 5.0000 0.0000 0.0000 319.600 0.0000 0.0000 5.0000 10.740 100.000 10.740           10.850 10.530 100.000 100.000 12.901 12.901 0.000 421 696.6
DSCMET_421 2018-09-22 23:25:00 4459 183.700 5.0000 0.0000 0.0000 270.600 5.0000 0.0000 0.0000 318.600 0.0000 0.0000 5.0000 10.640 100.000 10.640           10.750 10.550 100.000 100.000 12.815 12.815 0.000 421 696.6
DSCMET_421 2018-09-22 23:20:00 4458 183.800 5.0000 0.0000 0.0000 270.600 5.0000 0.0000 0.0000 319.200 0.0000 0.0000 5.0000 10.700 100.000 10.700           10.860 10.530 100.000 100.000 12.867 12.867 0.000 421 696.6
DSCMET_421 2018-09-22 23:15:00 4457 183.800 5.0000 0.0000 0.0000 270.600 5.0000 0.0000 0.0000 316.700 0.0000 0.0000 5.0000 10.910 100.000 10.910           11.030 10.780 100.000 100.000 13.048 13.048 0.000 421 696.6
DSCMET_421 2018-09-22 23:10:00 4456 183.500 5.0000 0.0000 0.0000 270.500 5.0000 0.0000 0.0000 314.000 0.0000 0.0000 5.0000 10.920 100.000 10.920           11.080 10.650 100.000 100.000 13.056 13.056 0.000 421 696.6
DSCMET_421 2018-09-22 23:05:00 4455 183.300 5.0000 0.0000 0.0000 270.200 5.0000 0.0000 0.0000 311.500 0.0000 0.0000 5.0000 10.950 100.000 10.950           11.050 10.880 100.000 99.900 13.083 13.083 0.000 421 696.6
DSCMET_421 2018-09-22 23:00:00 4454 183.200 5.0000 0.0000 0.0000 270.100 5.0000 0.0000 0.0000 309.400 0.0000 0.0000 5.0000 11.050 100.000 11.050           11.150 10.850 100.000 100.000 13.170 13.170 -0.000 421 696.6
DSCMET_421 2018-09-22 22:55:00 4453 183.400 5.0000 0.0000 0.0000 270.400 5.0000 0.0000 0.0000 307.800 0.0000 0.0000 5.0000 11.100 100.000 11.100           11.230 11.000 100.000 100.000 13.214 13.214 0.000 421 696.6
DSCMET_421 2018-09-22 22:50:00 4452 183.900 5.0000 0.0000 0.0000 271.000 5.0000 0.0000 0.0000 306.100 0.0000 0.0000 5.0000 11.060 100.000 11.060           11.210 10.800 100.000 100.000 13.179 13.179 -0.000 421 696.6
DSCMET_421 2018-09-22 22:45:00 4451 183.800 5.0000 0.0000 0.0000 271.200 5.0000 0.0000 0.0000 304.400 0.0000 0.0000 5.0000 10.980 100.000 10.980           11.110 10.780 100.000 99.800 13.109 13.109 -0.000 421 696.6
DSCMET_421 2018-09-22 22:40:00 4450 184.100 5.0000 0.0000 0.0000 271.100 5.0000 0.0000 0.0000 302.300 0.0000 0.0000 5.0000 11.040 100.000 11.040           11.210 10.780 100.000 100.000 13.161 13.161 0.000 421 696.6
DSCMET_421 2018-09-22 22:35:00 4449 184.000 5.0000 0.0000 0.0000 270.800 5.0000 0.0000 0.0000 299.300 0.0000 0.0000 5.0000 11.190 100.000 11.190           11.310 11.060 100.000 100.000 13.293 13.293 0.000 421 696.6
DSCMET_421 2018-09-22 22:30:00 4448 184.100 5.0000 0.0000 0.0000 270.200 5.0000 0.0000 0.0000 296.400 0.0000 0.0000 5.0000 11.280 100.000 11.280           11.420 10.940 100.000 100.000 13.372 13.372 0.000 421 696.6
DSCMET_421 2018-09-22 22:25:00 4447 183.900 5.0000 0.0000 0.0000 269.500 5.0000 0.0000 0.0000 294.100 0.0000 0.0000 5.0000 11.360 100.000 11.360           11.510 11.240 100.000 100.000 13.444 13.444 0.000 421 696.6
DSCMET_421 2018-09-22 22:20:00 4446 183.800 5.0000 0.0000 0.0000 269.200 5.0000 0.0000 0.0000 291.500 0.0000 0.0000 5.0000 11.410 100.000 11.410           11.560 11.140 100.000 100.000 13.488 13.488 0.000 421 696.6
DSCMET_421 2018-09-22 22:15:00 4445 183.800 5.0000 0.0000 0.0000 268.900 5.0000 0.0000 0.0000 289.100 0.0000 0.0000 5.0000 11.580 100.000 11.580           11.710 11.340 100.000 100.000 13.641 13.641 0.000 421 696.6
DSCMET_421 2018-09-22 22:10:00 4444 183.700 5.0000 0.0000 0.0000 268.700 5.0000 0.0000 0.0000 286.700 0.0000 0.0000 5.0000 11.610 100.000 11.610           11.740 11.340 100.000 100.000 13.668 13.668 0.000 421 696.6
DSCMET_421 2018-09-22 22:05:00 4443 183.600 5.0000 0.0000 0.0000 268.000 5.0000 0.0000 0.0000 283.800 0.0000 2.7500 2.2500 11.630 100.000 11.630           11.770 11.490 100.000 100.000 13.686 13.686 0.000 421 696.6
DSCMET_421 2018-09-22 22:00:00 4442 183.500 5.0000 0.0000 0.0000 267.400 5.0000 0.0000 0.0000 280.900 0.0000 5.0000 0.0000 11.770 99.900 11.755           11.970 11.620 100.000 99.800 13.813 13.799 0.014 421 696.6
DSCMET_421 2018-09-22 21:55:00 4441 183.500 5.0000 0.0000 0.0000 266.900 5.0000 0.0000 0.0000 278.500 0.0000 5.0000 0.0000 11.870 99.800 11.840           11.950 11.800 100.000 99.600 13.905 13.877 0.028 421 696.6
DSCMET_421 2018-09-22 21:50:00 4440 183.300 5.0000 0.0000 0.0000 266.900 5.0000 0.0000 0.0000 276.500 0.0000 5.0000 0.0000 11.940 99.700 11.894           12.120 11.620 100.000 99.600 13.969 13.927 0.042 421 696.6
DSCMET_421 2018-09-22 21:45:00 4439 183.100 5.0000 0.0000 0.0000 266.900 5.0000 0.0000 0.0000 274.700 1.0000 4.0000 0.0000 12.000 99.400 11.909           12.150 11.870 100.000 99.000 14.025 13.940 0.084 421 696.6
DSCMET_421 2018-09-22 21:40:00 4438 183.000 5.0000 0.0000 0.0000 266.900 5.0000 0.0000 0.0000 272.300 5.0000 0.0000 0.0000 12.200 99.200 12.078           12.300 12.080 99.400 98.900 14.211 14.097 0.114 421 696.6
DSCMET_421 2018-09-22 21:35:00 4437 182.700 5.0000 0.0000 0.0000 266.900 5.0000 0.0000 0.0000 270.200 5.0000 0.0000 0.0000 12.210 98.900 12.042           12.420 11.980 99.400 98.500 14.220 14.063 0.156 421 696.6
DSCMET_421 2018-09-22 21:30:00 4436 182.500 5.0000 0.0000 0.0000 266.800 5.0000 0.0000 0.0000 268.700 5.0000 0.0000 0.0000 12.330 98.300 12.070           12.460 12.100 98.600 97.900 14.333 14.089 0.244 421 696.6
DSCMET_421 2018-09-22 21:25:00 4435 182.700 5.0000 0.0000 0.0000 266.600 5.0000 0.0000 0.0000 268.300 5.0000 0.0000 0.0000 12.560 97.400 12.159           12.700 12.330 97.800 96.900 14.551 14.172 0.378 421 696.6
DSCMET_421 2018-09-22 21:20:00 4434 182.900 5.0000 0.0000 0.0000 266.600 5.0000 0.0000 0.0000 268.100 5.0000 0.0000 0.0000 12.580 98.100 12.288           12.680 12.480 98.400 97.800 14.570 14.293 0.277 421 696.6
DSCMET_421 2018-09-22 21:15:00 4433 182.600 5.0000 0.0000 0.0000 266.600 5.0000 0.0000 0.0000 267.700 5.0000 0.0000 0.0000 12.570 98.200 12.294           12.700 12.320 98.500 97.600 14.560 14.298 0.262 421 696.6
DSCMET_421 2018-09-22 21:10:00 4432 182.500 5.0000 0.0000 0.0000 266.600 5.0000 0.0000 0.0000 267.800 5.0000 0.0000 0.0000 12.710 97.100 12.262           12.860 12.580 97.400 96.900 14.695 14.269 0.426 421 696.6
DSCMET_421 2018-09-22 21:05:00 4431 182.400 5.0000 0.0000 0.0000 266.600 5.0000 0.0000 0.0000 268.100 5.0000 0.0000 0.0000 12.690 97.500 12.304           12.850 12.410 97.900 97.100 14.675 14.309 0.367 421 696.6
DSCMET_421 2018-09-22 21:00:00 4430 182.400 5.0000 0.0000 0.0000 266.600 5.0000 0.0000 0.0000 268.200 5.0000 0.0000 0.0000 12.720 97.600 12.350           12.830 12.530 97.900 97.300 14.704 14.351 0.353 421 696.6
DSCMET_421 2018-09-22 20:55:00 4429 182.300 5.0000 0.0000 0.0000 266.600 5.0000 0.0000 0.0000 268.600 5.0000 0.0000 0.0000 12.740 97.600 12.370           12.830 12.550 98.400 97.000 14.724 14.370 0.353 421 696.6
DSCMET_421 2018-09-22 20:50:00 4428 182.700 5.0000 0.0000 0.0000 266.600 5.0000 0.0000 0.0000 269.300 5.0000 0.0000 0.0000 12.730 98.400 12.484           12.810 12.630 98.500 98.000 14.714 14.479 0.235 421 696.6
DSCMET_421 2018-09-22 20:45:00 4427 182.700 5.0000 0.0000 0.0000 266.500 5.0000 0.0000 0.0000 269.800 5.0000 0.0000 0.0000 12.760 97.500 12.374           12.900 12.530 98.000 97.200 14.743 14.374 0.369 421 696.6
DSCMET_421 2018-09-22 20:40:00 4426 182.800 5.0000 0.0000 0.0000 266.500 5.0000 0.0000 0.0000 270.700 5.0000 0.0000 0.0000 12.870 97.500 12.484           12.990 12.700 98.100 97.100 14.850 14.478 0.371 421 696.6
DSCMET_421 2018-09-22 20:35:00 4425 182.900 5.0000 0.0000 0.0000 266.500 5.0000 0.0000 0.0000 272.000 5.0000 0.0000 0.0000 12.800 98.200 12.523           12.890 12.730 98.400 97.900 14.782 14.516 0.266 421 696.6
DSCMET_421 2018-09-22 20:30:00 4424 182.600 5.0000 0.0000 0.0000 266.500 5.0000 0.0000 0.0000 273.000 5.0000 0.0000 0.0000 12.840 97.400 12.438           13.030 12.630 97.900 96.900 14.820 14.435 0.385 421 696.6
DSCMET_421 2018-09-22 20:25:00 4423 181.800 5.0000 0.0000 0.0000 266.500 5.0000 0.0000 0.0000 274.200 2.0000 3.0000 0.0000 12.970 96.700 12.458           13.110 12.880 97.300 96.200 14.947 14.454 0.493 421 696.6
DSCMET_421 2018-09-22 20:20:00 4422 182.400 5.0000 0.0000 0.0000 266.500 5.0000 0.0000 0.0000 275.400 0.0000 5.0000 0.0000 12.950 96.600 12.422           13.030 12.860 97.300 96.200 14.928 14.420 0.508 421 696.6
DSCMET_421 2018-09-22 20:15:00 4421 182.400 5.0000 0.0000 0.0000 266.500 5.0000 0.0000 0.0000 276.700 0.0000 5.0000 0.0000 12.930 96.900 12.450           13.010 12.840 97.800 96.500 14.908 14.446 0.462 421 696.6
DSCMET_421 2018-09-22 20:10:00 4420 182.500 5.0000 0.0000 0.0000 266.500 5.0000 0.0000 0.0000 278.200 0.0000 5.0000 0.0000 12.840 98.100 12.547           12.980 12.590 98.300 97.700 14.820 14.539 0.282 421 696.6
DSCMET_421 2018-09-22 20:05:00 4419 182.900 5.0000 0.0000 0.0000 266.500 5.0000 0.0000 0.0000 279.300 0.0000 5.0000 0.0000 12.870 98.300 12.608           13.010 12.640 98.500 98.000 14.850 14.597 0.252 421 696.6
DSCMET_421 2018-09-22 20:00:00 4418 183.200 5.0000 0.0000 0.0000 266.500 5.0000 0.0000 0.0000 280.500 0.0000 5.0000 0.0000 12.860 98.700 12.660           12.940 12.730 98.900 98.400 14.840 14.647 0.193 421 696.6
DSCMET_421 2018-09-22 19:55:00 4417 183.000 5.0000 0.0000 0.0000 266.500 5.0000 0.0000 0.0000 281.500 0.0000 5.0000 0.0000 12.940 98.400 12.694           13.120 12.810 98.900 97.900 14.918 14.679 0.239 421 696.6
DSCMET_421 2018-09-22 19:50:00 4416 183.000 5.0000 0.0000 0.0000 266.500 5.0000 0.0000 0.0000 282.100 0.0000 5.0000 0.0000 13.070 98.100 12.777           13.140 12.970 98.300 98.000 15.045 14.759 0.286 421 696.6
DSCMET_421 2018-09-22 19:45:00 4415 183.100 5.0000 0.0000 0.0000 266.500 5.0000 0.0000 0.0000 282.500 0.0000 5.0000 0.0000 13.080 98.200 12.802           13.210 12.820 98.500 97.600 15.055 14.784 0.271 421 696.6
DSCMET_421 2018-09-22 19:40:00 4414 183.000 5.0000 0.0000 0.0000 266.500 5.0000 0.0000 0.0000 283.000 0.0000 5.0000 0.0000 13.270 96.300 12.694           13.470 13.020 97.600 95.700 15.243 14.679 0.564 421 696.6
DSCMET_421 2018-09-22 19:35:00 4413 182.900 5.0000 0.0000 0.0000 266.500 5.0000 0.0000 0.0000 284.100 0.0000 2.0000 3.0000 13.300 96.600 12.771           13.470 12.990 97.000 96.100 15.273 14.754 0.519 421 696.6
DSCMET_421 2018-09-22 19:30:00 4412 182.600 5.0000 0.0000 0.0000 266.500 5.0000 0.0000 0.0000 285.200 0.0000 0.0000 5.0000 13.220 96.700 12.707           13.340 12.900 96.900 96.400 15.193 14.692 0.501 421 696.6
DSCMET_421 2018-09-22 19:25:00 4411 182.700 5.0000 0.0000 0.0000 266.500 5.0000 0.0000 0.0000 286.300 0.0000 0.0000 5.0000 13.400 96.300 12.823           13.620 13.250 96.900 95.800 15.373 14.804 0.569 421 696.6
DSCMET_421 2018-09-22 19:20:00 4410 182.800 5.0000 0.0000 0.0000 266.500 5.0000 0.0000 0.0000 287.700 0.0000 0.0000 5.0000 13.470 96.700 12.956           13.650 13.250 97.500 95.800 15.443 14.933 0.510 421 696.6
DSCMET_421 2018-09-22 19:15:00 4409 182.800 5.0000 0.0000 0.0000 266.500 5.0000 0.0000 0.0000 288.200 0.0000 0.0000 5.0000 13.420 96.900 12.938           13.520 13.170 97.200 96.500 15.393 14.916 0.477 421 696.6
DSCMET_421 2018-09-22 19:10:00 4408 182.900 5.0000 0.0000 0.0000 266.400 5.0000 0.0000 0.0000 289.000 0.0000 0.0000 5.0000 13.540 96.200 12.947           13.760 13.250 96.900 95.700 15.514 14.924 0.590 421 696.6
DSCMET_421 2018-09-22 19:05:00 4407 182.700 5.0000 0.0000 0.0000 266.200 5.0000 0.0000 0.0000 289.900 0.0000 0.0000 5.0000 13.780 95.000 12.993           13.910 13.630 95.800 94.600 15.758 14.970 0.788 421 696.6
DSCMET_421 2018-09-22 19:00:00 4406 182.500 5.0000 0.0000 0.0000 266.200 5.0000 0.0000 0.0000 291.900 0.0000 0.0000 5.0000 13.710 96.200 13.116           13.910 13.450 96.600 94.800 15.686 15.090 0.596 421 696.6
DSCMET_421 2018-09-22 18:55:00 4405 182.200 5.0000 0.0000 0.0000 266.200 5.0000 0.0000 0.0000 293.200 0.0000 0.0000 5.0000 13.860 95.200 13.105           14.080 13.630 96.500 94.200 15.840 15.080 0.760 421 696.6
DSCMET_421 2018-09-22 18:50:00 4404 182.500 5.0000 0.0000 0.0000 266.200 5.0000 0.0000 0.0000 295.900 0.0000 0.0000 5.0000 13.970 95.100 13.198           14.180 13.500 96.400 93.800 15.954 15.172 0.782 421 696.6
DSCMET_421 2018-09-22 18:45:00 4403 182.200 5.0000 0.0000 0.0000 266.200 5.0000 0.0000 0.0000 299.000 0.0000 0.0000 5.0000 13.860 95.900 13.217           13.990 13.580 96.400 95.200 15.840 15.191 0.649 421 696.6
DSCMET_421 2018-09-22 18:40:00 4402 182.400 5.0000 0.0000 0.0000 266.100 5.0000 0.0000 0.0000 301.900 0.0000 0.0000 5.0000 14.020 95.300 13.280           14.160 13.780 96.300 94.600 16.005 15.253 0.752 421 696.6
DSCMET_421 2018-09-22 18:35:00 4401 182.400 5.0000 0.0000 0.0000 266.500 5.0000 0.0000 0.0000 304.800 0.0000 0.0000 5.0000 14.090 95.000 13.301           14.160 13.910 95.300 94.700 16.078 15.274 0.804 421 696.6
DSCMET_421 2018-09-22 18:30:00 4400 182.800 5.0000 0.0000 0.0000 266.900 5.0000 0.0000 0.0000 308.000 0.0000 0.0000 5.0000 14.100 94.400 13.214           14.260 13.840 95.900 92.800 16.089 15.188 0.901 421 696.6
DSCMET_421 2018-09-22 18:25:00 4399 183.600 5.0000 0.0000 0.0000 267.500 5.0000 0.0000 0.0000 311.700 0.0000 0.0000 5.0000 14.260 92.600 13.078           14.360 14.090 93.200 91.900 16.256 15.053 1.203 421 696.6
DSCMET_421 2018-09-22 18:20:00 4398 184.300 5.0000 0.0000 0.0000 268.000 5.0000 0.0000 0.0000 314.100 0.0000 0.0000 5.0000 14.370 92.600 13.187           14.610 14.010 93.200 92.000 16.372 15.161 1.212 421 696.6
DSCMET_421 2018-09-22 18:15:00 4397 185.200 5.0000 0.0000 0.0000 268.700 5.0000 0.0000 0.0000 317.900 0.0000 0.0000 5.0000 14.640 91.200 13.221           14.790 14.440 92.200 90.900 16.661 15.195 1.466 421 696.6
DSCMET_421 2018-09-22 18:10:00 4396 185.800 5.0000 0.0000 0.0000 269.300 5.0000 0.0000 0.0000 321.000 0.0000 0.0000 5.0000 14.780 90.900 13.309           14.990 14.390 91.700 89.300 16.812 15.282 1.530 421 696.6
DSCMET_421 2018-09-22 18:05:00 4395 182.200 5.0000 0.0000 0.0000 267.000 5.0000 0.0000 0.0000 280.700 2.5000 0.7500 1.7500 15.040 87.700 13.017           15.230 14.870 89.000 85.700 17.096 14.993 2.103 421 696.6
DSCMET_421 2018-09-22 18:00:00 4394 180.500 5.0000 0.0000 0.0000 265.800 5.0000 0.0000 0.0000 266.700 5.0000 0.0000 0.0000 15.140 86.300 12.869           15.280 14.980 87.600 85.100 17.206 14.849 2.357 421 696.6
DSCMET_421 2018-09-22 17:55:00 4393 180.300 5.0000 0.0000 0.0000 265.600 5.0000 0.0000 0.0000 265.600 5.0000 0.0000 0.0000 15.290 85.200 12.821           15.450 15.030 86.500 84.500 17.373 14.802 2.571 421 696.6
DSCMET_421 2018-09-22 17:50:00 4392 180.200 5.0000 0.0000 0.0000 265.500 5.0000 0.0000 0.0000 264.700 5.0000 0.0000 0.0000 15.330 84.500 12.734           15.410 15.200 84.900 84.200 17.418 14.718 2.700 421 696.6
DSCMET_421 2018-09-22 17:45:00 4391 180.100 5.0000 0.0000 0.0000 265.500 5.0000 0.0000 0.0000 264.500 5.0000 0.0000 0.0000 15.490 83.600 12.727           15.610 15.360 84.400 82.800 17.597 14.711 2.886 421 696.6
DSCMET_421 2018-09-22 17:40:00 4390 180.100 5.0000 0.0000 0.0000 265.500 5.0000 0.0000 0.0000 264.500 5.0000 0.0000 0.0000 15.500 83.600 12.737           15.580 15.430 84.100 83.100 17.609 14.721 2.888 421 696.6
DSCMET_421 2018-09-22 17:35:00 4389 180.200 5.0000 0.0000 0.0000 265.400 5.0000 0.0000 0.0000 264.300 5.0000 0.0000 0.0000 15.440 83.800 12.715           15.560 15.210 84.400 83.200 17.541 14.699 2.842 421 696.6
DSCMET_421 2018-09-22 17:30:00 4388 180.200 5.0000 0.0000 0.0000 265.200 5.0000 0.0000 0.0000 264.100 5.0000 0.0000 0.0000 15.610 82.500 12.643           15.760 15.380 83.400 81.900 17.733 14.630 3.103 421 696.6
DSCMET_421 2018-09-22 17:25:00 4387 180.100 5.0000 0.0000 0.0000 265.100 5.0000 0.0000 0.0000 264.100 5.0000 0.0000 0.0000 15.720 80.900 12.452           15.810 15.580 82.000 80.200 17.859 14.448 3.411 421 696.6
DSCMET_421 2018-09-22 17:20:00 4386 179.700 5.0000 0.0000 0.0000 265.100 5.0000 0.0000 0.0000 264.100 5.0000 0.0000 0.0000 15.750 80.200 12.349           15.830 15.560 80.800 79.690 17.893 14.350 3.543 421 696.6
DSCMET_421 2018-09-22 17:15:00 4385 179.800 5.0000 0.0000 0.0000 265.000 5.0000 0.0000 0.0000 264.100 5.0000 0.0000 0.0000 15.800 80.500 12.454           15.940 15.580 80.800 80.200 17.950 14.450 3.500 421 696.6
DSCMET_421 2018-09-22 17:10:00 4384 180.300 5.0000 0.0000 0.0000 265.000 5.0000 0.0000 0.0000 263.900 5.0000 0.0000 0.0000 15.920 78.840 12.254           16.080 15.660 79.490 77.710 18.088 14.261 3.828 421 696.6
DSCMET_421 2018-09-22 17:05:00 4383 180.100 5.0000 0.0000 0.0000 264.800 5.0000 0.0000 0.0000 263.800 5.0000 0.0000 0.0000 16.120 77.120 12.113           16.260 15.830 77.740 75.700 18.321 14.129 4.192 421 696.6
DSCMET_421 2018-09-22 17:00:00 4382 180.400 5.0000 0.0000 0.0000 264.800 5.0000 0.0000 0.0000 263.800 5.0000 0.0000 0.0000 16.230 74.690 11.734           16.370 15.940 75.600 73.760 18.450 13.780 4.670 421 696.6
DSCMET_421 2018-09-22 16:55:00 4381 180.600 5.0000 0.0000 0.0000 264.800 5.0000 0.0000 0.0000 263.800 5.0000 0.0000 0.0000 16.310 74.050 11.681           16.420 16.090 75.450 73.300 18.544 13.732 4.812 421 696.6
DSCMET_421 2018-09-22 16:50:00 4380 180.500 5.0000 0.0000 0.0000 264.800 5.0000 0.0000 0.0000 263.500 5.0000 0.0000 0.0000 16.420 73.010 11.573           16.520 16.270 73.810 72.170 18.675 13.634 5.040 421 696.6
DSCMET_421 2018-09-22 16:45:00 4379 180.100 5.0000 0.0000 0.0000 264.800 5.0000 0.0000 0.0000 263.500 5.0000 0.0000 0.0000 16.480 72.330 11.489           16.670 16.260 72.560 72.000 18.746 13.559 5.187 421 696.6
DSCMET_421 2018-09-22 16:40:00 4378 180.200 5.0000 0.0000 0.0000 264.800 5.0000 0.0000 0.0000 263.400 5.0000 0.0000 0.0000 16.540 72.630 11.609           16.650 16.290 73.000 71.870 18.818 13.667 5.150 421 696.6
DSCMET_421 2018-09-22 16:35:00 4377 180.400 5.0000 0.0000 0.0000 264.700 5.0000 0.0000 0.0000 263.400 5.0000 0.0000 0.0000 16.560 71.890 11.474           16.740 16.320 72.750 71.140 18.842 13.545 5.296 421 696.6
DSCMET_421 2018-09-22 16:30:00 4376 180.400 5.0000 0.0000 0.0000 264.700 5.0000 0.0000 0.0000 263.400 5.0000 0.0000 0.0000 16.640 70.870 11.335           16.770 16.400 71.190 70.490 18.938 13.421 5.517 421 696.6
DSCMET_421 2018-09-22 16:25:00 4375 180.200 5.0000 0.0000 0.0000 264.600 5.0000 0.0000 0.0000 263.400 5.0000 0.0000 0.0000 16.700 70.390 11.290           16.800 16.600 71.150 68.510 19.010 13.381 5.629 421 696.6
DSCMET_421 2018-09-22 16:20:00 4374 180.200 5.0000 0.0000 0.0000 264.500 5.0000 0.0000 0.0000 263.400 5.0000 0.0000 0.0000 16.630 69.810 11.098           16.740 16.420 70.090 69.310 18.926 13.212 5.714 421 696.6
DSCMET_421 2018-09-22 16:15:00 4373 180.300 5.0000 0.0000 0.0000 264.400 5.0000 0.0000 0.0000 263.400 5.0000 0.0000 0.0000 16.630 68.560 10.826           16.720 16.470 69.580 67.500 18.926 12.975 5.950 421 696.6
DSCMET_421 2018-09-22 16:10:00 4372 180.300 5.0000 0.0000 0.0000 264.500 5.0000 0.0000 0.0000 263.400 5.0000 0.0000 0.0000 16.610 67.980 10.680           16.700 16.350 68.400 67.390 18.902 12.849 6.052 421 696.6
DSCMET_421 2018-09-22 16:05:00 4371 180.200 5.0000 0.0000 0.0000 264.500 5.0000 0.0000 0.0000 263.400 5.0000 0.0000 0.0000 16.600 68.450 10.774           16.720 16.400 69.290 67.300 18.890 12.930 5.960 421 696.6
DSCMET_421 2018-09-22 16:00:00 4370 180.200 5.0000 0.0000 0.0000 264.500 5.0000 0.0000 0.0000 263.400 5.0000 0.0000 0.0000 16.630 69.220 10.970           16.740 16.390 69.910 68.300 18.926 13.100 5.825 421 696.6
DSCMET_421 2018-09-22 15:55:00 4369 180.300 5.0000 0.0000 0.0000 264.500 5.0000 0.0000 0.0000 263.400 5.0000 0.0000 0.0000 16.740 68.820 10.988           16.850 16.600 69.710 68.150 19.058 13.116 5.942 421 696.6
DSCMET_421 2018-09-22 15:50:00 4368 180.200 5.0000 0.0000 0.0000 264.700 5.0000 0.0000 0.0000 263.400 5.0000 0.0000 0.0000 16.800 68.570 10.991           16.900 16.650 69.210 67.850 19.131 13.118 6.013 421 696.6
DSCMET_421 2018-09-22 15:45:00 4367 180.500 5.0000 0.0000 0.0000 264.700 5.0000 0.0000 0.0000 263.400 5.0000 0.0000 0.0000 16.820 69.010 11.106           16.930 16.520 70.470 67.950 19.155 13.219 5.936 421 696.6
DSCMET_421 2018-09-22 15:40:00 4366 180.600 5.0000 0.0000 0.0000 264.700 5.0000 0.0000 0.0000 263.400 5.0000 0.0000 0.0000 16.840 69.020 11.128           16.930 16.750 69.590 68.580 19.180 13.238 5.942 421 696.6
DSCMET_421 2018-09-22 15:35:00 4365 180.400 5.0000 0.0000 0.0000 264.600 5.0000 0.0000 0.0000 263.400 5.0000 0.0000 0.0000 16.890 67.970 10.945           17.020 16.670 69.630 66.910 19.241 13.078 6.163 421 696.6
DSCMET_421 2018-09-22 15:30:00 4364 180.400 5.0000 0.0000 0.0000 264.800 5.0000 0.0000 0.0000 263.400 5.0000 0.0000 0.0000 17.170 68.270 11.278           17.380 16.890 68.960 67.770 19.585 13.371 6.214 421 696.6
DSCMET_421 2018-09-22 15:25:00 4363 180.600 5.0000 0.0000 0.0000 264.800 5.0000 0.0000 0.0000 263.500 5.0000 0.0000 0.0000 17.210 69.210 11.523           17.400 16.920 70.570 68.230 19.635 13.589 6.046 421 696.6
DSCMET_421 2018-09-22 15:20:00 4362 180.500 5.0000 0.0000 0.0000 265.100 5.0000 0.0000 0.0000 263.800 5.0000 0.0000 0.0000 17.040 72.240 12.008           17.200 16.790 74.400 70.520 19.425 14.032 5.392 421 696.6
DSCMET_421 2018-09-22 15:15:00 4361 180.700 5.0000 0.0000 0.0000 265.200 5.0000 0.0000 0.0000 263.900 5.0000 0.0000 0.0000 16.650 74.230 12.045           17.080 16.290 75.530 71.480 18.950 14.066 4.883 421 696.6
DSCMET_421 2018-09-22 15:10:00 4360 181.400 5.0000 0.0000 0.0000 266.000 5.0000 0.0000 0.0000 264.900 5.0000 0.0000 0.0000 16.490 73.140 11.667           16.680 16.370 75.270 70.440 18.758 13.720 5.038 421 696.6
DSCMET_421 2018-09-22 15:05:00 4359 180.100 5.0000 0.0000 0.0000 265.000 5.0000 0.0000 0.0000 264.200 5.0000 0.0000 0.0000 16.680 71.170 11.437           16.770 16.390 72.010 70.090 18.986 13.512 5.474 421 696.6
DSCMET_421 2018-09-22 15:00:00 4358 179.800 5.0000 0.0000 0.0000 264.800 5.0000 0.0000 0.0000 263.400 5.0000 0.0000 0.0000 16.630 71.330 11.423           16.750 16.470 71.800 70.700 18.926 13.500 5.426 421 696.6
DSCMET_421 2018-09-22 14:55:00 4357 179.600 5.0000 0.0000 0.0000 264.800 5.0000 0.0000 0.0000 263.400 5.0000 0.0000 0.0000 16.650 71.230 11.421           16.800 16.420 71.990 70.700 18.950 13.498 5.452 421 696.6
DSCMET_421 2018-09-22 14:50:00 4356 179.700 5.0000 0.0000 0.0000 264.800 5.0000 0.0000 0.0000 263.400 5.0000 0.0000 0.0000 16.720 70.950 11.429           16.820 16.620 71.450 70.340 19.034 13.505 5.529 421 696.6
DSCMET_421 2018-09-22 14:45:00 4355 179.600 5.0000 0.0000 0.0000 264.700 5.0000 0.0000 0.0000 263.400 5.0000 0.0000 0.0000 16.770 70.710 11.425           17.000 16.580 71.450 70.070 19.095 13.502 5.593 421 696.6
DSCMET_421 2018-09-22 14:40:00 4354 179.700 5.0000 0.0000 0.0000 264.800 5.0000 0.0000 0.0000 263.500 5.0000 0.0000 0.0000 17.090 70.120 11.605           17.320 16.770 71.100 68.780 19.486 13.664 5.822 421 696.6
DSCMET_421 2018-09-22 14:35:00 4353 179.800 5.0000 0.0000 0.0000 264.800 5.0000 0.0000 0.0000 263.500 5.0000 0.0000 0.0000 16.840 71.020 11.559           17.080 16.700 71.530 70.540 19.180 13.621 5.558 421 696.6
DSCMET_421 2018-09-22 14:30:00 4352 179.600 5.0000 0.0000 0.0000 264.700 5.0000 0.0000 0.0000 263.400 5.0000 0.0000 0.0000 16.830 71.070 11.560           17.030 16.670 71.860 70.140 19.168 13.622 5.545 421 696.6
DSCMET_421 2018-09-22 14:25:00 4351 179.700 5.0000 0.0000 0.0000 264.500 5.0000 0.0000 0.0000 263.400 5.0000 0.0000 0.0000 16.800 70.950 11.505           16.970 16.600 72.130 70.260 19.131 13.574 5.558 421 696.6
DSCMET_421 2018-09-22 14:20:00 4350 179.700 5.0000 0.0000 0.0000 264.400 5.0000 0.0000 0.0000 263.500 5.0000 0.0000 0.0000 16.850 71.010 11.566           17.120 16.600 71.930 69.510 19.192 13.628 5.564 421 696.6
DSCMET_421 2018-09-22 14:15:00 4349 180.200 5.0000 0.0000 0.0000 264.400 5.0000 0.0000 0.0000 263.300 5.0000 0.0000 0.0000 17.020 68.840 11.260           17.570 16.620 71.150 66.760 19.400 13.355 6.045 421 696.6
DSCMET_421 2018-09-22 14:10:00 4348 180.400 5.0000 0.0000 0.0000 264.500 5.0000 0.0000 0.0000 263.500 5.0000 0.0000 0.0000 17.380 66.890 11.170           17.700 17.150 68.300 65.610 19.847 13.276 6.571 421 696.6
DSCMET_421 2018-09-22 14:05:00 4347 180.800 5.0000 0.0000 0.0000 264.700 5.0000 0.0000 0.0000 263.500 5.0000 0.0000 0.0000 17.300 66.870 11.090           17.650 16.970 68.720 64.900 19.747 13.205 6.542 421 696.6
DSCMET_421 2018-09-22 14:00:00 4346 180.900 5.0000 0.0000 0.0000 264.800 5.0000 0.0000 0.0000 263.700 5.0000 0.0000 0.0000 16.470 71.020 11.204           16.890 16.290 71.900 69.980 18.734 13.305 5.429 421 696.6
DSCMET_421 2018-09-22 13:55:00 4345 181.000 5.0000 0.0000 0.0000 264.600 5.0000 0.0000 0.0000 263.600 5.0000 0.0000 0.0000 16.310 71.960 11.248           16.440 16.090 72.700 71.310 18.544 13.344 5.200 421 696.6
DSCMET_421 2018-09-22 13:50:00 4344 181.200 5.0000 0.0000 0.0000 264.500 5.0000 0.0000 0.0000 263.700 5.0000 0.0000 0.0000 16.390 71.860 11.304           16.590 16.060 72.390 71.290 18.639 13.394 5.245 421 696.6
DSCMET_421 2018-09-22 13:45:00 4343 181.100 5.0000 0.0000 0.0000 265.200 5.0000 0.0000 0.0000 263.900 5.0000 0.0000 0.0000 16.340 73.400 11.576           16.590 16.080 75.620 71.440 18.580 13.638 4.942 421 696.6
DSCMET_421 2018-09-22 13:40:00 4342 181.200 5.0000 0.0000 0.0000 265.200 5.0000 0.0000 0.0000 263.900 5.0000 0.0000 0.0000 16.040 75.600 11.734           16.390 15.880 76.620 74.430 18.228 13.780 4.448 421 696.6
DSCMET_421 2018-09-22 13:35:00 4341 182.300 5.0000 0.0000 0.0000 265.200 5.0000 0.0000 0.0000 263.900 5.0000 0.0000 0.0000 16.480 72.700 11.566           16.820 16.110 74.150 71.240 18.746 13.628 5.118 421 696.6
DSCMET_421 2018-09-22 13:30:00 4340 186.000 5.0000 0.0000 0.0000 265.500 5.0000 0.0000 0.0000 264.100 5.0000 0.0000 0.0000 16.190 75.750 11.909           16.740 15.930 79.020 74.210 18.403 13.940 4.463 421 696.6
DSCMET_421 2018-09-22 13:25:00 4339 190.400 5.0000 0.0000 0.0000 265.800 5.0000 0.0000 0.0000 264.300 5.0000 0.0000 0.0000 15.960 76.920 11.918           16.080 15.830 80.800 73.510 18.135 13.949 4.185 421 696.6
DSCMET_421 2018-09-22 13:20:00 4338 193.700 5.0000 0.0000 0.0000 267.200 5.0000 0.0000 0.0000 266.600 5.0000 0.0000 0.0000 15.610 79.120 12.006           15.890 15.380 81.900 76.200 17.733 14.030 3.703 421 696.6
DSCMET_421 2018-09-22 13:15:00 4337 196.600 5.0000 0.0000 0.0000 269.800 5.0000 0.0000 0.0000 270.700 4.2500 0.7500 0.0000 15.620 77.630 11.728           15.740 15.510 80.500 75.400 17.745 13.775 3.969 421 696.6
DSCMET_421 2018-09-22 13:10:00 4336 196.500 5.0000 0.0000 0.0000 266.500 5.0000 0.0000 0.0000 265.200 5.0000 0.0000 0.0000 15.710 80.100 12.291           15.860 15.410 83.500 77.440 17.847 14.296 3.552 421 696.6
DSCMET_421 2018-09-22 13:05:00 4335 197.600 5.0000 0.0000 0.0000 266.800 5.0000 0.0000 0.0000 264.500 5.0000 0.0000 0.0000 15.530 83.900 12.821           15.690 15.350 84.600 83.100 17.642 14.802 2.840 421 696.6
DSCMET_421 2018-09-22 13:00:00 4334 198.800 5.0000 0.0000 0.0000 270.200 5.0000 0.0000 0.0000 264.900 5.0000 0.0000 0.0000 15.370 83.000 12.500           15.590 15.080 84.800 80.600 17.462 14.494 2.969 421 696.6
DSCMET_421 2018-09-22 12:55:00 4333 199.900 5.0000 0.0000 0.0000 275.000 1.2500 3.7500 0.0000 269.000 5.0000 0.0000 0.0000 15.360 82.400 12.380           15.660 15.060 84.700 79.850 17.451 14.380 3.071 421 696.6
DSCMET_421 2018-09-22 12:50:00 4332 200.700 5.0000 0.0000 0.0000 270.700 5.0000 0.0000 0.0000 267.700 5.0000 0.0000 0.0000 15.890 79.270 12.307           16.130 15.590 81.000 77.190 18.054 14.311 3.743 421 696.6
DSCMET_421 2018-09-22 12:45:00 4331 201.400 5.0000 0.0000 0.0000 270.500 5.0000 0.0000 0.0000 264.300 5.0000 0.0000 0.0000 16.180 76.630 12.074           16.340 16.020 77.260 75.650 18.391 14.093 4.298 421 696.6
DSCMET_421 2018-09-22 12:40:00 4330 202.400 5.0000 0.0000 0.0000 271.700 5.0000 0.0000 0.0000 263.800 5.0000 0.0000 0.0000 16.390 76.310 12.214           16.560 16.130 77.560 75.190 18.639 14.223 4.416 421 696.6
DSCMET_421 2018-09-22 12:35:00 4329 203.400 5.0000 0.0000 0.0000 273.400 3.7500 1.2500 0.0000 263.800 5.0000 0.0000 0.0000 16.420 76.160 12.213           16.640 16.140 77.430 75.100 18.675 14.223 4.452 421 696.6
DSCMET_421 2018-09-22 12:30:00 4328 204.900 5.0000 0.0000 0.0000 276.200 0.0000 5.0000 0.0000 263.900 5.0000 0.0000 0.0000 16.280 76.840 12.212           16.560 15.910 79.090 75.590 18.509 14.222 4.287 421 696.6
DSCMET_421 2018-09-22 12:25:00 4327 205.700 5.0000 0.0000 0.0000 279.900 0.0000 5.0000 0.0000 263.900 5.0000 0.0000 0.0000 16.120 77.140 12.117           16.230 15.940 78.080 75.840 18.321 14.133 4.188 421 696.6
DSCMET_421 2018-09-22 12:20:00 4326 206.700 5.0000 0.0000 0.0000 283.900 0.0000 2.5000 2.5000 263.800 5.0000 0.0000 0.0000 16.140 76.580 12.025           16.340 15.900 78.660 74.910 18.344 14.048 4.296 421 696.6
DSCMET_421 2018-09-22 12:15:00 4325 209.300 5.0000 0.0000 0.0000 288.300 0.0000 0.0000 5.0000 263.800 5.0000 0.0000 0.0000 16.140 77.360 12.179           16.280 15.900 77.980 76.750 18.344 14.191 4.153 421 696.6
DSCMET_421 2018-09-22 12:10:00 4324 213.500 5.0000 0.0000 0.0000 293.100 0.0000 0.0000 5.0000 263.700 5.0000 0.0000 0.0000 16.240 76.430 12.093           16.550 15.960 78.010 75.010 18.462 14.110 4.351 421 696.6
DSCMET_421 2018-09-22 12:05:00 4323 217.500 5.0000 0.0000 0.0000 301.500 0.0000 0.0000 5.0000 264.000 5.0000 0.0000 0.0000 16.790 74.510 12.237           17.230 16.310 76.540 71.780 19.119 14.246 4.873 421 696.6
DSCMET_421 2018-09-22 12:00:00 4322 221.300 5.0000 0.0000 0.0000 313.100 0.0000 0.0000 5.0000 264.300 5.0000 0.0000 0.0000 16.460 76.110 12.242           16.860 16.100 77.110 74.970 18.722 14.249 4.473 421 696.6
DSCMET_421 2018-09-22 11:55:00 4321 224.700 5.0000 0.0000 0.0000 326.800 0.0000 0.0000 5.0000 264.700 5.0000 0.0000 0.0000 16.290 78.390 12.526           16.580 16.000 81.000 74.860 18.521 14.518 4.002 421 696.6
DSCMET_421 2018-09-22 11:50:00 4320 226.500 5.0000 0.0000 0.0000 342.500 0.0000 0.0000 5.0000 264.400 5.0000 0.0000 0.0000 15.880 80.400 12.513           16.050 15.620 82.400 77.090 18.042 14.506 3.536 421 696.6
DSCMET_421 2018-09-22 11:45:00 4319 228.500 5.0000 0.0000 0.0000 359.200 0.0000 0.0000 5.0000 264.500 5.0000 0.0000 0.0000 15.840 79.740 12.349           16.020 15.620 80.900 78.650 17.996 14.350 3.646 421 696.6
DSCMET_421 2018-09-22 11:40:00 4318 230.600 5.0000 0.0000 0.0000 377.000 0.0000 0.0000 5.0000 264.700 5.0000 0.0000 0.0000 15.760 81.600 12.622           15.970 15.460 83.700 80.500 17.904 14.610 3.294 421 696.6
DSCMET_421 2018-09-22 11:35:00 4317 232.500 5.0000 0.0000 0.0000 388.500 0.0000 0.0000 5.0000 265.100 5.0000 0.0000 0.0000 15.480 86.100 13.168           15.920 15.160 87.100 83.700 17.586 15.142 2.444 421 696.6
DSCMET_421 2018-09-22 11:30:00 4316 234.100 5.0000 0.0000 0.0000 396.300 0.0000 0.0000 5.0000 265.100 5.0000 0.0000 0.0000 15.210 84.400 12.598           15.340 14.970 86.500 81.200 17.284 14.588 2.696 421 696.6
DSCMET_421 2018-09-22 11:25:00 4315 235.300 5.0000 0.0000 0.0000 402.400 0.0000 0.0000 5.0000 265.200 5.0000 0.0000 0.0000 14.990 86.200 12.704           15.120 14.890 88.100 84.900 17.041 14.689 2.352 421 696.6
DSCMET_421 2018-09-22 11:20:00 4314 237.000 5.0000 0.0000 0.0000 407.400 0.0000 0.0000 5.0000 265.200 5.0000 0.0000 0.0000 15.100 86.500 12.865           15.260 14.990 89.200 85.000 17.162 14.845 2.317 421 696.6
DSCMET_421 2018-09-22 11:15:00 4313 239.500 5.0000 0.0000 0.0000 412.800 0.0000 0.0000 5.0000 265.100 5.0000 0.0000 0.0000 14.910 86.000 12.590           15.090 14.710 87.800 84.800 16.953 14.580 2.373 421 696.6
DSCMET_421 2018-09-22 11:10:00 4312 242.500 5.0000 0.0000 0.0000 418.400 0.0000 0.0000 5.0000 265.200 5.0000 0.0000 0.0000 14.880 84.600 12.311           14.990 14.640 86.000 83.700 16.921 14.315 2.606 421 696.6
DSCMET_421 2018-09-22 11:05:00 4311 246.800 5.0000 0.0000 0.0000 423.100 0.0000 0.0000 5.0000 265.400 5.0000 0.0000 0.0000 14.700 87.300 12.613           14.910 14.510 89.000 85.600 16.725 14.601 2.124 421 696.6
DSCMET_421 2018-09-22 11:00:00 4310 249.800 5.0000 0.0000 0.0000 427.700 0.0000 0.0000 5.0000 266.000 5.0000 0.0000 0.0000 14.470 90.200 12.885           14.610 14.260 92.800 88.600 16.479 14.864 1.615 421 696.6
DSCMET_421 2018-09-22 10:55:00 4309 252.800 5.0000 0.0000 0.0000 431.200 0.0000 0.0000 5.0000 266.500 5.0000 0.0000 0.0000 14.450 89.400 12.729           14.580 14.280 91.200 87.500 16.457 14.713 1.744 421 696.6
DSCMET_421 2018-09-22 10:50:00 4308 255.400 5.0000 0.0000 0.0000 434.000 0.0000 0.0000 5.0000 265.600 5.0000 0.0000 0.0000 14.500 88.400 12.607           14.610 14.260 90.700 86.500 16.511 14.595 1.915 421 696.6
DSCMET_421 2018-09-22 10:45:00 4307 257.700 5.0000 0.0000 0.0000 436.800 0.0000 0.0000 5.0000 265.700 5.0000 0.0000 0.0000 14.450 91.000 13.000           14.560 14.200 92.400 89.800 16.457 14.976 1.481 421 696.6
DSCMET_421 2018-09-22 10:40:00 4306 260.500 5.0000 0.0000 0.0000 439.200 0.0000 0.0000 5.0000 265.600 5.0000 0.0000 0.0000 14.480 90.200 12.895           14.630 14.200 91.800 89.100 16.489 14.873 1.616 421 696.6
DSCMET_421 2018-09-22 10:35:00 4305 262.700 5.0000 0.0000 0.0000 441.800 0.0000 0.0000 5.0000 265.500 5.0000 0.0000 0.0000 14.590 88.500 12.713           14.710 14.300 90.600 87.100 16.607 14.697 1.910 421 696.6
DSCMET_421 2018-09-22 10:30:00 4304 266.000 5.0000 0.0000 0.0000 445.900 0.0000 0.0000 5.0000 265.400 5.0000 0.0000 0.0000 14.660 86.600 12.451           14.780 14.430 88.100 85.000 16.682 14.447 2.235 421 696.6
DSCMET_421 2018-09-22 10:25:00 4303 269.500 5.0000 0.0000 0.0000 449.800 0.0000 0.0000 5.0000 265.500 5.0000 0.0000 0.0000 14.540 88.400 12.646           14.700 14.300 90.800 86.600 16.553 14.633 1.920 421 696.6
DSCMET_421 2018-09-22 10:20:00 4302 273.400 3.2500 1.7500 0.0000 452.900 0.0000 0.0000 5.0000 265.600 5.0000 0.0000 0.0000 14.550 88.800 12.725           14.680 14.250 92.300 85.700 16.564 14.709 1.855 421 696.6
DSCMET_421 2018-09-22 10:15:00 4301 276.300 0.0000 5.0000 0.0000 455.500 0.0000 0.0000 5.0000 266.100 5.0000 0.0000 0.0000 14.500 90.000 12.880           14.610 14.220 91.400 87.200 16.511 14.860 1.651 421 696.6
DSCMET_421 2018-09-22 10:10:00 4300 279.200 0.0000 5.0000 0.0000 458.500 0.0000 0.0000 5.0000 267.500 5.0000 0.0000 0.0000 14.410 90.000 12.792           14.580 14.280 93.700 86.500 16.415 14.773 1.641 421 696.6
DSCMET_421 2018-09-22 10:05:00 4299 281.600 0.0000 5.0000 0.0000 461.400 0.0000 0.0000 5.0000 268.500 5.0000 0.0000 0.0000 14.360 90.900 12.894           14.550 14.230 93.700 88.700 16.362 14.873 1.489 421 696.6
DSCMET_421 2018-09-22 10:00:00 4298 284.000 0.0000 2.5000 2.5000 464.100 0.0000 0.0000 5.0000 268.400 5.0000 0.0000 0.0000 14.290 91.100 12.858           14.450 14.030 93.500 89.000 16.288 14.838 1.450 421 696.6
DSCMET_421 2018-09-22 09:55:00 4297 287.100 0.0000 0.0000 5.0000 466.500 0.0000 0.0000 5.0000 269.200 5.0000 0.0000 0.0000 14.240 90.700 12.742           14.370 13.970 92.600 89.300 16.235 14.725 1.510 421 696.6
DSCMET_421 2018-09-22 09:50:00 4296 290.200 0.0000 0.0000 5.0000 469.200 0.0000 0.0000 5.0000 270.200 5.0000 0.0000 0.0000 14.300 91.600 12.952           14.420 14.170 93.500 89.600 16.298 14.929 1.369 421 696.6
DSCMET_421 2018-09-22 09:45:00 4295 293.000 0.0000 0.0000 5.0000 472.000 0.0000 0.0000 5.0000 271.900 5.0000 0.0000 0.0000 14.170 92.700 13.006           14.300 14.080 95.800 90.200 16.162 14.982 1.180 421 696.6
DSCMET_421 2018-09-22 09:40:00 4294 295.800 0.0000 0.0000 5.0000 474.800 0.0000 0.0000 5.0000 274.300 2.0000 3.0000 0.0000 14.120 90.900 12.657           14.230 13.990 92.600 89.500 16.110 14.644 1.466 421 696.6
DSCMET_421 2018-09-22 09:35:00 4293 297.800 0.0000 0.0000 5.0000 477.400 0.0000 0.0000 5.0000 276.700 0.0000 5.0000 0.0000 14.140 91.000 12.693           14.350 13.970 94.100 87.600 16.130 14.679 1.452 421 696.6
DSCMET_421 2018-09-22 09:30:00 4292 302.600 0.0000 0.0000 5.0000 480.900 0.0000 0.0000 5.0000 279.400 0.0000 5.0000 0.0000 14.090 94.300 13.188           14.190 13.870 98.400 88.500 16.078 15.162 0.916 421 696.6
DSCMET_421 2018-09-22 09:25:00 4291 305.900 0.0000 0.0000 5.0000 483.000 0.0000 0.0000 5.0000 281.600 0.0000 5.0000 0.0000 14.110 97.600 13.736           14.270 13.920 98.300 97.100 16.099 15.713 0.386 421 696.6
DSCMET_421 2018-09-22 09:20:00 4290 308.100 0.0000 0.0000 5.0000 484.800 0.0000 0.0000 5.0000 283.000 0.0000 5.0000 0.0000 14.080 96.900 13.595           14.190 13.720 97.400 96.100 16.068 15.570 0.498 421 696.6
DSCMET_421 2018-09-22 09:15:00 4289 310.300 0.0000 0.0000 5.0000 487.400 0.0000 0.0000 5.0000 284.600 0.0000 1.2500 3.7500 14.110 95.400 13.386           14.300 13.820 96.500 94.300 16.099 15.359 0.741 421 696.6
DSCMET_421 2018-09-22 09:10:00 4288 312.800 0.0000 0.0000 5.0000 490.800 0.0000 0.0000 5.0000 287.900 0.0000 0.0000 5.0000 14.060 98.100 13.765           14.270 13.860 99.100 96.100 16.047 15.742 0.305 421 696.6
DSCMET_421 2018-09-22 09:05:00 4287 314.500 0.0000 0.0000 5.0000 494.300 0.0000 0.0000 5.0000 290.800 0.0000 0.0000 5.0000 14.050 97.600 13.676           14.170 13.940 98.800 96.600 16.037 15.652 0.385 421 696.6
DSCMET_421 2018-09-22 09:00:00 4286 314.800 0.0000 0.0000 5.0000 499.200 0.0000 0.0000 5.0000 294.900 0.0000 0.0000 5.0000 13.960 97.400 13.555           14.090 13.740 98.000 96.800 15.943 15.529 0.415 421 696.6
DSCMET_421 2018-09-22 08:55:00 4285 311.600 0.0000 0.0000 5.0000 504.600 0.0000 0.0000 5.0000 300.300 0.0000 0.0000 5.0000 13.880 97.000 13.412           14.070 13.640 97.600 96.500 15.861 15.385 0.476 421 696.6
DSCMET_421 2018-09-22 08:50:00 4284 313.100 0.0000 0.0000 5.0000 510.800 0.0000 0.0000 5.0000 306.300 0.0000 0.0000 5.0000 13.770 99.100 13.631           13.940 13.490 99.600 97.600 15.748 15.606 0.142 421 696.6
DSCMET_421 2018-09-22 08:45:00 4283 315.000 0.0000 0.0000 5.0000 516.300 0.0000 0.0000 5.0000 310.200 0.0000 0.0000 5.0000 13.750 99.200 13.627           13.890 13.520 99.500 98.700 15.727 15.601 0.126 421 696.6
DSCMET_421 2018-09-22 08:40:00 4282 314.500 0.0000 0.0000 5.0000 516.800 0.0000 0.0000 5.0000 308.400 0.0000 0.0000 5.0000 13.800 98.900 13.630           13.940 13.440 99.400 98.300 15.778 15.605 0.174 421 696.6
DSCMET_421 2018-09-22 08:35:00 4281 313.800 0.0000 0.0000 5.0000 495.700 0.0000 0.0000 5.0000 295.700 0.0000 0.0000 5.0000 13.840 99.100 13.701           13.970 13.740 99.600 98.500 15.819 15.677 0.142 421 696.6
DSCMET_421 2018-09-22 08:30:00 4280 315.300 0.0000 0.0000 5.0000 496.800 0.0000 0.0000 5.0000 295.800 0.0000 0.0000 5.0000 13.880 97.700 13.522           13.990 13.720 98.500 96.600 15.861 15.496 0.365 421 696.6
DSCMET_421 2018-09-22 08:25:00 4279 317.300 0.0000 0.0000 5.0000 500.700 0.0000 0.0000 5.0000 297.100 0.0000 0.0000 5.0000 13.810 97.400 13.405           13.990 13.610 99.000 95.700 15.789 15.378 0.411 421 696.6
DSCMET_421 2018-09-22 08:20:00 4278 320.100 0.0000 0.0000 5.0000 504.700 0.0000 0.0000 5.0000 298.600 0.0000 0.0000 5.0000 13.780 97.000 13.312           13.910 13.570 98.200 95.700 15.758 15.285 0.473 421 696.6
DSCMET_421 2018-09-22 08:15:00 4277 322.000 0.0000 0.0000 5.0000 509.400 0.0000 0.0000 5.0000 303.300 0.0000 0.0000 5.0000 13.810 97.800 13.468           13.890 13.660 99.100 96.600 15.789 15.441 0.347 421 696.6
DSCMET_421 2018-09-22 08:10:00 4276 324.000 0.0000 0.0000 5.0000 512.800 0.0000 0.0000 5.0000 310.600 0.0000 0.0000 5.0000 13.780 99.400 13.687           13.990 13.460 99.700 99.000 15.758 15.663 0.095 421 696.6
DSCMET_421 2018-09-22 08:05:00 4275 326.700 0.0000 0.0000 5.0000 517.700 0.0000 0.0000 5.0000 318.000 0.0000 0.0000 5.0000 13.800 99.000 13.645           13.990 13.660 100.000 97.800 15.778 15.621 0.158 421 696.6
DSCMET_421 2018-09-22 08:00:00 4274 329.100 0.0000 0.0000 5.0000 523.200 0.0000 0.0000 5.0000 325.600 0.0000 0.0000 5.0000 13.630 99.800 13.599           13.810 13.440 100.000 99.500 15.605 15.574 0.031 421 696.6
DSCMET_421 2018-09-22 07:55:00 4273 330.100 0.0000 0.0000 5.0000 528.000 0.0000 0.0000 5.0000 335.500 0.0000 0.0000 5.0000 13.550 100.000 13.550           13.660 13.410 100.000 100.000 15.524 15.524 0.000 421 696.6
DSCMET_421 2018-09-22 07:50:00 4272 332.600 0.0000 0.0000 5.0000 531.500 0.0000 0.0000 5.0000 348.100 0.0000 0.0000 5.0000 13.490 100.000 13.490           13.610 13.330 100.000 100.000 15.463 15.463 0.000 421 696.6
DSCMET_421 2018-09-22 07:45:00 4271 335.800 0.0000 0.0000 5.0000 535.200 0.0000 0.0000 5.0000 362.200 0.0000 0.0000 5.0000 13.500 100.000 13.500           13.630 13.280 100.000 100.000 15.473 15.473 0.000 421 696.6
DSCMET_421 2018-09-22 07:40:00 4270 341.600 0.0000 0.0000 5.0000 539.000 0.0000 0.0000 5.0000 387.800 0.0000 0.0000 5.0000 13.420 100.000 13.420           13.510 13.210 100.000 100.000 15.393 15.393 0.000 421 696.6
DSCMET_421 2018-09-22 07:35:00 4269 348.900 0.0000 0.0000 5.0000 543.900 0.0000 0.0000 5.0000 406.200 0.0000 0.0000 5.0000 13.340 100.000 13.340           13.440 13.060 100.000 99.800 15.313 15.313 0.000 421 696.6
DSCMET_421 2018-09-22 07:30:00 4268 352.200 0.0000 0.0000 5.0000 551.100 0.0000 0.0000 5.0000 416.400 0.0000 0.0000 5.0000 13.330 100.000 13.330           13.440 13.200 100.000 100.000 15.303 15.303 0.000 421 696.6
DSCMET_421 2018-09-22 07:25:00 4267 352.100 0.0000 0.0000 5.0000 557.600 0.0000 0.0000 5.0000 408.000 0.0000 0.0000 5.0000 13.190 100.000 13.190           13.300 13.050 100.000 100.000 15.164 15.164 -0.000 421 696.6
DSCMET_421 2018-09-22 07:20:00 4266 353.400 0.0000 0.0000 5.0000 555.400 0.0000 0.0000 5.0000 434.600 0.0000 0.0000 5.0000 13.310 100.000 13.310           13.480 13.030 100.000 100.000 15.283 15.283 0.000 421 696.6
DSCMET_421 2018-09-22 07:15:00 4265 351.500 0.0000 0.0000 5.0000 554.000 0.0000 0.0000 5.0000 441.700 0.0000 0.0000 5.0000 13.220 100.000 13.220           13.360 12.980 100.000 100.000 15.193 15.193 0.000 421 696.6
DSCMET_421 2018-09-22 07:10:00 4264 351.600 0.0000 0.0000 5.0000 550.700 0.0000 0.0000 5.0000 430.100 0.0000 0.0000 5.0000 13.030 100.000 13.030           13.210 12.770 100.000 100.000 15.006 15.006 0.000 421 696.6
DSCMET_421 2018-09-22 07:05:00 4263 348.800 0.0000 0.0000 5.0000 550.500 0.0000 0.0000 5.0000 430.800 0.0000 0.0000 5.0000 13.090 100.000 13.090           13.220 12.970 100.000 100.000 15.065 15.065 0.000 421 696.6
DSCMET_421 2018-09-22 07:00:00 4262 349.900 0.0000 0.0000 5.0000 537.300 0.0000 0.0000 5.0000 454.900 0.0000 0.0000 5.0000 12.820 100.000 12.820           12.970 12.670 100.000 100.000 14.801 14.801 0.000 421 696.6
DSCMET_421 2018-09-22 06:55:00 4261 340.300 0.0000 0.0000 5.0000 527.400 0.0000 0.0000 5.0000 492.300 0.0000 0.0000 5.0000 12.720 100.000 12.720           12.900 12.580 100.000 99.900 14.704 14.704 -0.000 421 696.6
DSCMET_421 2018-09-22 06:50:00 4260 323.200 0.0000 0.0000 5.0000 516.200 0.0000 0.0000 5.0000 484.200 0.0000 0.0000 5.0000 12.560 100.000 12.560           12.670 12.330 100.000 100.000 14.551 14.551 0.000 421 696.6
DSCMET_421 2018-09-22 06:45:00 4259 297.700 0.0000 0.0000 5.0000 506.200 0.0000 0.0000 5.0000 494.700 0.0000 0.0000 5.0000 12.440 100.000 12.440           12.530 12.250 100.000 99.900 14.437 14.437 0.000 421 696.6
DSCMET_421 2018-09-22 06:40:00 4258 276.400 2.0000 1.5000 1.5000 496.800 0.0000 0.0000 5.0000 504.700 0.0000 0.0000 5.0000 12.380 100.000 12.380           12.500 12.120 100.000 100.000 14.380 14.380 0.000 421 696.6
DSCMET_421 2018-09-22 06:35:00 4257 253.900 5.0000 0.0000 0.0000 471.400 0.0000 0.0000 5.0000 543.800 0.0000 0.0000 5.0000 12.410 100.000 12.410           12.520 12.200 100.000 100.000 14.408 14.408 0.000 421 696.6
DSCMET_421 2018-09-22 06:30:00 4256 243.100 5.0000 0.0000 0.0000 454.700 0.0000 0.0000 5.0000 549.500 0.0000 0.0000 5.0000 12.310 100.000 12.310           12.450 12.040 100.000 100.000 14.314 14.314 0.000 421 696.6
DSCMET_421 2018-09-22 06:25:00 4255 233.600 5.0000 0.0000 0.0000 438.200 0.0000 0.0000 5.0000 500.900 0.0000 0.0000 5.0000 12.300 100.000 12.300           12.420 12.090 100.000 100.000 14.304 14.304 0.000 421 696.6
DSCMET_421 2018-09-22 06:20:00 4254 230.600 5.0000 0.0000 0.0000 429.700 0.0000 0.0000 5.0000 518.400 0.0000 0.0000 5.0000 12.190 100.000 12.190           12.300 11.970 100.000 100.000 14.201 14.201 0.000 421 696.6
DSCMET_421 2018-09-22 06:15:00 4253 225.000 5.0000 0.0000 0.0000 420.000 0.0000 0.0000 5.0000 536.200 0.0000 0.0000 5.0000 12.240 100.000 12.240           12.350 12.020 100.000 100.000 14.248 14.248 -0.000 421 696.6
DSCMET_421 2018-09-22 06:10:00 4252 217.800 5.0000 0.0000 0.0000 402.200 0.0000 0.0000 5.0000 523.300 0.0000 0.0000 5.0000 12.180 100.000 12.180           12.270 12.000 100.000 100.000 14.192 14.192 0.000 421 696.6
DSCMET_421 2018-09-22 06:05:00 4251 215.100 5.0000 0.0000 0.0000 395.300 0.0000 0.0000 5.0000 516.200 0.0000 0.0000 5.0000 12.070 99.900 12.055           12.180 11.780 100.000 99.700 14.089 14.075 0.014 421 696.6
DSCMET_421 2018-09-22 06:00:00 4250 209.900 5.0000 0.0000 0.0000 379.400 0.0000 0.0000 5.0000 579.800 0.0000 0.0000 5.0000 12.110 99.600 12.049           12.250 11.880 99.800 99.400 14.127 14.070 0.057 421 696.6
DSCMET_421 2018-09-22 05:55:00 4249 205.200 5.0000 0.0000 0.0000 357.100 0.0000 0.0000 5.0000 560.800 0.0000 0.0000 5.0000 12.070 99.200 11.948           12.150 11.830 99.400 98.800 14.089 13.977 0.113 421 696.6
DSCMET_421 2018-09-22 05:50:00 4248 203.700 5.0000 0.0000 0.0000 347.300 0.0000 0.0000 5.0000 554.000 0.0000 0.0000 5.0000 12.060 98.800 11.877           12.200 11.800 99.100 98.600 14.080 13.911 0.169 421 696.6
DSCMET_421 2018-09-22 05:45:00 4247 202.900 5.0000 0.0000 0.0000 338.000 0.0000 0.0000 5.0000 572.300 0.0000 0.0000 5.0000 12.130 98.300 11.870           12.230 12.030 98.500 97.900 14.145 13.905 0.240 421 696.6
DSCMET_421 2018-09-22 05:40:00 4246 202.000 5.0000 0.0000 0.0000 329.500 0.0000 0.0000 5.0000 634.500 0.0000 0.0000 5.0000 12.210 97.400 11.810           12.360 12.030 98.000 96.800 14.220 13.850 0.370 421 696.6
DSCMET_421 2018-09-22 05:35:00 4245 200.000 5.0000 0.0000 0.0000 316.600 0.0000 0.0000 5.0000 633.000 0.0000 0.0000 5.0000 12.380 95.900 11.745           12.530 12.160 96.500 95.600 14.380 13.790 0.590 421 696.6
DSCMET_421 2018-09-22 05:30:00 4244 197.300 5.0000 0.0000 0.0000 309.200 0.0000 0.0000 5.0000 597.900 0.0000 0.0000 5.0000 12.380 95.000 11.602           12.550 12.160 95.900 94.200 14.380 13.661 0.719 421 696.6
DSCMET_421 2018-09-22 05:25:00 4243 192.100 5.0000 0.0000 0.0000 285.300 0.0000 2.7500 2.2500 543.200 0.0000 0.0000 5.0000 12.360 93.700 11.374           12.490 12.180 94.500 92.800 14.361 13.456 0.905 421 696.6
DSCMET_421 2018-09-22 05:20:00 4242 185.100 5.0000 0.0000 0.0000 278.500 0.0000 5.0000 0.0000 337.800 0.0000 0.0000 5.0000 12.490 92.700 11.341           12.660 12.260 93.200 91.700 14.484 13.427 1.057 421 696.6
DSCMET_421 2018-09-22 05:15:00 4241 184.400 5.0000 0.0000 0.0000 278.500 0.0000 5.0000 0.0000 297.900 0.0000 0.0000 5.0000 12.830 90.700 11.349           13.210 12.530 92.200 89.200 14.811 13.433 1.377 421 696.6
DSCMET_421 2018-09-22 05:10:00 4240 184.800 5.0000 0.0000 0.0000 278.500 0.0000 5.0000 0.0000 291.400 0.0000 0.0000 5.0000 12.940 87.500 10.916           13.170 12.660 89.200 86.200 14.918 13.053 1.865 421 696.6
DSCMET_421 2018-09-22 05:05:00 4239 184.800 5.0000 0.0000 0.0000 276.900 0.5000 4.5000 0.0000 281.600 0.7500 2.0000 2.2500 13.070 84.800 10.573           13.180 12.880 86.400 84.200 15.045 12.758 2.287 421 696.6
DSCMET_421 2018-09-22 05:00:00 4238 179.600 5.0000 0.0000 0.0000 265.100 5.0000 0.0000 0.0000 263.900 5.0000 0.0000 0.0000 13.110 83.400 10.363           13.260 12.730 84.200 82.800 15.085 12.581 2.504 421 696.6
DSCMET_421 2018-09-22 04:55:00 4237 178.300 5.0000 0.0000 0.0000 264.100 5.0000 0.0000 0.0000 263.900 5.0000 0.0000 0.0000 13.210 82.700 10.335           13.340 12.940 83.000 82.400 15.183 12.557 2.627 421 696.6
DSCMET_421 2018-09-22 04:50:00 4236 178.300 5.0000 0.0000 0.0000 264.500 5.0000 0.0000 0.0000 263.900 5.0000 0.0000 0.0000 13.400 81.900 10.375           13.520 13.240 82.400 81.700 15.373 12.590 2.782 421 696.6
DSCMET_421 2018-09-22 04:45:00 4235 178.400 5.0000 0.0000 0.0000 264.600 5.0000 0.0000 0.0000 263.700 5.0000 0.0000 0.0000 13.420 81.100 10.247           13.520 13.130 82.000 80.300 15.393 12.484 2.909 421 696.6
DSCMET_421 2018-09-22 04:40:00 4234 178.500 5.0000 0.0000 0.0000 263.900 5.0000 0.0000 0.0000 263.200 5.0000 0.0000 0.0000 13.480 80.400 10.176           13.670 13.160 81.100 79.930 15.453 12.424 3.029 421 696.6
DSCMET_421 2018-09-22 04:35:00 4233 178.300 5.0000 0.0000 0.0000 263.900 5.0000 0.0000 0.0000 263.200 5.0000 0.0000 0.0000 13.450 80.600 10.184           13.570 13.320 81.000 80.300 15.423 12.431 2.992 421 696.6
DSCMET_421 2018-09-22 04:30:00 4232 178.200 5.0000 0.0000 0.0000 263.900 5.0000 0.0000 0.0000 263.200 5.0000 0.0000 0.0000 13.390 80.700 10.144           13.520 13.140 80.900 80.400 15.363 12.398 2.965 421 696.6
DSCMET_421 2018-09-22 04:25:00 4231 177.800 5.0000 0.0000 0.0000 263.900 5.0000 0.0000 0.0000 263.200 5.0000 0.0000 0.0000 13.360 80.900 10.152           13.440 13.210 81.200 80.400 15.333 12.404 2.929 421 696.6
DSCMET_421 2018-09-22 04:20:00 4230 178.000 5.0000 0.0000 0.0000 263.900 5.0000 0.0000 0.0000 263.300 5.0000 0.0000 0.0000 13.330 80.800 10.104           13.410 13.110 80.900 80.600 15.303 12.365 2.938 421 696.6
DSCMET_421 2018-09-22 04:15:00 4229 177.900 5.0000 0.0000 0.0000 263.900 5.0000 0.0000 0.0000 264.000 5.0000 0.0000 0.0000 13.370 80.900 10.162           13.520 13.170 81.000 80.600 15.343 12.412 2.930 421 696.6
DSCMET_421 2018-09-22 04:10:00 4228 177.900 5.0000 0.0000 0.0000 263.900 5.0000 0.0000 0.0000 264.100 5.0000 0.0000 0.0000 13.400 81.300 10.265           13.520 13.160 82.000 80.800 15.373 12.498 2.875 421 696.6
DSCMET_421 2018-09-22 04:05:00 4227 178.000 5.0000 0.0000 0.0000 263.900 5.0000 0.0000 0.0000 263.300 5.0000 0.0000 0.0000 13.420 81.900 10.394           13.510 13.210 82.100 81.600 15.393 12.607 2.786 421 696.6
DSCMET_421 2018-09-22 04:00:00 4226 178.100 5.0000 0.0000 0.0000 263.900 5.0000 0.0000 0.0000 263.200 5.0000 0.0000 0.0000 13.390 81.600 10.310           13.540 13.240 82.000 81.100 15.363 12.536 2.827 421 696.6
DSCMET_421 2018-09-22 03:55:00 4225 178.000 5.0000 0.0000 0.0000 263.900 5.0000 0.0000 0.0000 263.200 5.0000 0.0000 0.0000 13.390 81.300 10.255           13.590 13.210 81.800 80.800 15.363 12.490 2.873 421 696.6
DSCMET_421 2018-09-22 03:50:00 4224 178.000 5.0000 0.0000 0.0000 263.900 5.0000 0.0000 0.0000 263.200 5.0000 0.0000 0.0000 13.460 80.700 10.212           13.570 13.260 80.900 80.300 15.433 12.454 2.979 421 696.6
DSCMET_421 2018-09-22 03:45:00 4223 178.000 5.0000 0.0000 0.0000 263.900 5.0000 0.0000 0.0000 263.200 5.0000 0.0000 0.0000 13.460 80.800 10.231           13.590 13.160 81.100 80.600 15.433 12.470 2.963 421 696.6
DSCMET_421 2018-09-22 03:40:00 4222 177.900 5.0000 0.0000 0.0000 263.900 5.0000 0.0000 0.0000 263.200 5.0000 0.0000 0.0000 13.350 80.800 10.124           13.460 13.130 81.200 80.400 15.323 12.381 2.942 421 696.6
DSCMET_421 2018-09-22 03:35:00 4221 178.000 5.0000 0.0000 0.0000 263.900 5.0000 0.0000 0.0000 263.200 5.0000 0.0000 0.0000 13.360 80.400 10.059           13.460 13.210 80.700 79.990 15.333 12.328 3.005 421 696.6
DSCMET_421 2018-09-22 03:30:00 4220 178.000 5.0000 0.0000 0.0000 263.900 5.0000 0.0000 0.0000 263.200 5.0000 0.0000 0.0000 13.420 79.820 10.010           13.560 13.110 79.950 79.630 15.393 12.287 3.106 421 696.6
DSCMET_421 2018-09-22 03:25:00 4219 177.800 5.0000 0.0000 0.0000 263.900 5.0000 0.0000 0.0000 263.200 5.0000 0.0000 0.0000 13.540 79.700 10.104           13.670 13.270 79.980 79.310 15.514 12.364 3.149 421 696.6
DSCMET_421 2018-09-22 03:20:00 4218 177.700 5.0000 0.0000 0.0000 263.900 5.0000 0.0000 0.0000 263.200 5.0000 0.0000 0.0000 13.470 79.830 10.060           13.570 13.270 80.000 79.600 15.443 12.328 3.115 421 696.6
DSCMET_421 2018-09-22 03:15:00 4217 177.900 5.0000 0.0000 0.0000 263.900 5.0000 0.0000 0.0000 263.200 5.0000 0.0000 0.0000 13.480 79.430 9.995           13.570 13.270 79.710 79.230 15.453 12.274 3.179 421 696.6
DSCMET_421 2018-09-22 03:10:00 4216 177.900 5.0000 0.0000 0.0000 263.900 5.0000 0.0000 0.0000 263.200 5.0000 0.0000 0.0000 13.490 79.290 9.978           13.610 13.390 79.480 79.050 15.463 12.261 3.202 421 696.6
DSCMET_421 2018-09-22 03:05:00 4215 177.600 5.0000 0.0000 0.0000 263.900 5.0000 0.0000 0.0000 263.200 5.0000 0.0000 0.0000 13.570 78.790 9.962           13.720 13.370 79.200 78.400 15.544 12.247 3.297 421 696.6
DSCMET_421 2018-09-22 03:00:00 4214 177.500 5.0000 0.0000 0.0000 263.900 5.0000 0.0000 0.0000 263.200 5.0000 0.0000 0.0000 13.540 79.110 9.993           13.640 13.410 79.760 78.600 15.514 12.273 3.241 421 696.6
DSCMET_421 2018-09-22 02:55:00 4213 177.700 5.0000 0.0000 0.0000 263.900 5.0000 0.0000 0.0000 263.200 5.0000 0.0000 0.0000 13.410 79.710 9.979           13.540 13.220 79.880 79.510 15.383 12.262 3.121 421 696.6
DSCMET_421 2018-09-22 02:50:00 4212 177.500 5.0000 0.0000 0.0000 263.900 5.0000 0.0000 0.0000 263.200 5.0000 0.0000 0.0000 13.490 79.370 9.993           13.620 13.370 79.930 78.780 15.463 12.273 3.190 421 696.6
DSCMET_421 2018-09-22 02:45:00 4211 178.300 5.0000 0.0000 0.0000 263.900 5.0000 0.0000 0.0000 263.200 5.0000 0.0000 0.0000 13.490 79.420 10.003           13.620 13.220 79.940 78.830 15.463 12.281 3.182 421 696.6
DSCMET_421 2018-09-22 02:40:00 4210 178.100 5.0000 0.0000 0.0000 263.900 5.0000 0.0000 0.0000 263.200 5.0000 0.0000 0.0000 13.580 79.120 10.034           13.710 13.440 79.550 78.730 15.554 12.306 3.248 421 696.6
DSCMET_421 2018-09-22 02:35:00 4209 177.800 5.0000 0.0000 0.0000 263.900 5.0000 0.0000 0.0000 263.000 5.0000 0.0000 0.0000 13.490 79.530 10.023           13.590 13.290 79.990 79.000 15.463 12.298 3.165 421 696.6
DSCMET_421 2018-09-22 02:30:00 4208 177.600 5.0000 0.0000 0.0000 263.900 5.0000 0.0000 0.0000 262.900 5.0000 0.0000 0.0000 13.380 79.940 9.993           13.540 13.140 80.100 79.630 15.353 12.273 3.080 421 696.6
DSCMET_421 2018-09-22 02:25:00 4207 177.800 5.0000 0.0000 0.0000 263.900 5.0000 0.0000 0.0000 262.900 5.0000 0.0000 0.0000 13.380 79.790 9.965           13.470 13.190 79.990 79.500 15.353 12.250 3.103 421 696.6
DSCMET_421 2018-09-22 02:20:00 4206 177.800 5.0000 0.0000 0.0000 263.900 5.0000 0.0000 0.0000 262.900 5.0000 0.0000 0.0000 13.380 79.680 9.944           13.470 13.160 79.930 79.310 15.353 12.233 3.120 421 696.6
DSCMET_421 2018-09-22 02:15:00 4205 177.900 5.0000 0.0000 0.0000 263.900 5.0000 0.0000 0.0000 262.900 5.0000 0.0000 0.0000 13.430 79.260 9.914           13.590 13.220 79.400 79.130 15.403 12.208 3.195 421 696.6
DSCMET_421 2018-09-22 02:10:00 4204 178.000 5.0000 0.0000 0.0000 263.900 5.0000 0.0000 0.0000 262.900 5.0000 0.0000 0.0000 13.460 79.150 9.923           13.590 13.270 79.410 78.870 15.433 12.215 3.218 421 696.6
DSCMET_421 2018-09-22 02:05:00 4203 177.900 5.0000 0.0000 0.0000 263.900 5.0000 0.0000 0.0000 262.900 5.0000 0.0000 0.0000 13.510 78.910 9.926           13.620 13.360 79.110 78.620 15.483 12.218 3.265 421 696.6
DSCMET_421 2018-09-22 02:00:00 4202 178.200 5.0000 0.0000 0.0000 263.900 5.0000 0.0000 0.0000 262.900 5.0000 0.0000 0.0000 13.490 79.080 9.939           13.590 13.360 79.280 78.720 15.463 12.228 3.235 421 696.6
DSCMET_421 2018-09-22 01:55:00 4201 178.000 5.0000 0.0000 0.0000 263.900 5.0000 0.0000 0.0000 262.900 5.0000 0.0000 0.0000 13.540 78.830 9.940           13.640 13.370 78.980 78.500 15.514 12.229 3.284 421 696.6
DSCMET_421 2018-09-22 01:50:00 4200 178.100 5.0000 0.0000 0.0000 263.900 5.0000 0.0000 0.0000 262.900 5.0000 0.0000 0.0000 13.530 79.490 10.055           13.660 13.240 79.990 78.830 15.504 12.324 3.180 421 696.6
DSCMET_421 2018-09-22 01:45:00 4199 178.100 5.0000 0.0000 0.0000 263.900 5.0000 0.0000 0.0000 262.900 5.0000 0.0000 0.0000 13.550 78.930 9.969           13.660 13.340 79.130 78.720 15.524 12.253 3.271 421 696.6
DSCMET_421 2018-09-22 01:40:00 4198 178.200 5.0000 0.0000 0.0000 263.900 5.0000 0.0000 0.0000 262.900 5.0000 0.0000 0.0000 13.560 78.690 9.933           13.710 13.410 79.010 78.320 15.534 12.224 3.310 421 696.6
DSCMET_421 2018-09-22 01:35:00 4197 178.400 5.0000 0.0000 0.0000 263.900 5.0000 0.0000 0.0000 262.900 5.0000 0.0000 0.0000 13.440 79.270 9.926           13.560 13.110 79.560 78.950 15.413 12.218 3.195 421 696.6
DSCMET_421 2018-09-22 01:30:00 4196 178.300 5.0000 0.0000 0.0000 263.900 5.0000 0.0000 0.0000 262.900 5.0000 0.0000 0.0000 13.570 79.020 10.005           13.710 13.290 79.330 78.770 15.544 12.283 3.261 421 696.6
DSCMET_421 2018-09-22 01:25:00 4195 178.300 5.0000 0.0000 0.0000 263.900 5.0000 0.0000 0.0000 262.900 5.0000 0.0000 0.0000 13.660 78.580 10.009           13.790 13.370 79.080 78.220 15.635 12.286 3.349 421 696.6
DSCMET_421 2018-09-22 01:20:00 4194 178.300 5.0000 0.0000 0.0000 263.900 5.0000 0.0000 0.0000 262.900 5.0000 0.0000 0.0000 13.440 79.450 9.960           13.660 13.210 79.900 78.800 15.413 12.246 3.167 421 696.6
DSCMET_421 2018-09-22 01:15:00 4193 178.100 5.0000 0.0000 0.0000 263.900 5.0000 0.0000 0.0000 262.900 5.0000 0.0000 0.0000 13.520 79.290 10.007           13.710 13.340 80.100 78.820 15.494 12.285 3.209 421 696.6
DSCMET_421 2018-09-22 01:10:00 4192 177.900 5.0000 0.0000 0.0000 263.800 5.0000 0.0000 0.0000 262.900 5.0000 0.0000 0.0000 13.430 79.470 9.954           13.560 13.140 80.000 78.820 15.403 12.241 3.162 421 696.6
DSCMET_421 2018-09-22 01:05:00 4191 177.900 5.0000 0.0000 0.0000 263.900 5.0000 0.0000 0.0000 262.900 5.0000 0.0000 0.0000 13.540 78.760 9.927           13.670 13.310 79.230 78.270 15.514 12.219 3.295 421 696.6
DSCMET_421 2018-09-22 01:00:00 4190 177.900 5.0000 0.0000 0.0000 263.800 5.0000 0.0000 0.0000 262.900 5.0000 0.0000 0.0000 13.510 78.870 9.918           13.640 13.260 79.250 78.520 15.483 12.212 3.272 421 696.6
DSCMET_421 2018-09-22 00:55:00 4189 178.100 5.0000 0.0000 0.0000 263.800 5.0000 0.0000 0.0000 262.900 5.0000 0.0000 0.0000 13.500 79.100 9.952           13.660 13.340 79.640 78.480 15.473 12.239 3.234 421 696.6
DSCMET_421 2018-09-22 00:50:00 4188 178.200 5.0000 0.0000 0.0000 263.800 5.0000 0.0000 0.0000 262.900 5.0000 0.0000 0.0000 13.440 79.520 9.973           13.590 13.320 80.200 79.100 15.413 12.256 3.157 421 696.6
DSCMET_421 2018-09-22 00:45:00 4187 178.000 5.0000 0.0000 0.0000 263.700 5.0000 0.0000 0.0000 262.900 5.0000 0.0000 0.0000 13.290 79.780 9.876           13.420 13.010 80.100 79.590 15.263 12.177 3.086 421 696.6
DSCMET_421 2018-09-22 00:40:00 4186 178.300 5.0000 0.0000 0.0000 263.500 5.0000 0.0000 0.0000 262.900 5.0000 0.0000 0.0000 13.330 79.560 9.873           13.470 13.140 79.880 79.160 15.303 12.175 3.128 421 696.6
DSCMET_421 2018-09-22 00:35:00 4185 178.200 5.0000 0.0000 0.0000 263.500 5.0000 0.0000 0.0000 262.900 5.0000 0.0000 0.0000 13.450 79.030 9.890           13.660 13.220 79.560 78.480 15.423 12.189 3.234 421 696.6
DSCMET_421 2018-09-22 00:30:00 4184 178.200 5.0000 0.0000 0.0000 263.600 5.0000 0.0000 0.0000 262.900 5.0000 0.0000 0.0000 13.510 79.140 9.969           13.720 13.260 80.400 78.500 15.483 12.254 3.230 421 696.6
DSCMET_421 2018-09-22 00:25:00 4183 178.200 5.0000 0.0000 0.0000 263.600 5.0000 0.0000 0.0000 262.900 5.0000 0.0000 0.0000 13.460 79.030 9.900           13.670 13.240 79.680 78.530 15.433 12.197 3.236 421 696.6
DSCMET_421 2018-09-22 00:20:00 4182 178.200 5.0000 0.0000 0.0000 263.500 5.0000 0.0000 0.0000 262.900 5.0000 0.0000 0.0000 13.320 79.450 9.843           13.490 13.160 80.100 78.860 15.293 12.150 3.143 421 696.6
DSCMET_421 2018-09-22 00:15:00 4181 178.000 5.0000 0.0000 0.0000 263.600 5.0000 0.0000 0.0000 262.900 5.0000 0.0000 0.0000 13.440 79.260 9.924           13.590 13.240 79.740 78.800 15.413 12.216 3.197 421 696.6
DSCMET_421 2018-09-22 00:10:00 4180 177.900 5.0000 0.0000 0.0000 263.500 5.0000 0.0000 0.0000 262.900 5.0000 0.0000 0.0000 13.560 78.450 9.887           13.720 13.310 79.300 78.020 15.534 12.186 3.348 421 696.6
DSCMET_421 2018-09-22 00:05:00 4179 177.800 5.0000 0.0000 0.0000 263.500 5.0000 0.0000 0.0000 262.700 5.0000 0.0000 0.0000 13.480 78.610 9.840           13.670 13.140 79.030 78.130 15.453 12.148 3.305 421 696.6
DSCMET_421 2018-09-22 00:00:00 4178 177.600 5.0000 0.0000 0.0000 263.500 5.0000 0.0000 0.0000 262.500 5.0000 0.0000 0.0000 13.620 78.090 9.877           13.770 13.390 78.730 77.580 15.595 12.178 3.417 421 696.6
DSCMET_421 2018-09-21 23:55:00 4177 177.400 5.0000 0.0000 0.0000 263.500 5.0000 0.0000 0.0000 262.500 5.0000 0.0000 0.0000 13.620 77.920 9.845           13.850 13.410 78.520 77.290 15.595 12.151 3.443 421 696.6
DSCMET_421 2018-09-21 23:50:00 4176 177.200 5.0000 0.0000 0.0000 263.500 5.0000 0.0000 0.0000 262.500 5.0000 0.0000 0.0000 13.690 77.580 9.847           13.840 13.440 78.030 76.940 15.666 12.154 3.512 421 696.6
DSCMET_421 2018-09-21 23:45:00 4175 177.300 5.0000 0.0000 0.0000 263.500 5.0000 0.0000 0.0000 262.500 5.0000 0.0000 0.0000 13.700 77.750 9.890           13.850 13.500 78.780 77.190 15.676 12.188 3.488 421 696.6
DSCMET_421 2018-09-21 23:40:00 4174 177.600 5.0000 0.0000 0.0000 263.500 5.0000 0.0000 0.0000 262.500 5.0000 0.0000 0.0000 13.620 78.110 9.881           13.900 13.240 79.090 76.970 15.595 12.181 3.414 421 696.6
DSCMET_421 2018-09-21 23:35:00 4173 177.600 5.0000 0.0000 0.0000 263.500 5.0000 0.0000 0.0000 262.500 5.0000 0.0000 0.0000 13.750 77.590 9.907           13.880 13.490 77.850 77.150 15.727 12.203 3.524 421 696.6
DSCMET_421 2018-09-21 23:30:00 4172 177.400 5.0000 0.0000 0.0000 263.500 5.0000 0.0000 0.0000 262.500 5.0000 0.0000 0.0000 13.720 77.410 9.844           13.880 13.440 77.860 77.070 15.697 12.151 3.546 421 696.6
DSCMET_421 2018-09-21 23:25:00 4171 177.300 5.0000 0.0000 0.0000 263.500 5.0000 0.0000 0.0000 262.500 5.0000 0.0000 0.0000 13.750 77.670 9.923           13.900 13.440 78.240 77.300 15.727 12.215 3.512 421 696.6
DSCMET_421 2018-09-21 23:20:00 4170 177.300 5.0000 0.0000 0.0000 263.500 5.0000 0.0000 0.0000 262.500 5.0000 0.0000 0.0000 13.760 77.670 9.932           13.930 13.400 78.160 77.100 15.737 12.223 3.514 421 696.6
DSCMET_421 2018-09-21 23:15:00 4169 177.400 5.0000 0.0000 0.0000 263.500 5.0000 0.0000 0.0000 262.500 5.0000 0.0000 0.0000 13.670 77.860 9.882           13.830 13.420 78.240 77.170 15.646 12.182 3.464 421 696.6
DSCMET_421 2018-09-21 23:10:00 4168 177.600 5.0000 0.0000 0.0000 263.400 5.0000 0.0000 0.0000 262.500 5.0000 0.0000 0.0000 13.830 76.870 9.846           13.980 13.650 77.080 76.550 15.809 12.152 3.657 421 696.6
DSCMET_421 2018-09-21 23:05:00 4167 177.600 5.0000 0.0000 0.0000 263.200 5.0000 0.0000 0.0000 262.500 5.0000 0.0000 0.0000 13.850 76.790 9.850           14.030 13.650 77.310 76.250 15.830 12.156 3.674 421 696.6
DSCMET_421 2018-09-21 23:00:00 4166 177.600 5.0000 0.0000 0.0000 263.200 5.0000 0.0000 0.0000 262.500 5.0000 0.0000 0.0000 13.880 76.820 9.885           14.080 13.680 77.400 76.350 15.861 12.184 3.676 421 696.6
DSCMET_421 2018-09-21 22:55:00 4165 177.600 5.0000 0.0000 0.0000 263.200 5.0000 0.0000 0.0000 262.500 5.0000 0.0000 0.0000 14.140 75.870 9.951           14.260 14.000 76.600 75.480 16.130 12.238 3.892 421 696.6
DSCMET_421 2018-09-21 22:50:00 4164 177.600 5.0000 0.0000 0.0000 263.200 5.0000 0.0000 0.0000 262.200 5.0000 0.0000 0.0000 14.210 75.440 9.933           14.340 14.050 75.870 75.100 16.204 12.224 3.980 421 696.6
DSCMET_421 2018-09-21 22:45:00 4163 177.400 5.0000 0.0000 0.0000 263.200 5.0000 0.0000 0.0000 262.200 5.0000 0.0000 0.0000 14.180 75.510 9.918           14.380 14.000 76.070 74.940 16.172 12.212 3.961 421 696.6
DSCMET_421 2018-09-21 22:40:00 4162 177.200 5.0000 0.0000 0.0000 263.200 5.0000 0.0000 0.0000 262.200 5.0000 0.0000 0.0000 14.130 75.330 9.834           14.340 13.780 75.980 74.440 16.120 12.143 3.977 421 696.6
DSCMET_421 2018-09-21 22:35:00 4161 177.100 5.0000 0.0000 0.0000 263.200 5.0000 0.0000 0.0000 262.200 5.0000 0.0000 0.0000 14.330 74.800 9.922           14.510 14.140 75.950 74.110 16.330 12.215 4.115 421 696.6
DSCMET_421 2018-09-21 22:30:00 4160 177.000 5.0000 0.0000 0.0000 263.200 5.0000 0.0000 0.0000 262.200 5.0000 0.0000 0.0000 14.480 74.270 9.961           14.640 14.220 74.750 73.940 16.489 12.247 4.243 421 696.6
DSCMET_421 2018-09-21 22:25:00 4159 176.900 5.0000 0.0000 0.0000 263.200 5.0000 0.0000 0.0000 262.200 5.0000 0.0000 0.0000 14.620 73.720 9.985           14.890 14.240 74.470 73.020 16.639 12.266 4.373 421 696.6
DSCMET_421 2018-09-21 22:20:00 4158 177.100 5.0000 0.0000 0.0000 263.200 5.0000 0.0000 0.0000 262.200 5.0000 0.0000 0.0000 14.610 73.650 9.961           14.770 14.420 74.070 73.140 16.628 12.247 4.382 421 696.6
DSCMET_421 2018-09-21 22:15:00 4157 176.900 5.0000 0.0000 0.0000 262.900 5.0000 0.0000 0.0000 262.100 5.0000 0.0000 0.0000 14.720 73.430 10.023           14.840 14.570 73.970 72.960 16.747 12.297 4.450 421 696.6
DSCMET_421 2018-09-21 22:10:00 4156 176.800 5.0000 0.0000 0.0000 262.800 5.0000 0.0000 0.0000 261.900 5.0000 0.0000 0.0000 14.790 72.660 9.933           14.990 14.570 73.120 72.090 16.823 12.223 4.599 421 696.6
DSCMET_421 2018-09-21 22:05:00 4155 176.600 5.0000 0.0000 0.0000 262.800 5.0000 0.0000 0.0000 261.800 5.0000 0.0000 0.0000 14.980 71.870 9.952           15.100 14.870 72.240 71.400 17.030 12.239 4.791 421 696.6
DSCMET_421 2018-09-21 22:00:00 4154 176.600 5.0000 0.0000 0.0000 262.800 5.0000 0.0000 0.0000 261.800 5.0000 0.0000 0.0000 15.030 71.960 10.019           15.170 14.820 72.340 71.630 17.085 12.294 4.791 421 696.6
DSCMET_421 2018-09-21 21:55:00 4153 176.800 5.0000 0.0000 0.0000 262.800 5.0000 0.0000 0.0000 261.800 5.0000 0.0000 0.0000 15.090 71.410 9.962           15.300 14.800 72.340 70.800 17.151 12.247 4.903 421 696.6
DSCMET_421 2018-09-21 21:50:00 4152 176.800 5.0000 0.0000 0.0000 262.800 5.0000 0.0000 0.0000 261.800 5.0000 0.0000 0.0000 15.330 70.100 9.916           15.530 15.090 71.030 69.440 17.418 12.210 5.208 421 696.6
DSCMET_421 2018-09-21 21:45:00 4151 176.900 5.0000 0.0000 0.0000 262.800 5.0000 0.0000 0.0000 261.800 5.0000 0.0000 0.0000 15.380 70.270 10.000           15.550 15.200 70.790 69.870 17.474 12.279 5.195 421 696.6
DSCMET_421 2018-09-21 21:40:00 4150 176.900 5.0000 0.0000 0.0000 262.800 5.0000 0.0000 0.0000 261.800 5.0000 0.0000 0.0000 15.360 70.390 10.006           15.500 15.050 70.660 70.110 17.451 12.284 5.167 421 696.6
DSCMET_421 2018-09-21 21:35:00 4149 176.900 5.0000 0.0000 0.0000 262.800 5.0000 0.0000 0.0000 261.800 5.0000 0.0000 0.0000 15.550 69.290 9.953           15.790 15.360 70.330 68.470 17.665 12.240 5.425 421 696.6
DSCMET_421 2018-09-21 21:30:00 4148 176.800 5.0000 0.0000 0.0000 262.800 5.0000 0.0000 0.0000 261.800 5.0000 0.0000 0.0000 15.470 69.800 9.986           15.760 15.200 70.460 68.250 17.575 12.267 5.308 421 696.6
DSCMET_421 2018-09-21 21:25:00 4147 177.300 5.0000 0.0000 0.0000 262.800 5.0000 0.0000 0.0000 261.500 5.0000 0.0000 0.0000 15.560 69.290 9.963           15.890 15.100 70.180 67.970 17.676 12.248 5.428 421 696.6
DSCMET_421 2018-09-21 21:20:00 4146 177.000 5.0000 0.0000 0.0000 262.700 5.0000 0.0000 0.0000 261.500 5.0000 0.0000 0.0000 15.750 68.560 9.986           16.080 15.450 69.530 67.240 17.893 12.267 5.626 421 696.6
DSCMET_421 2018-09-21 21:15:00 4145 176.900 5.0000 0.0000 0.0000 262.600 5.0000 0.0000 0.0000 261.500 5.0000 0.0000 0.0000 15.930 67.780 9.987           16.230 15.430 68.730 66.590 18.100 12.268 5.832 421 696.6
DSCMET_421 2018-09-21 21:10:00 4144 177.400 5.0000 0.0000 0.0000 262.500 5.0000 0.0000 0.0000 261.500 5.0000 0.0000 0.0000 16.270 66.420 10.009           16.720 15.610 67.950 64.680 18.497 12.286 6.211 421 696.6
DSCMET_421 2018-09-21 21:05:00 4143 177.500 5.0000 0.0000 0.0000 262.500 5.0000 0.0000 0.0000 261.500 5.0000 0.0000 0.0000 16.120 66.980 9.991           16.610 15.770 68.220 64.900 18.321 12.271 6.050 421 696.6
DSCMET_421 2018-09-21 21:00:00 4142 177.500 5.0000 0.0000 0.0000 262.400 5.0000 0.0000 0.0000 261.500 5.0000 0.0000 0.0000 16.180 66.990 10.050           16.390 15.920 67.950 65.910 18.391 12.320 6.071 421 696.6
DSCMET_421 2018-09-21 20:55:00 4141 177.500 5.0000 0.0000 0.0000 262.400 5.0000 0.0000 0.0000 261.500 5.0000 0.0000 0.0000 16.120 67.530 10.113           16.500 15.860 68.320 66.410 18.321 12.372 5.949 421 696.6
DSCMET_421 2018-09-21 20:50:00 4140 177.600 5.0000 0.0000 0.0000 262.400 5.0000 0.0000 0.0000 261.400 5.0000 0.0000 0.0000 16.300 66.540 10.064           16.690 15.760 68.370 65.010 18.532 12.331 6.201 421 696.6
DSCMET_421 2018-09-21 20:45:00 4139 177.500 5.0000 0.0000 0.0000 262.300 5.0000 0.0000 0.0000 261.400 5.0000 0.0000 0.0000 16.350 66.050 10.001           16.640 16.070 67.090 64.680 18.592 12.280 6.312 421 696.6
DSCMET_421 2018-09-21 20:40:00 4138 177.500 5.0000 0.0000 0.0000 262.100 5.0000 0.0000 0.0000 261.300 5.0000 0.0000 0.0000 16.390 65.940 10.014           16.920 16.090 67.660 63.700 18.639 12.291 6.348 421 696.6
DSCMET_421 2018-09-21 20:35:00 4137 177.200 5.0000 0.0000 0.0000 262.100 5.0000 0.0000 0.0000 261.100 5.0000 0.0000 0.0000 16.400 65.900 10.015           16.500 16.220 66.970 65.320 18.651 12.291 6.360 421 696.6
DSCMET_421 2018-09-21 20:30:00 4136 176.700 5.0000 0.0000 0.0000 262.100 5.0000 0.0000 0.0000 261.100 5.0000 0.0000 0.0000 16.530 65.050 9.945           16.900 16.040 66.170 63.780 18.806 12.233 6.573 421 696.6
DSCMET_421 2018-09-21 20:25:00 4135 176.700 5.0000 0.0000 0.0000 262.100 5.0000 0.0000 0.0000 261.100 5.0000 0.0000 0.0000 16.690 64.440 9.956           17.050 16.450 65.620 62.970 18.998 12.242 6.756 421 696.6
DSCMET_421 2018-09-21 20:20:00 4134 176.500 5.0000 0.0000 0.0000 262.100 5.0000 0.0000 0.0000 261.100 5.0000 0.0000 0.0000 16.720 64.090 9.903           16.980 16.420 64.530 63.380 19.034 12.199 6.835 421 696.6
DSCMET_421 2018-09-21 20:15:00 4133 176.700 5.0000 0.0000 0.0000 261.900 5.0000 0.0000 0.0000 261.100 5.0000 0.0000 0.0000 16.840 63.620 9.907           17.080 16.510 64.210 62.900 19.180 12.202 6.978 421 696.6
DSCMET_421 2018-09-21 20:10:00 4132 176.500 5.0000 0.0000 0.0000 261.800 5.0000 0.0000 0.0000 261.100 5.0000 0.0000 0.0000 17.060 62.180 9.773           17.360 16.790 63.300 61.470 19.449 12.093 7.356 421 696.6
DSCMET_421 2018-09-21 20:05:00 4131 176.700 5.0000 0.0000 0.0000 261.800 5.0000 0.0000 0.0000 261.100 5.0000 0.0000 0.0000 17.150 61.750 9.755           17.320 16.960 62.270 61.160 19.560 12.078 7.482 421 696.6
DSCMET_421 2018-09-21 20:00:00 4130 177.300 5.0000 0.0000 0.0000 261.700 5.0000 0.0000 0.0000 260.900 5.0000 0.0000 0.0000 17.110 61.940 9.763           17.340 16.690 62.960 60.910 19.511 12.085 7.426 421 696.6
DSCMET_421 2018-09-21 19:55:00 4129 177.100 5.0000 0.0000 0.0000 261.700 5.0000 0.0000 0.0000 260.700 5.0000 0.0000 0.0000 17.080 62.400 9.845           17.220 16.810 63.010 61.700 19.474 12.152 7.322 421 696.6
DSCMET_421 2018-09-21 19:50:00 4128 177.100 5.0000 0.0000 0.0000 261.700 5.0000 0.0000 0.0000 260.700 5.0000 0.0000 0.0000 17.410 60.390 9.668           17.550 17.220 61.620 59.710 19.885 12.008 7.876 421 696.6
DSCMET_421 2018-09-21 19:45:00 4127 177.000 5.0000 0.0000 0.0000 261.700 5.0000 0.0000 0.0000 260.700 5.0000 0.0000 0.0000 17.600 59.190 9.548           17.800 17.390 59.860 58.580 20.124 11.912 8.213 421 696.6
DSCMET_421 2018-09-21 19:40:00 4126 176.900 5.0000 0.0000 0.0000 261.700 5.0000 0.0000 0.0000 260.700 5.0000 0.0000 0.0000 17.680 58.550 9.461           17.900 17.470 58.950 58.160 20.226 11.842 8.384 421 696.6
DSCMET_421 2018-09-21 19:35:00 4125 177.100 5.0000 0.0000 0.0000 261.700 5.0000 0.0000 0.0000 260.600 5.0000 0.0000 0.0000 17.810 58.640 9.606           18.050 17.320 58.940 58.300 20.393 11.958 8.434 421 696.6
DSCMET_421 2018-09-21 19:30:00 4124 177.000 5.0000 0.0000 0.0000 261.600 5.0000 0.0000 0.0000 260.400 5.0000 0.0000 0.0000 17.910 58.170 9.580           18.180 17.580 58.840 57.220 20.521 11.937 8.584 421 696.6
DSCMET_421 2018-09-21 19:25:00 4123 177.200 5.0000 0.0000 0.0000 261.400 5.0000 0.0000 0.0000 260.400 5.0000 0.0000 0.0000 18.100 57.580 9.606           18.240 17.980 58.210 57.180 20.768 11.958 8.810 421 696.6
DSCMET_421 2018-09-21 19:20:00 4122 176.900 5.0000 0.0000 0.0000 261.400 5.0000 0.0000 0.0000 260.400 5.0000 0.0000 0.0000 18.210 56.540 9.438           18.360 17.890 57.600 55.790 20.912 11.824 9.088 421 696.6
DSCMET_421 2018-09-21 19:15:00 4121 176.100 5.0000 0.0000 0.0000 261.400 5.0000 0.0000 0.0000 260.400 5.0000 0.0000 0.0000 18.560 54.640 9.256           18.710 18.290 56.650 53.830 21.376 11.680 9.696 421 696.6
DSCMET_421 2018-09-21 19:10:00 4120 176.000 5.0000 0.0000 0.0000 261.400 5.0000 0.0000 0.0000 260.400 5.0000 0.0000 0.0000 18.590 54.710 9.303           18.770 18.220 55.590 53.810 21.416 11.717 9.699 421 696.6
DSCMET_421 2018-09-21 19:05:00 4119 176.100 5.0000 0.0000 0.0000 261.400 5.0000 0.0000 0.0000 260.100 5.0000 0.0000 0.0000 18.950 53.820 9.393           19.250 18.740 54.560 52.750 21.903 11.788 10.115 421 696.6
DSCMET_421 2018-09-21 19:00:00 4118 176.200 5.0000 0.0000 0.0000 261.300 5.0000 0.0000 0.0000 260.000 5.0000 0.0000 0.0000 19.170 52.700 9.285           19.280 19.020 53.070 52.340 22.206 11.702 10.503 421 696.6
DSCMET_421 2018-09-21 18:55:00 4117 175.600 5.0000 0.0000 0.0000 261.300 5.0000 0.0000 0.0000 260.000 5.0000 0.0000 0.0000 19.290 52.090 9.223           19.530 19.120 52.670 51.160 22.372 11.654 10.719 421 696.6
DSCMET_421 2018-09-21 18:50:00 4116 175.700 5.0000 0.0000 0.0000 261.300 5.0000 0.0000 0.0000 260.000 5.0000 0.0000 0.0000 19.710 50.470 9.141           19.990 19.220 50.940 49.810 22.964 11.590 11.374 421 696.6
DSCMET_421 2018-09-21 18:45:00 4115 175.600 5.0000 0.0000 0.0000 261.300 5.0000 0.0000 0.0000 260.000 5.0000 0.0000 0.0000 19.990 49.370 9.072           20.160 19.840 50.030 48.520 23.366 11.536 11.830 421 696.6
DSCMET_421 2018-09-21 18:40:00 4114 175.300 5.0000 0.0000 0.0000 261.300 5.0000 0.0000 0.0000 260.000 5.0000 0.0000 0.0000 20.130 48.570 8.958           20.290 19.930 49.100 48.150 23.569 11.447 12.122 421 696.6
DSCMET_421 2018-09-21 18:35:00 4113 176.000 5.0000 0.0000 0.0000 261.300 5.0000 0.0000 0.0000 260.000 5.0000 0.0000 0.0000 20.210 48.290 8.946           20.510 19.760 48.980 47.060 23.686 11.438 12.248 421 696.6
DSCMET_421 2018-09-21 18:30:00 4112 175.900 5.0000 0.0000 0.0000 261.300 5.0000 0.0000 0.0000 260.000 5.0000 0.0000 0.0000 20.230 47.600 8.751           20.450 19.970 48.730 46.610 23.715 11.288 12.427 421 696.6
DSCMET_421 2018-09-21 18:25:00 4111 175.900 5.0000 0.0000 0.0000 261.300 5.0000 0.0000 0.0000 260.000 5.0000 0.0000 0.0000 20.420 47.120 8.775           20.720 20.120 48.080 46.040 23.995 11.306 12.689 421 696.6
DSCMET_421 2018-09-21 18:20:00 4110 176.100 5.0000 0.0000 0.0000 261.300 5.0000 0.0000 0.0000 260.000 5.0000 0.0000 0.0000 20.540 46.390 8.654           20.820 20.170 47.300 45.610 24.173 11.214 12.959 421 696.6
DSCMET_421 2018-09-21 18:15:00 4109 176.100 5.0000 0.0000 0.0000 261.000 5.0000 0.0000 0.0000 259.900 5.0000 0.0000 0.0000 20.670 45.970 8.638           21.080 20.380 47.370 44.470 24.368 11.202 13.166 421 696.6
DSCMET_421 2018-09-21 18:10:00 4108 176.100 5.0000 0.0000 0.0000 261.000 5.0000 0.0000 0.0000 259.700 5.0000 0.0000 0.0000 20.910 45.650 8.753           21.160 20.600 46.620 44.200 24.730 11.289 13.441 421 696.6
DSCMET_421 2018-09-21 18:05:00 4107 175.900 5.0000 0.0000 0.0000 261.000 5.0000 0.0000 0.0000 259.700 5.0000 0.0000 0.0000 21.140 44.550 8.601           21.840 20.810 46.310 41.960 25.082 11.174 13.908 421 696.6
DSCMET_421 2018-09-21 18:00:00 4106 175.700 5.0000 0.0000 0.0000 261.000 5.0000 0.0000 0.0000 259.700 5.0000 0.0000 0.0000 21.270 43.310 8.302           21.770 20.850 44.710 41.480 25.283 10.950 14.333 421 696.6
DSCMET_421 2018-09-21 17:55:00 4105 175.900 5.0000 0.0000 0.0000 261.000 5.0000 0.0000 0.0000 259.500 5.0000 0.0000 0.0000 21.290 43.830 8.496           21.460 21.130 44.530 42.860 25.314 11.095 14.219 421 696.6
DSCMET_421 2018-09-21 17:50:00 4104 175.900 5.0000 0.0000 0.0000 260.900 5.0000 0.0000 0.0000 259.400 5.0000 0.0000 0.0000 21.730 42.780 8.536           22.300 21.170 44.830 40.170 26.004 11.125 14.880 421 696.6
DSCMET_421 2018-09-21 17:45:00 4103 175.500 5.0000 0.0000 0.0000 260.600 5.0000 0.0000 0.0000 259.300 5.0000 0.0000 0.0000 21.990 40.670 8.025           22.230 21.780 41.910 40.100 26.420 10.745 15.675 421 696.6
DSCMET_421 2018-09-21 17:40:00 4102 175.500 5.0000 0.0000 0.0000 260.700 5.0000 0.0000 0.0000 259.300 5.0000 0.0000 0.0000 22.480 39.210 7.926           22.660 22.270 40.470 38.690 27.220 10.673 16.547 421 696.6
DSCMET_421 2018-09-21 17:35:00 4101 175.700 5.0000 0.0000 0.0000 260.900 5.0000 0.0000 0.0000 259.300 5.0000 0.0000 0.0000 22.510 38.660 7.745           22.930 22.310 39.210 37.400 27.269 10.542 16.727 421 696.6
DSCMET_421 2018-09-21 17:30:00 4100 175.900 5.0000 0.0000 0.0000 260.900 5.0000 0.0000 0.0000 259.300 5.0000 0.0000 0.0000 22.910 37.590 7.689           23.040 22.680 38.330 37.070 27.938 10.502 17.436 421 696.6
DSCMET_421 2018-09-21 17:25:00 4099 176.000 5.0000 0.0000 0.0000 260.900 5.0000 0.0000 0.0000 259.300 5.0000 0.0000 0.0000 22.990 37.230 7.619           23.220 22.860 37.660 37.030 28.074 10.452 17.622 421 696.6
DSCMET_421 2018-09-21 17:20:00 4098 176.100 5.0000 0.0000 0.0000 260.900 5.0000 0.0000 0.0000 259.300 5.0000 0.0000 0.0000 23.220 36.250 7.432           23.360 23.110 36.830 35.410 28.467 10.319 18.148 421 696.6
DSCMET_421 2018-09-21 17:15:00 4097 176.000 5.0000 0.0000 0.0000 260.900 5.0000 0.0000 0.0000 259.300 5.0000 0.0000 0.0000 23.360 35.920 7.422           23.490 23.120 36.600 35.340 28.708 10.312 18.396 421 696.6
DSCMET_421 2018-09-21 17:10:00 4096 176.000 5.0000 0.0000 0.0000 260.900 5.0000 0.0000 0.0000 259.300 5.0000 0.0000 0.0000 23.480 35.600 7.397           23.640 23.300 36.380 34.350 28.917 10.294 18.622 421 696.6
DSCMET_421 2018-09-21 17:05:00 4095 175.800 5.0000 0.0000 0.0000 260.900 5.0000 0.0000 0.0000 259.200 5.0000 0.0000 0.0000 23.660 34.530 7.110           23.830 23.490 35.210 33.720 29.232 10.094 19.138 421 696.6
DSCMET_421 2018-09-21 17:00:00 4094 175.900 5.0000 0.0000 0.0000 260.800 5.0000 0.0000 0.0000 259.200 5.0000 0.0000 0.0000 23.810 33.730 6.900           23.970 23.520 35.540 32.690 29.497 9.949 19.548 421 696.6
DSCMET_421 2018-09-21 16:55:00 4093 176.000 5.0000 0.0000 0.0000 260.600 5.0000 0.0000 0.0000 259.200 5.0000 0.0000 0.0000 23.780 34.470 7.190           24.010 23.580 36.080 33.250 29.444 10.149 19.295 421 696.6
DSCMET_421 2018-09-21 16:50:00 4092 176.100 5.0000 0.0000 0.0000 260.600 5.0000 0.0000 0.0000 259.200 5.0000 0.0000 0.0000 23.940 33.860 7.070           24.160 23.670 36.930 31.720 29.728 10.066 19.662 421 696.6
DSCMET_421 2018-09-21 16:45:00 4091 176.300 5.0000 0.0000 0.0000 260.600 5.0000 0.0000 0.0000 259.200 5.0000 0.0000 0.0000 24.090 33.620 7.097           24.210 23.830 34.920 32.770 29.997 10.085 19.912 421 696.6
DSCMET_421 2018-09-21 16:40:00 4090 176.300 5.0000 0.0000 0.0000 260.600 5.0000 0.0000 0.0000 259.200 5.0000 0.0000 0.0000 24.230 33.220 7.045           24.360 23.950 34.030 32.500 30.250 10.049 20.201 421 696.6
DSCMET_421 2018-09-21 16:35:00 4089 175.900 5.0000 0.0000 0.0000 260.500 5.0000 0.0000 0.0000 259.200 5.0000 0.0000 0.0000 24.290 33.340 7.150           24.440 24.130 35.650 32.400 30.359 10.122 20.237 421 696.6
DSCMET_421 2018-09-21 16:30:00 4088 176.100 5.0000 0.0000 0.0000 260.500 5.0000 0.0000 0.0000 259.200 5.0000 0.0000 0.0000 24.450 34.080 7.611           24.720 24.140 37.310 32.470 30.651 10.446 20.205 421 696.6
DSCMET_421 2018-09-21 16:25:00 4087 176.200 5.0000 0.0000 0.0000 260.500 5.0000 0.0000 0.0000 259.200 5.0000 0.0000 0.0000 24.770 31.700 6.833           24.900 24.560 32.440 30.810 31.242 9.904 21.339 421 696.6
DSCMET_421 2018-09-21 16:20:00 4086 176.200 5.0000 0.0000 0.0000 260.800 5.0000 0.0000 0.0000 259.200 5.0000 0.0000 0.0000 24.840 32.450 7.235           24.940 24.640 33.110 31.740 31.373 10.181 21.193 421 696.6
DSCMET_421 2018-09-21 16:15:00 4085 176.400 5.0000 0.0000 0.0000 260.900 5.0000 0.0000 0.0000 259.200 5.0000 0.0000 0.0000 24.890 33.330 7.669           25.080 24.720 34.140 32.200 31.467 10.488 20.979 421 696.6
DSCMET_421 2018-09-21 16:10:00 4084 176.400 5.0000 0.0000 0.0000 260.900 5.0000 0.0000 0.0000 259.200 5.0000 0.0000 0.0000 25.160 32.170 7.386           25.270 24.940 32.730 31.570 31.977 10.287 21.690 421 696.6
DSCMET_421 2018-09-21 16:05:00 4083 176.300 5.0000 0.0000 0.0000 260.900 5.0000 0.0000 0.0000 259.200 5.0000 0.0000 0.0000 25.360 31.720 7.354           25.570 25.030 32.980 30.830 32.359 10.264 22.095 421 696.6
DSCMET_421 2018-09-21 16:00:00 4082 176.100 5.0000 0.0000 0.0000 260.900 5.0000 0.0000 0.0000 259.200 5.0000 0.0000 0.0000 25.680 31.010 7.301           25.910 25.420 31.410 30.310 32.979 10.227 22.753 421 696.6
DSCMET_421 2018-09-21 15:55:00 4081 176.100 5.0000 0.0000 0.0000 260.700 5.0000 0.0000 0.0000 259.200 5.0000 0.0000 0.0000 25.730 30.750 7.221           25.950 25.460 31.240 30.180 33.077 10.171 22.906 421 696.6
DSCMET_421 2018-09-21 15:50:00 4080 176.100 5.0000 0.0000 0.0000 260.700 5.0000 0.0000 0.0000 259.100 5.0000 0.0000 0.0000 26.030 29.000 6.627           26.290 25.900 31.120 27.960 33.670 9.764 23.905 421 696.6
DSCMET_421 2018-09-21 15:45:00 4079 176.000 5.0000 0.0000 0.0000 260.800 5.0000 0.0000 0.0000 259.200 5.0000 0.0000 0.0000 26.050 29.360 6.823           26.180 25.730 30.680 28.510 33.709 9.897 23.812 421 696.6
DSCMET_421 2018-09-21 15:40:00 4078 176.400 5.0000 0.0000 0.0000 260.600 5.0000 0.0000 0.0000 259.200 5.0000 0.0000 0.0000 26.020 29.550 6.891           26.180 25.790 31.970 28.470 33.650 9.943 23.706 421 696.6
DSCMET_421 2018-09-21 15:35:00 4077 176.200 5.0000 0.0000 0.0000 260.500 5.0000 0.0000 0.0000 259.100 5.0000 0.0000 0.0000 26.170 28.810 6.652           26.260 26.040 31.410 27.590 33.949 9.781 24.168 421 696.6
DSCMET_421 2018-09-21 15:30:00 4076 176.100 5.0000 0.0000 0.0000 260.500 5.0000 0.0000 0.0000 259.100 5.0000 0.0000 0.0000 26.230 28.580 6.587           26.360 26.120 29.910 27.480 34.070 9.737 24.333 421 696.6
DSCMET_421 2018-09-21 15:25:00 4075 175.800 5.0000 0.0000 0.0000 260.500 5.0000 0.0000 0.0000 259.000 5.0000 0.0000 0.0000 26.250 28.060 6.337           26.440 25.970 29.100 27.440 34.110 9.571 24.539 421 696.6
DSCMET_421 2018-09-21 15:20:00 4074 175.400 5.0000 0.0000 0.0000 260.600 5.0000 0.0000 0.0000 259.000 5.0000 0.0000 0.0000 26.400 27.840 6.352           26.600 26.220 28.400 27.200 34.413 9.581 24.832 421 696.6
DSCMET_421 2018-09-21 15:15:00 4073 175.400 5.0000 0.0000 0.0000 260.800 5.0000 0.0000 0.0000 259.200 5.0000 0.0000 0.0000 26.520 27.480 6.265           26.700 26.370 27.960 26.980 34.657 9.524 25.133 421 696.6
DSCMET_421 2018-09-21 15:10:00 4072 175.700 5.0000 0.0000 0.0000 260.500 5.0000 0.0000 0.0000 259.200 5.0000 0.0000 0.0000 26.600 28.000 6.605           26.740 26.500 28.980 27.280 34.821 9.750 25.071 421 696.6
DSCMET_421 2018-09-21 15:05:00 4071 175.700 5.0000 0.0000 0.0000 260.800 5.0000 0.0000 0.0000 259.200 5.0000 0.0000 0.0000 26.680 27.730 6.533           26.890 26.440 29.270 26.750 34.985 9.701 25.284 421 696.6
DSCMET_421 2018-09-21 15:00:00 4070 175.900 5.0000 0.0000 0.0000 260.800 5.0000 0.0000 0.0000 259.200 5.0000 0.0000 0.0000 26.500 28.110 6.577           26.770 26.210 29.230 27.190 34.616 9.731 24.886 421 696.6
DSCMET_421 2018-09-21 14:55:00 4069 175.600 5.0000 0.0000 0.0000 260.500 5.0000 0.0000 0.0000 259.000 5.0000 0.0000 0.0000 26.390 27.350 6.086           26.790 26.190 28.490 25.500 34.393 9.406 24.986 421 696.6
DSCMET_421 2018-09-21 14:50:00 4068 175.800 5.0000 0.0000 0.0000 260.500 5.0000 0.0000 0.0000 259.200 5.0000 0.0000 0.0000 26.860 27.170 6.391           27.080 26.650 28.120 26.270 35.357 9.606 25.750 421 696.6
DSCMET_421 2018-09-21 14:45:00 4067 176.600 5.0000 0.0000 0.0000 260.600 5.0000 0.0000 0.0000 259.200 5.0000 0.0000 0.0000 26.920 26.740 6.211           27.230 26.520 27.360 26.070 35.482 9.488 25.994 421 696.6
DSCMET_421 2018-09-21 14:40:00 4066 176.600 5.0000 0.0000 0.0000 260.800 5.0000 0.0000 0.0000 259.200 5.0000 0.0000 0.0000 26.910 26.960 6.321           27.280 26.690 27.630 26.270 35.461 9.560 25.901 421 696.6
DSCMET_421 2018-09-21 14:35:00 4065 176.600 5.0000 0.0000 0.0000 260.800 5.0000 0.0000 0.0000 259.200 5.0000 0.0000 0.0000 27.080 26.650 6.298           27.370 26.840 27.990 25.890 35.816 9.545 26.271 421 696.6
DSCMET_421 2018-09-21 14:30:00 4064 176.500 5.0000 0.0000 0.0000 260.800 5.0000 0.0000 0.0000 259.200 5.0000 0.0000 0.0000 27.030 27.010 6.450           27.250 26.890 27.540 26.250 35.711 9.646 26.066 421 696.6
DSCMET_421 2018-09-21 14:25:00 4063 176.800 5.0000 0.0000 0.0000 260.600 5.0000 0.0000 0.0000 259.200 5.0000 0.0000 0.0000 27.050 26.930 6.424           27.250 26.810 27.830 26.270 35.753 9.628 26.125 421 696.6
DSCMET_421 2018-09-21 14:20:00 4062 177.000 5.0000 0.0000 0.0000 260.900 5.0000 0.0000 0.0000 259.200 5.0000 0.0000 0.0000 26.980 26.980 6.391           27.370 26.640 27.510 26.300 35.607 9.607 26.000 421 696.6
DSCMET_421 2018-09-21 14:15:00 4061 177.100 5.0000 0.0000 0.0000 260.900 5.0000 0.0000 0.0000 259.200 5.0000 0.0000 0.0000 26.800 27.300 6.409           27.010 26.520 28.310 26.550 35.232 9.618 25.614 421 696.6
DSCMET_421 2018-09-21 14:10:00 4060 177.300 5.0000 0.0000 0.0000 260.600 5.0000 0.0000 0.0000 259.200 5.0000 0.0000 0.0000 26.860 26.650 6.111           27.220 26.640 27.280 26.150 35.357 9.423 25.934 421 696.6
DSCMET_421 2018-09-21 14:05:00 4059 177.100 5.0000 0.0000 0.0000 260.400 5.0000 0.0000 0.0000 259.200 5.0000 0.0000 0.0000 27.090 26.490 6.219           27.370 26.810 27.150 25.840 35.837 9.493 26.344 421 696.6
DSCMET_421 2018-09-21 14:00:00 4058 177.100 5.0000 0.0000 0.0000 260.300 5.0000 0.0000 0.0000 259.200 5.0000 0.0000 0.0000 27.000 26.710 6.262           27.260 26.690 27.610 25.760 35.649 9.522 26.127 421 696.6
DSCMET_421 2018-09-21 13:55:00 4057 177.400 5.0000 0.0000 0.0000 259.900 5.0000 0.0000 0.0000 259.200 5.0000 0.0000 0.0000 26.950 26.700 6.214           27.310 26.640 27.680 26.090 35.544 9.490 26.054 421 696.6
DSCMET_421 2018-09-21 13:50:00 4056 177.300 5.0000 0.0000 0.0000 259.900 5.0000 0.0000 0.0000 259.200 5.0000 0.0000 0.0000 27.230 26.200 6.178           27.570 26.940 27.100 25.410 36.132 9.467 26.666 421 696.6
DSCMET_421 2018-09-21 13:45:00 4055 177.500 5.0000 0.0000 0.0000 260.100 5.0000 0.0000 0.0000 259.400 5.0000 0.0000 0.0000 27.450 25.620 6.041           27.770 26.860 26.240 24.610 36.601 9.377 27.223 421 696.6
DSCMET_421 2018-09-21 13:40:00 4054 177.500 5.0000 0.0000 0.0000 260.300 5.0000 0.0000 0.0000 259.300 5.0000 0.0000 0.0000 26.860 25.870 5.682           27.390 26.530 26.400 25.260 35.357 9.147 26.210 421 696.6
DSCMET_421 2018-09-21 13:35:00 4053 177.700 5.0000 0.0000 0.0000 260.600 5.0000 0.0000 0.0000 259.300 5.0000 0.0000 0.0000 26.840 25.960 5.715           27.130 26.650 26.700 25.190 35.315 9.168 26.147 421 696.6
DSCMET_421 2018-09-21 13:30:00 4052 177.800 5.0000 0.0000 0.0000 260.700 5.0000 0.0000 0.0000 259.400 5.0000 0.0000 0.0000 26.880 26.250 5.909           27.360 26.550 27.170 25.380 35.398 9.292 26.106 421 696.6
DSCMET_421 2018-09-21 13:25:00 4051 178.100 5.0000 0.0000 0.0000 261.100 5.0000 0.0000 0.0000 259.500 5.0000 0.0000 0.0000 26.680 26.410 5.828           27.050 26.270 27.480 25.530 34.985 9.239 25.745 421 696.6
DSCMET_421 2018-09-21 13:20:00 4050 178.500 5.0000 0.0000 0.0000 261.500 5.0000 0.0000 0.0000 259.500 5.0000 0.0000 0.0000 26.660 26.650 5.941           26.910 26.430 27.630 25.610 34.944 9.312 25.631 421 696.6
DSCMET_421 2018-09-21 13:15:00 4049 178.200 5.0000 0.0000 0.0000 261.500 5.0000 0.0000 0.0000 259.600 5.0000 0.0000 0.0000 26.740 27.740 6.590           26.980 26.510 28.840 26.670 35.108 9.739 25.369 421 696.6
DSCMET_421 2018-09-21 13:10:00 4048 177.800 5.0000 0.0000 0.0000 261.600 5.0000 0.0000 0.0000 259.800 5.0000 0.0000 0.0000 26.770 27.940 6.719           26.960 26.480 28.590 27.280 35.170 9.827 25.344 421 696.6
DSCMET_421 2018-09-21 13:05:00 4047 177.800 5.0000 0.0000 0.0000 261.500 5.0000 0.0000 0.0000 259.600 5.0000 0.0000 0.0000 26.540 28.060 6.585           26.830 26.300 29.850 26.140 34.698 9.736 24.962 421 696.6
DSCMET_421 2018-09-21 13:00:00 4046 178.500 5.0000 0.0000 0.0000 261.700 5.0000 0.0000 0.0000 259.900 5.0000 0.0000 0.0000 26.510 29.420 7.248           26.800 26.130 31.030 27.780 34.637 10.190 24.447 421 696.6
DSCMET_421 2018-09-21 12:55:00 4045 178.600 5.0000 0.0000 0.0000 261.800 5.0000 0.0000 0.0000 259.700 5.0000 0.0000 0.0000 26.000 29.190 6.696           26.380 25.750 30.430 28.460 33.610 9.811 23.799 421 696.6
DSCMET_421 2018-09-21 12:50:00 4044 178.000 5.0000 0.0000 0.0000 261.700 5.0000 0.0000 0.0000 259.700 5.0000 0.0000 0.0000 25.590 29.690 6.590           25.870 25.300 31.690 28.660 32.804 9.740 23.064 421 696.6
DSCMET_421 2018-09-21 12:45:00 4043 178.100 5.0000 0.0000 0.0000 261.600 5.0000 0.0000 0.0000 259.600 5.0000 0.0000 0.0000 25.480 29.740 6.520           25.650 25.060 31.480 28.560 32.591 9.692 22.898 421 696.6
DSCMET_421 2018-09-21 12:40:00 4042 178.000 5.0000 0.0000 0.0000 261.700 5.0000 0.0000 0.0000 259.600 5.0000 0.0000 0.0000 25.640 29.850 6.711           25.720 25.520 32.500 28.790 32.901 9.821 23.080 421 696.6
DSCMET_421 2018-09-21 12:35:00 4041 178.200 5.0000 0.0000 0.0000 261.900 5.0000 0.0000 0.0000 259.700 5.0000 0.0000 0.0000 25.620 30.470 6.993           25.820 25.450 34.240 29.220 32.862 10.013 22.849 421 696.6
DSCMET_421 2018-09-21 12:30:00 4040 178.400 5.0000 0.0000 0.0000 261.700 5.0000 0.0000 0.0000 259.700 5.0000 0.0000 0.0000 25.620 30.400 6.960           25.720 25.460 32.770 28.910 32.862 9.990 22.872 421 696.6
DSCMET_421 2018-09-21 12:25:00 4039 179.100 5.0000 0.0000 0.0000 261.600 5.0000 0.0000 0.0000 259.700 5.0000 0.0000 0.0000 25.800 30.370 7.100           25.970 25.590 32.090 29.410 33.215 10.087 23.127 421 696.6
DSCMET_421 2018-09-21 12:20:00 4038 179.300 5.0000 0.0000 0.0000 261.800 5.0000 0.0000 0.0000 259.800 5.0000 0.0000 0.0000 25.980 29.300 6.733           26.140 25.820 30.380 28.580 33.570 9.836 23.734 421 696.6
DSCMET_421 2018-09-21 12:15:00 4037 179.000 5.0000 0.0000 0.0000 261.800 5.0000 0.0000 0.0000 259.900 5.0000 0.0000 0.0000 25.590 31.030 7.233           25.860 25.430 35.990 28.780 32.804 10.179 22.625 421 696.6
DSCMET_421 2018-09-21 12:10:00 4036 178.200 5.0000 0.0000 0.0000 261.800 5.0000 0.0000 0.0000 259.900 5.0000 0.0000 0.0000 25.510 30.900 7.102           25.690 25.290 34.050 28.100 32.649 10.088 22.560 421 696.6
DSCMET_421 2018-09-21 12:05:00 4035 177.900 5.0000 0.0000 0.0000 261.900 5.0000 0.0000 0.0000 260.100 5.0000 0.0000 0.0000 25.060 33.950 8.088           25.410 24.620 38.610 30.120 31.787 10.792 20.995 421 696.6
DSCMET_421 2018-09-21 12:00:00 4034 177.600 5.0000 0.0000 0.0000 261.900 5.0000 0.0000 0.0000 260.000 5.0000 0.0000 0.0000 24.770 35.220 8.374           24.900 24.650 38.130 32.690 31.242 11.004 20.239 421 696.6
DSCMET_421 2018-09-21 11:55:00 4033 178.300 5.0000 0.0000 0.0000 261.900 5.0000 0.0000 0.0000 259.500 5.0000 0.0000 0.0000 24.720 33.840 7.743           24.870 24.540 36.190 31.080 31.149 10.541 20.608 421 696.6
DSCMET_421 2018-09-21 11:50:00 4032 178.500 5.0000 0.0000 0.0000 261.900 5.0000 0.0000 0.0000 259.400 5.0000 0.0000 0.0000 24.470 33.670 7.451           24.720 24.250 34.950 32.340 30.688 10.332 20.355 421 696.6
DSCMET_421 2018-09-21 11:45:00 4031 178.700 5.0000 0.0000 0.0000 262.100 5.0000 0.0000 0.0000 259.500 5.0000 0.0000 0.0000 24.550 33.530 7.460           24.890 24.260 36.750 31.780 30.835 10.339 20.496 421 696.6
DSCMET_421 2018-09-21 11:40:00 4030 178.200 5.0000 0.0000 0.0000 262.100 5.0000 0.0000 0.0000 259.900 5.0000 0.0000 0.0000 24.100 34.900 7.652           24.800 23.650 37.500 33.090 30.015 10.475 19.540 421 696.6
DSCMET_421 2018-09-21 11:35:00 4029 178.400 5.0000 0.0000 0.0000 262.300 5.0000 0.0000 0.0000 259.800 5.0000 0.0000 0.0000 23.380 36.860 7.818           23.730 23.170 40.700 34.870 28.743 10.595 18.148 421 696.6
DSCMET_421 2018-09-21 11:30:00 4028 178.600 5.0000 0.0000 0.0000 262.300 5.0000 0.0000 0.0000 260.000 5.0000 0.0000 0.0000 23.280 37.650 8.041           23.420 23.150 40.770 35.750 28.570 10.757 17.814 421 696.6
DSCMET_421 2018-09-21 11:25:00 4027 178.700 5.0000 0.0000 0.0000 262.300 5.0000 0.0000 0.0000 260.100 5.0000 0.0000 0.0000 22.950 38.920 8.235           23.430 22.560 40.620 38.030 28.006 10.900 17.106 421 696.6
DSCMET_421 2018-09-21 11:20:00 4026 178.600 5.0000 0.0000 0.0000 262.200 5.0000 0.0000 0.0000 260.100 5.0000 0.0000 0.0000 22.880 38.650 8.071           23.120 22.590 40.410 37.570 27.888 10.779 17.109 421 696.6
DSCMET_421 2018-09-21 11:15:00 4025 178.400 5.0000 0.0000 0.0000 262.600 5.0000 0.0000 0.0000 260.700 5.0000 0.0000 0.0000 22.790 40.620 8.723           23.240 22.330 43.590 38.630 27.736 11.266 16.470 421 696.6
DSCMET_421 2018-09-21 11:10:00 4024 178.300 5.0000 0.0000 0.0000 262.700 5.0000 0.0000 0.0000 260.300 5.0000 0.0000 0.0000 22.300 41.310 8.532           22.500 22.060 44.270 39.780 26.923 11.122 15.801 421 696.6
DSCMET_421 2018-09-21 11:05:00 4023 179.100 5.0000 0.0000 0.0000 262.800 5.0000 0.0000 0.0000 260.500 5.0000 0.0000 0.0000 22.450 42.100 8.947           22.730 22.020 44.560 39.830 27.170 11.439 15.731 421 696.6
DSCMET_421 2018-09-21 11:00:00 4022 178.900 5.0000 0.0000 0.0000 263.000 5.0000 0.0000 0.0000 260.500 5.0000 0.0000 0.0000 21.630 44.840 9.141           21.920 21.450 48.250 40.960 25.846 11.589 14.257 421 696.6
DSCMET_421 2018-09-21 10:55:00 4021 178.600 5.0000 0.0000 0.0000 263.100 5.0000 0.0000 0.0000 260.400 5.0000 0.0000 0.0000 21.140 44.110 8.455           21.570 20.790 45.700 42.780 25.082 11.064 14.018 421 696.6
DSCMET_421 2018-09-21 10:50:00 4020 178.600 5.0000 0.0000 0.0000 263.300 5.0000 0.0000 0.0000 260.400 5.0000 0.0000 0.0000 21.030 44.860 8.604           21.370 20.730 50.390 42.680 24.913 11.176 13.737 421 696.6
DSCMET_421 2018-09-21 10:45:00 4019 178.400 5.0000 0.0000 0.0000 263.400 5.0000 0.0000 0.0000 260.100 5.0000 0.0000 0.0000 20.700 45.510 8.517           21.010 20.360 46.900 44.180 24.413 11.110 13.302 421 696.6
DSCMET_421 2018-09-21 10:40:00 4018 178.300 5.0000 0.0000 0.0000 263.500 5.0000 0.0000 0.0000 260.400 5.0000 0.0000 0.0000 20.560 46.770 8.792           20.810 20.310 49.700 44.030 24.203 11.320 12.883 421 696.6
DSCMET_421 2018-09-21 10:35:00 4017 178.400 5.0000 0.0000 0.0000 263.600 5.0000 0.0000 0.0000 260.600 5.0000 0.0000 0.0000 20.190 48.240 8.912           20.330 19.970 50.460 45.650 23.657 11.412 12.245 421 696.6
DSCMET_421 2018-09-21 10:30:00 4016 178.700 5.0000 0.0000 0.0000 263.700 5.0000 0.0000 0.0000 260.600 5.0000 0.0000 0.0000 19.840 48.370 8.632           20.180 19.370 50.710 45.600 23.150 11.197 11.952 421 696.6
DSCMET_421 2018-09-21 10:25:00 4015 178.900 5.0000 0.0000 0.0000 263.700 5.0000 0.0000 0.0000 260.200 5.0000 0.0000 0.0000 19.530 48.300 8.327           20.000 19.270 52.490 46.340 22.709 10.968 11.740 421 696.6
DSCMET_421 2018-09-21 10:20:00 4014 179.600 5.0000 0.0000 0.0000 264.000 5.0000 0.0000 0.0000 260.600 5.0000 0.0000 0.0000 19.610 49.940 8.893           20.170 19.040 51.910 46.800 22.822 11.397 11.425 421 696.6
DSCMET_421 2018-09-21 10:15:00 4013 179.500 5.0000 0.0000 0.0000 264.000 5.0000 0.0000 0.0000 260.700 5.0000 0.0000 0.0000 19.150 51.930 9.048           19.260 19.010 53.660 49.560 22.178 11.517 10.661 421 696.6
DSCMET_421 2018-09-21 10:10:00 4012 179.400 5.0000 0.0000 0.0000 264.100 5.0000 0.0000 0.0000 261.000 5.0000 0.0000 0.0000 19.060 52.690 9.180           19.360 18.850 54.970 49.060 22.054 11.620 10.434 421 696.6
DSCMET_421 2018-09-21 10:05:00 4011 179.400 5.0000 0.0000 0.0000 264.100 5.0000 0.0000 0.0000 261.000 5.0000 0.0000 0.0000 18.410 53.990 8.939           18.780 18.120 56.350 51.240 21.176 11.433 9.743 421 696.6
DSCMET_421 2018-09-21 10:00:00 4010 179.300 5.0000 0.0000 0.0000 264.400 5.0000 0.0000 0.0000 261.100 5.0000 0.0000 0.0000 18.110 55.920 9.181           18.390 17.730 59.090 51.760 20.781 11.621 9.160 421 696.6
DSCMET_421 2018-09-21 09:55:00 4009 179.300 5.0000 0.0000 0.0000 264.400 5.0000 0.0000 0.0000 261.300 5.0000 0.0000 0.0000 17.530 58.440 9.293           17.830 17.320 61.980 53.750 20.036 11.709 8.327 421 696.6
DSCMET_421 2018-09-21 09:50:00 4008 179.200 5.0000 0.0000 0.0000 264.500 5.0000 0.0000 0.0000 261.500 5.0000 0.0000 0.0000 17.790 56.580 9.056           17.930 17.540 58.400 54.540 20.367 11.524 8.843 421 696.6
DSCMET_421 2018-09-21 09:45:00 4007 179.000 5.0000 0.0000 0.0000 264.500 5.0000 0.0000 0.0000 261.500 5.0000 0.0000 0.0000 17.130 58.300 8.883           17.590 16.800 62.460 54.800 19.536 11.389 8.146 421 696.6
DSCMET_421 2018-09-21 09:40:00 4006 179.000 5.0000 0.0000 0.0000 264.500 5.0000 0.0000 0.0000 261.700 5.0000 0.0000 0.0000 17.000 60.110 9.214           17.230 16.640 62.990 55.870 19.375 11.647 7.729 421 696.6
DSCMET_421 2018-09-21 09:35:00 4005 178.800 5.0000 0.0000 0.0000 264.500 5.0000 0.0000 0.0000 262.000 5.0000 0.0000 0.0000 16.760 60.580 9.103           17.040 16.490 62.250 57.950 19.083 11.560 7.522 421 696.6